GFSSE_sfc_thetae_000.txt.gz
Theta_e
339 338 354 352 351 348 346 345 345 345 343 340 336 334 334 333 333 333 334 337 339 339 340 340 339 341 342 345 349 352 355 358 357 357 356 360 358 358 358 359 360 356 358
336 338 351 354 352 348 347 347 347 347 345 340 337 336 335 334 333 333 335 336 338 339 341 340 340 340 342 343 348 351 353 354 354 357 356 357 356 357 357 359 359 356 358
332 339 343 354 352 350 350 350 350 350 347 341 338 337 336 334 334 334 335 336 338 339 340 341 339 340 342 342 346 349 352 353 353 355 354 353 355 356 356 357 357 357 357
331 338 337 354 355 354 353 351 350 349 347 343 340 338 337 336 334 334 335 336 337 338 339 340 340 340 342 342 345 347 351 351 350 351 353 353 353 355 355 357 356 356 355
330 331 335 350 355 355 352 349 349 347 345 343 341 340 339 338 337 335 335 336 337 338 339 340 341 340 341 343 343 346 350 351 350 349 353 351 349 351 350 354 355 355 355
325 327 334 340 346 350 351 350 350 346 344 342 340 340 339 339 338 337 335 336 336 336 337 339 339 341 342 343 344 345 349 349 350 350 348 349 349 352 349 346 352 354 355
325 328 330 342 344 347 348 346 345 344 343 340 339 338 339 339 338 337 336 336 335 335 335 336 339 340 341 345 345 345 347 349 349 353 347 347 345 347 348 348 353 353 353
326 332 333 339 343 341 344 342 339 337 336 336 336 336 336 336 336 336 336 336 335 335 334 335 337 339 340 343 345 345 346 348 351 351 346 346 345 345 347 349 349 351 353
327 326 328 330 331 332 328 329 331 331 332 333 333 333 334 334 335 336 335 336 335 334 335 334 335 339 339 340 343 344 347 349 351 352 346 346 347 348 349 350 349 352 351
323 323 325 328 327 330 331 328 329 330 330 330 331 331 332 333 333 334 334 334 334 334 334 333 334 337 338 339 342 344 346 348 350 350 343 342 345 348 349 348 348 352 351
322 322 326 326 329 330 330 329 330 330 329 328 329 329 329 331 332 334 333 333 333 333 334 333 333 337 338 338 340 341 345 349 350 349 344 345 346 349 348 346 347 350 351
319 321 323 328 330 329 328 332 333 331 328 326 327 327 328 330 332 330 330 331 333 333 333 333 334 337 338 339 338 341 340 347 349 349 347 342 345 349 347 345 345 346 348
321 321 322 328 330 330 330 330 330 328 328 327 328 331 328 329 332 332 329 329 332 332 333 334 333 335 337 339 338 336 335 348 349 350 348 347 347 345 343 343 341 344 349
319 321 326 329 331 332 331 330 328 328 328 327 329 328 330 329 330 330 330 327 332 333 334 335 332 336 339 340 338 336 336 345 350 351 349 347 346 347 345 345 344 347 347
319 326 329 330 332 333 332 330 330 330 330 330 330 330 331 329 328 328 328 328 329 331 333 335 334 335 339 339 338 337 338 345 349 350 350 345 345 343 345 345 345 346 348
321 328 328 330 333 333 333 332 332 332 331 330 329 329 331 330 330 331 327 328 332 332 331 334 334 335 337 338 337 337 341 344 347 348 350 344 341 339 344 345 346 348 348
324 328 327 329 331 333 334 333 333 332 332 330 330 332 332 333 333 331 328 326 328 334 335 334 336 337 336 336 337 336 341 345 347 347 349 344 343 343 342 340 348 349 349
326 324 328 329 332 333 334 334 333 334 334 334 334 333 333 333 333 333 333 333 335 335 335 333 332 332 332 333 334 334 342 345 346 346 349 347 342 340 341 344 347 349 349
323 324 327 330 330 332 333 333 334 335 334 335 334 333 333 333 334 335 335 335 336 334 335 334 331 332 331 333 333 334 343 344 345 345 339 344 341 340 339 343 345 347 347
323 325 327 330 332 332 333 334 335 337 336 336 330 326 331 334 333 335 336 336 335 332 334 335 334 333 332 333 332 335 341 344 344 340 340 339 341 341 340 338 342 349 346
322 324 328 327 331 329 330 330 331 330 328 334 331 327 326 332 332 333 333 333 333 333 334 335 335 334 333 336 334 332 337 341 340 341 342 340 338 337 337 337 338 346 342
319 322 327 327 328 328 330 333 332 332 331 326 327 327 329 329 333 333 335 332 333 330 333 334 335 332 335 338 329 328 321 325 334 336 340 336 336 335 335 336 337 337 337
321 323 324 326 328 330 334 333 336 336 333 334 329 331 330 329 332 333 333 332 332 332 331 335 337 335 330 336 333 328 320 318 323 333 331 332 333 332 334 335 336 339 338
322 324 323 326 329 330 335 332 332 331 328 330 334 333 330 332 329 332 333 333 334 332 337 338 341 337 336 331 334 331 335 331 319 316 326 329 332 331 333 335 335 335 336
323 324 328 328 328 332 334 332 328 330 335 335 336 332 333 334 334 333 333 334 335 337 337 337 337 338 336 330 331 329 333 329 327 321 317 319 323 329 334 334 336 335 338
323 324 326 327 327 330 333 333 331 329 329 330 331 331 329 334 335 333 331 331 336 337 337 340 339 339 339 338 335 336 327 327 324 323 321 320 319 319 329 332 333 335 341

GFSSE_sfc_thetae_003.txt.gz
Theta_e
335 346 354 353 351 348 347 346 345 344 344 342 340 336 336 336 335 333 333 334 336 339 340 341 341 341 343 343 345 351 353 355 355 356 355 354 359 359 360 360 360 356 359
331 343 354 353 351 348 347 347 348 348 348 345 341 338 337 336 335 334 334 335 335 337 339 342 341 341 342 344 344 350 352 355 355 357 356 355 357 357 357 359 359 356 358
330 339 347 354 351 350 351 350 351 351 349 346 343 339 338 337 336 335 335 335 336 337 338 340 342 342 342 344 344 348 351 352 353 355 355 353 353 355 355 355 357 357 357
332 337 339 354 354 353 353 352 352 350 349 346 344 341 340 339 338 337 336 336 336 337 338 339 341 342 342 344 345 346 350 351 350 353 351 352 355 356 354 358 358 357 356
332 335 340 355 355 354 354 353 353 349 347 344 341 342 342 341 340 339 338 337 337 336 338 339 341 342 342 342 345 345 349 350 350 350 351 353 352 353 355 356 358 356 355
327 329 343 348 348 350 352 352 351 349 345 343 340 341 342 340 340 339 339 338 337 336 337 338 340 341 342 344 345 346 347 349 350 349 350 352 352 353 354 356 355 354 353
326 328 331 344 342 344 347 347 348 345 344 342 340 340 340 339 339 338 338 338 338 337 336 336 338 340 341 342 344 346 346 349 349 351 350 348 352 351 350 348 348 350 352
327 330 332 341 343 344 341 339 338 337 337 337 337 337 336 336 336 336 337 338 338 337 335 336 335 337 340 340 343 345 346 348 348 349 351 351 349 351 348 345 348 348 352
328 327 329 330 333 337 335 332 330 331 332 333 333 333 333 334 335 335 336 337 337 337 336 335 335 335 339 339 341 343 346 347 349 351 350 346 349 350 348 345 349 348 351
325 325 327 328 325 328 330 333 329 331 331 331 331 331 331 332 334 334 334 336 336 337 335 336 335 334 337 339 340 342 344 347 349 350 351 350 348 348 348 347 347 348 353
324 324 326 324 328 330 331 330 330 333 331 330 330 329 330 331 332 333 335 335 335 336 335 335 335 333 336 339 338 341 344 343 347 349 349 349 348 349 349 348 350 351 350
321 323 323 325 331 332 329 332 333 331 332 331 330 328 329 330 331 332 332 332 333 334 334 334 334 334 336 336 336 340 337 341 347 349 346 347 348 350 350 346 347 349 350
323 324 323 327 332 332 331 331 330 330 329 329 329 329 330 328 331 332 334 331 333 333 334 332 333 332 331 335 337 337 334 341 347 350 348 346 346 348 347 345 345 345 349
322 322 328 330 333 335 333 331 330 330 330 329 329 330 330 329 332 332 330 332 333 335 334 337 334 332 333 340 338 338 334 341 348 351 348 345 346 347 345 344 344 345 346
322 324 329 332 334 336 334 332 332 331 330 331 330 331 329 332 332 329 329 330 329 330 333 334 334 332 334 337 339 336 333 340 348 350 351 345 344 344 342 342 342 343 345
322 327 328 331 333 334 334 335 333 335 333 331 331 329 331 331 332 330 329 327 333 331 330 336 333 332 334 337 338 337 337 342 346 348 350 347 342 341 342 342 343 344 346
323 329 327 330 329 333 335 335 336 335 336 333 333 333 332 334 334 331 330 330 335 335 336 337 334 338 336 338 337 336 336 343 346 347 350 347 342 343 342 343 344 345 345
325 325 329 329 330 334 335 334 334 335 335 335 335 331 331 333 333 333 331 331 333 339 337 335 331 332 333 333 335 335 337 343 346 347 349 345 342 344 342 342 342 345 346
326 328 326 328 330 333 335 335 335 337 337 338 333 329 328 334 333 335 335 334 335 337 337 333 335 334 334 333 334 336 340 343 345 346 344 345 343 340 337 339 343 344 346
326 330 327 330 333 334 333 332 335 339 337 338 330 327 326 332 333 335 337 335 336 336 335 334 334 336 333 331 330 336 340 344 345 342 340 343 338 339 341 337 339 337 342
325 330 329 327 332 330 329 330 331 335 333 334 334 331 331 330 332 334 336 335 335 335 335 336 333 335 335 335 331 336 339 342 335 336 336 337 336 337 339 336 337 337 343
326 328 329 328 329 331 330 336 334 336 335 331 334 334 332 332 332 333 334 332 332 333 334 335 336 334 335 340 329 328 323 328 332 335 340 339 335 337 335 336 336 335 336
323 328 328 327 328 332 336 336 334 336 337 335 333 332 332 331 332 333 333 332 332 332 332 337 336 334 331 338 336 329 321 320 324 330 333 339 337 334 334 335 335 335 336
323 328 328 329 329 332 335 332 333 333 333 336 335 336 335 333 332 332 333 333 333 331 336 335 341 338 338 331 335 339 336 329 322 319 330 333 333 333 334 333 334 335 336
323 326 329 330 330 333 334 334 331 333 336 337 337 334 335 335 332 332 333 334 333 336 339 337 338 337 343 333 334 332 329 333 331 322 319 322 328 331 332 333 334 333 335
323 325 329 330 329 330 332 332 333 332 333 333 332 333 332 335 333 333 333 334 336 337 338 340 339 339 339 338 334 331 332 329 324 324 320 321 321 324 330 332 332 334 335

GFSSE_sfc_thetae_006.txt.gz
Theta_e
341 342 354 354 353 351 349 347 346 346 345 343 341 339 337 336 336 334 332 332 333 334 337 339 341 342 342 343 344 347 352 354 353 352 355 354 353 355 355 360 360 355 360
343 345 354 354 353 350 350 350 349 348 348 346 344 342 339 338 337 336 334 333 334 334 336 338 341 341 342 342 344 347 349 353 355 354 354 354 357 357 356 357 357 356 358
341 348 348 354 353 352 351 351 350 350 350 348 346 343 340 339 338 338 337 336 335 335 336 337 338 343 343 342 344 347 349 352 353 356 354 350 350 356 356 357 356 357 357
337 348 347 354 353 353 352 352 352 351 350 349 346 345 342 340 340 339 338 338 337 336 337 336 337 339 342 343 343 346 348 351 350 353 350 349 351 357 355 357 350 354 356
336 339 352 353 353 354 353 353 353 352 349 347 344 342 342 342 341 341 340 340 339 338 337 337 337 339 342 343 346 348 348 349 350 350 348 348 349 355 358 357 357 356 356
327 335 351 355 355 354 352 353 353 351 349 347 342 341 341 341 343 341 339 340 340 339 338 336 338 340 341 343 346 347 348 348 348 346 346 349 348 354 357 356 357 356 356
331 333 342 351 347 345 344 347 349 346 344 343 341 341 340 340 339 338 339 339 339 339 339 336 337 339 340 341 343 346 348 346 346 346 347 346 347 351 353 354 355 354 354
331 335 339 344 344 344 346 345 340 336 335 336 337 337 337 337 337 337 337 337 337 339 339 337 336 336 339 341 341 344 345 346 345 345 347 345 347 350 352 350 352 352 351
331 332 335 336 342 344 343 338 334 331 330 331 332 333 333 334 334 335 336 336 337 338 338 338 335 337 337 338 340 343 344 346 343 346 347 346 349 350 350 349 348 349 351
326 325 332 335 330 335 335 335 334 332 332 331 331 331 331 330 332 333 335 336 336 338 338 337 336 335 337 339 341 342 344 345 343 346 346 347 348 349 346 345 342 344 348
324 329 329 328 331 333 333 333 334 335 334 332 332 330 329 329 330 332 334 336 336 337 337 337 336 336 336 338 341 340 341 339 341 345 346 350 349 350 346 347 344 344 346
323 327 329 330 334 336 330 336 337 335 335 334 332 331 330 329 330 330 332 333 334 335 336 336 336 336 333 332 335 337 336 335 341 341 346 350 349 350 348 348 344 346 346
325 328 328 333 337 337 333 334 333 333 334 334 332 331 330 329 328 329 331 332 333 333 332 332 332 331 329 329 332 335 334 333 341 343 347 350 349 349 348 345 345 343 344
326 329 333 336 337 340 337 333 333 333 334 330 332 332 330 329 329 331 330 330 331 332 330 332 331 332 329 329 335 335 334 333 343 340 345 349 347 347 346 346 344 343 343
327 328 335 336 340 341 339 336 336 335 331 333 332 331 330 328 329 330 331 330 330 330 330 330 331 330 327 330 334 335 335 334 344 344 344 346 345 346 346 345 344 342 343
329 332 334 337 340 340 339 338 336 336 334 333 333 328 332 330 329 330 329 330 330 330 331 331 331 331 331 333 335 337 336 337 341 343 343 343 344 344 344 345 341 342 343
329 334 335 335 336 338 337 338 338 336 336 334 333 330 330 332 331 331 329 330 329 330 329 331 331 331 332 335 335 336 335 338 340 342 341 341 341 343 343 342 344 344 344
332 334 335 331 335 339 340 339 336 337 339 337 336 333 327 330 332 332 330 330 331 330 330 329 330 332 330 331 332 332 333 339 340 341 341 338 338 338 341 343 342 344 344
332 335 334 337 334 338 338 336 335 339 339 340 337 330 328 329 332 333 330 331 331 329 329 329 328 328 330 331 332 331 334 337 340 341 338 338 338 337 337 341 341 341 342
332 336 337 336 338 340 336 333 332 339 341 339 335 330 328 327 332 333 331 330 333 329 328 329 328 331 330 330 332 331 334 338 339 337 336 338 336 336 337 333 335 337 339
332 334 336 336 340 337 332 333 335 335 337 335 336 333 331 330 329 333 331 330 332 329 328 328 329 329 329 329 328 328 332 337 336 336 337 336 334 333 333 336 334 333 336
330 333 336 337 338 337 336 339 337 337 336 336 337 335 333 331 332 332 331 330 330 330 330 328 331 328 325 329 326 327 320 325 330 332 333 332 332 333 332 333 333 333 334
329 332 334 336 337 339 340 338 338 337 334 335 335 333 331 333 333 333 333 331 330 332 330 329 329 327 325 328 330 327 319 317 324 330 330 330 331 331 331 330 332 333 333
326 331 334 336 337 337 339 337 335 331 329 333 334 334 330 333 332 332 332 332 332 332 329 329 330 327 326 324 330 331 331 326 319 319 327 329 330 329 330 331 331 332 334
328 330 334 336 337 339 340 338 335 334 333 334 332 332 331 328 332 332 332 332 331 331 331 330 330 329 330 328 329 330 328 327 326 322 319 323 328 330 331 331 332 332 334
326 328 334 336 336 339 340 337 337 332 332 331 329 330 331 332 330 333 332 333 333 332 334 336 333 331 332 331 332 329 327 324 323 321 320 321 323 327 330 331 331 330 331

GFSSE_sfc_thetae_009.txt.gz
Theta_e
333 341 354 354 353 351 348 346 345 344 343 341 339 338 336 335 334 332 330 330 331 332 333 335 338 340 341 340 341 344 348 351 354 353 354 352 355 356 354 356 359 355 359
335 343 354 354 353 350 350 349 348 348 347 344 343 342 340 338 337 336 334 332 332 333 334 335 336 340 340 340 340 343 344 349 353 353 353 354 355 355 355 354 358 355 357
337 342 350 354 354 352 352 351 351 350 349 346 345 344 342 340 339 339 338 336 335 335 335 335 336 337 341 342 341 342 345 349 352 353 353 349 351 356 356 358 356 356 356
340 343 345 354 353 353 352 352 351 350 350 348 346 345 344 342 340 340 340 339 338 338 337 337 336 337 337 340 342 342 345 346 351 351 348 348 349 357 355 358 355 356 357
340 340 344 354 353 353 353 352 352 351 351 348 347 344 343 342 343 342 342 341 341 340 339 338 337 337 337 339 343 345 345 346 349 350 347 344 345 354 357 355 355 354 355
327 342 350 353 353 353 352 352 352 351 349 347 345 343 341 341 343 343 340 340 340 341 341 340 338 337 338 341 342 344 347 346 346 345 344 345 346 353 358 353 353 357 356
334 343 349 354 354 354 352 351 352 348 345 342 342 342 341 340 340 340 340 340 340 340 340 340 339 338 340 341 341 343 346 345 341 343 343 341 344 350 356 354 356 357 356
331 336 340 351 349 348 348 348 346 342 339 336 336 337 338 338 338 338 338 338 338 338 338 340 339 340 340 339 340 340 343 343 341 342 343 342 345 350 353 353 356 356 356
324 330 333 336 341 348 348 347 343 338 334 333 332 333 333 334 335 335 335 336 336 337 337 340 339 339 339 337 338 340 342 341 339 340 344 342 349 350 352 351 351 351 353
318 319 322 330 332 333 335 340 337 334 334 334 333 332 332 332 331 332 333 334 336 337 337 339 338 338 339 338 339 340 340 341 339 340 343 343 350 351 351 350 350 350 351
318 317 315 318 321 324 327 332 336 336 336 335 332 330 326 323 323 327 331 335 337 337 337 338 338 337 338 336 337 339 340 334 337 339 343 349 350 351 349 348 345 345 348
314 316 318 322 322 323 328 326 326 327 328 326 325 324 322 322 322 327 330 333 334 336 337 337 337 337 335 326 329 338 331 334 334 338 343 349 349 350 348 344 343 344 346
315 318 318 320 323 323 324 325 323 322 323 324 324 324 322 323 322 321 323 325 325 331 328 331 331 330 328 325 325 330 332 331 331 337 343 348 348 349 348 345 343 344 343
314 316 323 325 324 324 326 325 324 325 323 322 323 324 322 322 321 322 323 324 323 325 326 326 325 326 326 325 324 330 331 329 333 336 341 348 347 348 349 347 345 344 343
315 319 323 323 325 327 326 326 325 325 324 323 324 325 324 322 322 323 323 323 322 323 324 324 325 326 325 324 324 330 331 329 337 337 336 347 348 348 347 348 346 343 342
315 320 322 323 325 326 326 325 325 327 326 325 325 325 326 325 324 321 322 322 321 321 323 324 324 325 324 322 324 331 330 332 334 335 338 343 346 345 346 346 344 343 343
315 321 321 322 324 323 323 325 327 327 328 325 325 325 327 327 326 322 322 321 321 321 323 324 324 324 324 325 326 330 330 333 334 336 336 339 341 344 345 345 344 344 344
318 320 321 325 322 322 324 325 326 327 326 326 327 325 325 327 326 322 322 322 322 321 321 322 322 322 325 324 324 325 327 331 334 336 337 338 340 340 344 344 343 342 343
317 320 320 322 321 323 324 325 326 327 326 327 327 324 323 323 325 323 323 323 322 321 321 322 322 323 321 322 325 325 327 326 332 338 337 338 338 338 338 341 342 342 343
320 321 320 320 322 324 323 326 324 326 327 328 326 324 325 323 325 323 323 324 322 320 320 321 320 322 322 322 328 327 327 327 331 336 335 337 337 336 336 336 337 338 340
320 321 321 321 321 321 320 322 321 321 324 325 327 326 325 323 322 321 323 323 323 320 320 321 321 320 321 321 321 324 325 327 329 334 335 334 334 334 333 334 334 333 334
318 320 323 321 321 321 322 325 324 325 326 327 327 326 326 327 325 324 323 322 323 321 321 321 320 319 318 322 319 320 319 323 327 332 333 332 332 331 332 333 332 333 333
316 318 322 322 320 323 325 326 324 325 325 325 325 324 325 326 327 325 325 323 322 322 321 321 321 319 317 321 326 320 314 313 322 328 329 330 329 330 331 330 331 333 333
318 320 323 321 320 324 324 323 322 320 320 323 325 326 325 327 326 326 325 324 322 322 322 323 323 323 323 321 323 325 322 322 319 318 326 327 328 328 328 329 330 331 332
319 319 320 320 321 324 324 323 323 322 324 325 323 323 321 324 326 327 325 323 322 322 322 324 319 324 324 321 323 320 321 322 325 321 318 321 326 327 327 328 330 331 332
318 319 321 321 321 324 325 323 323 322 324 322 320 321 322 324 324 326 326 324 323 322 323 323 322 323 322 324 322 322 322 319 322 321 319 320 321 324 327 329 329 331 333

GFSSE_sfc_thetae_012.txt.gz
Theta_e
332 340 355 354 352 349 346 345 344 343 342 340 339 338 338 337 336 334 331 331 331 331 332 333 334 336 337 339 340 341 342 345 351 352 355 355 355 352 356 357 358 355 358
332 342 354 353 352 350 349 348 347 347 345 342 339 339 339 338 337 336 335 333 332 333 333 334 334 335 338 338 339 340 342 343 350 352 354 354 356 356 355 360 357 354 357
332 342 350 354 353 352 351 351 350 349 347 344 343 343 342 341 339 339 338 337 336 336 336 336 335 335 336 339 340 340 341 342 347 352 354 350 350 356 355 356 355 355 355
335 341 346 354 353 353 352 352 351 350 347 345 345 344 345 344 341 340 340 340 339 339 338 337 337 337 336 336 338 340 341 343 346 351 349 347 350 355 355 356 355 354 353
334 340 344 354 353 353 353 352 351 349 348 346 347 345 345 344 343 342 341 341 341 341 339 339 339 338 337 337 338 342 342 344 344 349 346 344 345 352 355 356 355 355 354
336 340 345 354 353 354 352 351 350 349 348 348 347 346 343 342 344 344 342 342 341 340 340 341 340 339 338 338 341 341 343 343 344 343 344 343 344 350 355 355 354 357 356
335 337 346 354 354 354 353 351 351 351 351 347 345 345 342 343 344 341 340 340 340 340 340 341 340 340 341 340 340 341 341 343 340 340 341 341 343 349 355 354 354 354 356
338 342 347 352 353 353 354 353 352 350 347 344 343 341 341 340 340 339 339 339 339 339 339 339 340 341 341 340 340 340 341 342 340 338 341 341 344 349 353 353 353 357 356
336 339 341 345 349 353 351 349 348 345 343 341 337 335 334 334 335 335 336 336 336 337 337 338 339 341 341 340 338 339 341 341 336 337 340 340 346 351 352 353 355 356 354
328 330 331 330 333 336 339 346 345 343 339 335 335 334 334 334 334 333 333 333 335 335 336 337 338 340 339 340 339 337 340 341 335 337 338 341 347 350 351 352 354 353 352
319 318 322 323 329 329 330 334 341 338 336 336 335 335 332 322 322 325 329 333 335 337 337 336 337 338 338 338 336 335 339 332 334 335 338 346 349 350 351 350 350 348 349
311 312 316 319 321 321 327 325 328 328 327 328 326 323 321 320 320 326 329 332 334 335 336 337 337 338 337 327 328 333 331 331 333 333 338 347 349 350 350 349 348 348 348
312 316 317 318 320 321 322 322 322 321 322 323 323 322 321 322 320 320 320 322 322 329 327 331 331 331 329 326 324 326 329 330 330 332 340 347 348 349 349 348 347 345 345
313 315 316 320 321 321 323 322 322 322 321 321 322 323 320 319 319 319 320 322 322 323 324 325 325 325 326 325 324 324 328 329 328 331 337 347 347 348 348 347 343 341 342
314 319 321 322 323 324 323 323 322 323 323 322 321 322 322 320 319 323 324 322 320 321 322 322 323 324 324 325 323 323 327 328 329 332 335 346 348 346 348 346 346 345 345
317 320 320 322 323 324 322 322 323 322 324 324 323 323 324 322 321 323 320 320 319 319 320 322 322 322 322 323 322 323 327 328 330 334 335 339 345 346 346 346 346 345 344
317 320 319 322 323 323 322 321 321 323 325 324 324 324 324 323 323 324 319 319 319 319 320 321 321 322 321 322 322 323 328 329 330 334 335 337 341 345 345 345 345 344 342
318 318 320 325 321 320 320 322 323 324 324 323 324 324 325 324 323 320 319 319 321 319 319 319 319 319 320 320 320 323 325 328 330 332 335 333 335 339 344 345 344 343 344
318 318 318 319 318 320 321 321 322 324 324 325 325 324 323 323 322 319 319 320 321 318 318 318 318 320 319 319 320 323 323 324 330 333 334 333 336 337 339 343 343 342 342
317 318 318 318 320 321 319 320 322 321 324 326 326 324 324 323 323 320 320 321 320 317 317 318 317 322 320 319 324 322 321 323 330 331 335 334 336 336 336 338 338 338 340
318 317 317 318 318 319 317 320 319 320 321 323 325 326 326 322 322 318 320 320 320 318 317 318 318 319 318 318 317 316 319 324 327 333 334 335 334 334 335 335 336 336 336
317 318 318 318 318 318 319 322 322 321 323 323 324 327 326 324 325 321 320 320 320 318 317 318 318 316 317 318 316 316 313 321 327 331 332 332 331 333 333 332 333 333 334
316 318 319 318 319 319 322 322 321 321 322 323 322 324 325 327 326 323 323 320 319 319 318 317 318 318 315 317 321 320 314 311 322 327 329 330 329 330 331 330 330 332 332
314 318 319 319 318 321 321 319 318 318 317 320 321 324 322 326 325 325 323 321 320 320 318 319 320 318 319 317 321 324 321 321 318 317 326 327 329 328 328 329 330 331 331
317 317 319 317 322 322 321 320 320 317 321 321 320 319 322 323 325 325 322 321 319 320 320 320 319 319 320 320 322 319 318 319 322 321 317 321 325 327 328 329 330 330 331
314 317 317 317 319 321 322 321 320 316 318 318 318 318 319 323 322 323 323 320 320 320 321 317 319 319 318 323 321 320 319 318 319 320 319 320 320 323 326 329 329 330 331

GFSSE_sfc_thetae_015.txt.gz
Theta_e
329 335 354 354 351 348 345 345 343 341 340 339 338 337 337 336 334 333 331 331 331 331 331 331 331 332 334 335 337 339 341 342 346 353 353 356 355 355 356 358 357 354 358
327 336 354 354 351 348 348 346 347 346 344 341 339 338 338 338 337 336 335 333 332 333 334 334 333 333 333 335 337 338 340 342 344 351 353 355 354 354 355 357 357 356 357
328 337 349 354 353 351 350 349 348 347 345 342 340 339 339 339 339 338 338 337 337 336 336 336 336 335 334 335 337 338 339 341 342 349 352 350 347 353 355 356 357 358 357
333 339 346 354 353 352 351 350 349 347 345 343 342 342 342 342 342 340 339 339 340 339 339 339 338 338 336 335 335 338 339 340 343 346 347 349 348 351 353 355 356 356 356
333 340 343 353 352 353 351 351 350 348 347 345 344 344 344 345 343 343 341 340 341 341 339 338 339 338 339 337 336 338 339 341 343 342 344 344 344 349 352 354 354 356 354
331 336 344 353 353 353 352 352 351 349 347 346 346 346 345 344 342 343 342 342 341 341 340 340 340 341 339 339 340 340 339 343 342 337 341 343 344 347 351 352 354 354 352
329 334 342 353 354 354 353 351 350 350 349 348 347 346 345 343 342 341 341 340 340 340 340 340 340 342 341 340 340 340 341 342 337 336 339 340 341 348 350 351 353 354 354
332 333 340 352 353 353 353 352 351 351 350 350 348 345 343 342 340 341 340 340 339 339 339 339 340 341 341 341 340 340 341 340 338 335 338 339 342 347 351 352 352 353 356
334 337 342 346 350 353 352 352 352 352 350 347 345 343 340 336 335 335 336 337 337 338 337 338 339 340 341 340 340 339 339 341 335 334 337 338 345 348 351 351 352 351 354
334 337 339 338 341 340 343 352 351 348 345 344 341 336 334 335 335 335 334 333 334 336 336 337 337 340 340 339 340 338 338 340 334 333 335 336 345 348 351 351 351 351 354
325 325 327 329 331 333 334 338 345 344 342 339 335 336 335 327 323 326 328 330 333 335 336 336 336 338 338 337 337 337 336 330 331 332 334 341 346 349 350 352 352 351 352
317 315 322 323 326 327 330 326 329 328 327 326 328 325 323 321 319 323 327 331 332 334 335 336 337 337 336 329 330 335 326 329 330 331 333 342 346 348 350 351 351 350 350
315 313 316 318 320 320 321 321 322 323 321 321 325 323 320 321 319 320 319 320 320 327 324 328 328 329 329 326 325 325 326 328 328 330 334 341 345 348 350 350 350 348 348
311 313 317 317 318 318 320 320 320 320 320 320 322 321 319 318 318 318 318 319 320 321 321 322 324 326 326 326 325 324 324 326 328 327 330 340 346 347 349 349 347 347 345
310 314 316 318 319 320 321 320 319 320 321 320 320 321 320 318 318 318 320 322 322 319 319 320 321 323 324 324 323 323 322 325 328 327 328 339 345 347 348 348 347 347 346
312 314 318 319 321 322 320 320 320 321 321 321 321 322 322 320 319 319 322 322 318 317 318 319 320 321 322 321 322 322 322 325 327 328 329 333 345 346 347 347 347 345 344
315 318 319 319 321 321 320 320 320 320 322 322 322 323 323 321 320 320 321 320 317 318 318 318 319 320 320 320 321 321 322 324 327 328 331 334 338 345 347 347 345 345 344
317 318 318 324 321 320 318 319 320 322 322 322 322 322 324 323 322 319 318 317 318 318 317 317 317 317 318 318 318 319 322 323 326 329 332 333 334 338 343 344 343 345 345
318 317 318 320 319 318 318 319 319 321 321 322 323 323 324 324 323 319 317 317 319 318 316 316 316 317 316 316 318 319 320 322 326 332 334 331 332 334 336 342 342 343 342
316 317 317 317 316 318 318 317 319 319 321 323 323 323 325 324 322 318 316 319 319 316 315 315 315 317 317 316 321 320 319 320 324 329 331 334 335 335 336 338 340 339 341
316 316 316 316 317 317 315 317 317 318 319 321 322 325 326 324 322 319 317 319 319 316 315 315 315 317 315 316 315 314 321 324 324 326 328 331 332 336 337 336 336 337 337
315 316 315 316 317 316 316 319 319 318 321 322 321 325 327 325 322 319 318 319 318 316 315 315 316 316 315 316 313 312 310 317 325 328 330 331 331 334 333 335 335 334 334
315 315 317 316 317 316 320 319 318 319 320 319 319 321 322 326 325 322 321 319 317 316 314 315 316 316 313 317 317 313 309 309 319 325 327 330 330 331 330 331 333 332 332
315 317 317 317 316 319 319 318 316 316 314 317 318 320 321 325 325 323 322 320 318 317 315 316 318 316 316 315 318 320 318 321 316 316 324 326 329 328 328 330 331 331 332
315 316 317 316 316 318 319 318 317 315 317 317 317 317 317 322 324 324 320 319 318 317 316 317 317 317 317 317 318 318 318 320 320 320 316 320 325 327 328 328 330 331 331
314 316 315 317 318 318 319 319 316 315 315 316 315 316 317 320 319 320 321 318 318 317 318 318 318 317 317 320 323 321 319 317 317 319 319 320 320 323 327 328 329 329 330

GFSSE_sfc_thetae_018.txt.gz
Theta_e
327 332 354 354 350 346 344 342 341 340 339 338 337 336 335 334 332 331 330 330 330 330 330 330 331 330 332 334 335 336 338 341 342 349 353 354 354 356 356 357 358 354 359
330 334 354 353 351 347 347 345 344 344 343 339 338 338 337 337 336 335 333 333 333 333 333 333 332 332 332 333 335 336 337 339 341 344 351 353 355 353 356 356 357 356 357
327 335 349 354 352 350 350 349 348 347 345 342 340 339 339 338 338 338 338 337 337 336 336 336 336 335 334 333 335 337 337 338 340 341 349 350 350 354 354 356 356 357 357
328 335 346 354 352 351 351 350 349 348 345 343 341 339 338 339 340 340 339 338 339 339 339 339 339 338 338 336 335 335 337 338 339 341 346 348 348 352 353 354 356 357 357
329 337 344 354 353 352 352 351 350 349 347 344 342 341 342 342 343 343 341 341 340 340 339 339 339 340 339 339 337 336 336 338 340 341 343 346 349 349 353 353 354 356 358
331 337 345 353 353 353 353 352 351 348 347 345 345 344 344 344 343 343 343 342 341 341 341 339 339 340 341 340 340 339 337 336 341 339 341 343 348 347 351 352 352 355 354
329 334 341 353 353 353 353 352 351 350 350 348 346 345 346 344 343 343 341 341 341 341 341 340 339 342 343 342 341 342 339 338 339 339 339 341 344 346 350 352 353 353 352
328 332 339 351 353 353 353 353 352 351 350 348 348 347 345 344 343 341 340 340 340 340 340 339 340 341 341 340 340 342 340 341 337 338 339 341 343 346 349 352 353 352 350
329 332 337 344 350 353 353 352 352 351 351 350 350 348 345 343 340 337 336 336 337 338 338 339 339 340 340 339 339 340 339 340 338 337 338 340 342 347 350 351 352 352 352
330 331 335 341 345 345 347 353 352 352 351 350 347 345 343 337 336 336 335 334 334 335 335 336 337 338 340 340 340 339 339 339 338 337 338 339 342 346 349 349 352 353 352
330 331 333 336 338 338 339 344 351 350 348 346 342 341 337 330 328 330 331 333 332 332 334 335 336 336 338 338 338 339 339 334 335 335 337 339 343 345 349 349 352 352 351
323 324 329 330 332 332 336 333 334 334 332 330 330 328 329 327 324 325 327 330 331 332 334 335 336 336 337 333 333 338 334 331 333 335 336 340 342 344 348 351 352 351 350
323 323 324 326 327 326 325 324 323 325 324 324 325 326 325 323 322 323 323 323 323 326 326 328 328 329 332 331 330 331 330 329 331 333 335 339 341 343 347 350 351 351 349
313 317 318 321 322 321 320 320 320 321 321 321 321 324 322 320 320 320 320 320 321 323 323 324 325 328 330 330 329 328 328 329 330 332 333 338 340 343 347 349 349 348 347
309 312 316 317 318 318 319 320 319 320 322 321 321 322 321 320 319 320 320 321 322 324 323 323 324 325 327 328 328 327 327 327 329 331 332 336 338 342 346 348 349 348 346
310 312 315 318 317 319 320 319 319 320 321 321 321 321 322 321 320 320 321 323 323 322 321 321 323 324 325 326 326 326 326 326 328 330 332 333 337 343 345 347 348 348 346
310 314 316 317 320 320 320 320 320 320 321 321 322 323 324 323 322 322 321 321 322 321 321 321 322 324 323 324 325 325 325 326 327 329 332 334 337 342 345 347 347 347 347
313 315 318 322 321 320 319 319 320 320 321 322 323 323 324 324 323 321 321 321 321 321 320 320 320 321 322 322 323 324 325 326 327 329 332 335 338 341 344 346 345 346 346
316 317 318 320 320 320 318 318 319 321 321 322 323 323 324 325 326 322 320 320 321 320 320 319 319 321 320 320 321 323 323 325 327 331 333 334 337 340 342 344 343 343 344
317 318 319 319 319 318 317 318 319 320 321 322 324 325 326 326 326 322 320 320 320 320 319 318 319 320 321 321 323 323 323 325 327 327 332 333 336 337 340 340 342 341 342
317 317 317 317 316 317 316 316 318 319 320 322 324 325 326 326 324 321 319 319 321 320 319 318 318 320 319 320 320 320 324 325 325 327 330 334 333 336 338 339 340 338 339
316 316 315 316 316 317 316 319 320 320 321 322 323 324 327 327 325 322 319 319 321 319 318 318 319 318 319 320 317 317 315 320 325 329 332 331 332 335 336 336 336 336 336
315 315 316 316 317 317 319 319 319 319 320 320 321 322 324 326 326 324 321 321 320 319 317 318 319 320 317 318 320 319 313 313 320 327 329 329 329 331 333 334 335 334 333
314 315 316 316 317 318 320 318 318 317 315 318 320 321 323 326 326 324 323 322 320 319 317 318 320 320 321 317 321 323 322 323 318 315 325 326 328 329 330 331 331 331 332
315 315 316 316 316 319 318 319 318 316 317 319 319 320 321 323 325 324 323 321 320 320 319 319 320 321 321 320 320 320 322 322 321 322 315 320 325 327 329 330 330 331 332
315 315 315 316 316 318 319 319 318 317 317 317 317 319 318 321 322 323 322 321 321 321 320 320 321 321 321 322 324 323 322 320 320 323 320 320 320 324 327 329 329 330 332

GFSSE_sfc_thetae_021.txt.gz
Theta_e
329 333 354 354 351 348 344 342 341 340 339 338 338 336 335 334 333 332 331 331 330 330 330 330 330 329 331 332 333 335 336 340 342 345 351 353 354 355 358 358 358 355 360
334 335 355 354 352 348 347 346 345 344 343 339 338 337 336 335 334 333 332 332 332 332 333 333 333 332 332 333 333 335 335 337 340 341 348 351 353 354 356 357 358 356 358
332 338 351 354 352 350 349 348 347 346 345 342 340 339 338 338 337 337 337 336 336 336 336 336 336 336 335 335 334 336 336 336 338 340 343 353 354 354 356 356 358 358 358
334 341 345 354 353 351 350 350 349 347 346 344 342 340 340 339 339 339 340 340 339 339 339 339 339 339 338 338 336 335 336 337 337 339 339 349 353 352 354 356 358 358 357
336 343 348 354 353 352 351 351 350 349 347 345 341 340 339 340 340 342 342 341 340 339 339 340 340 339 339 339 339 337 336 335 338 339 339 345 353 351 352 355 355 356 356
335 342 347 354 354 353 352 352 351 350 348 345 343 342 342 342 345 344 344 343 342 342 341 341 341 343 341 341 341 340 338 336 336 337 341 341 349 350 351 353 354 355 353
335 338 344 353 354 354 354 353 352 350 349 348 345 344 344 346 345 344 344 343 342 342 342 342 341 343 344 344 342 342 340 337 335 337 340 341 345 346 351 352 354 353 352
337 339 344 352 354 353 353 352 352 351 350 350 348 348 348 347 345 344 343 341 340 341 341 341 340 343 341 341 341 342 340 338 338 337 340 341 343 345 349 351 354 352 351
340 339 344 348 353 353 353 352 352 351 351 351 350 349 349 345 345 342 338 337 337 338 339 340 339 341 340 340 340 340 340 339 338 339 337 340 342 345 349 351 352 351 351
337 340 342 347 349 349 349 353 353 353 352 351 350 349 349 344 341 336 338 336 335 335 336 337 338 338 340 340 339 339 340 340 339 338 338 338 342 344 348 350 351 351 351
334 337 340 342 346 348 347 348 352 352 350 350 348 347 345 339 337 336 336 335 334 334 333 334 336 337 337 338 338 338 339 338 338 337 337 339 342 343 346 349 351 352 351
332 335 337 341 344 346 344 349 349 347 345 345 344 342 340 339 338 335 334 333 332 333 333 334 336 337 337 337 335 338 336 336 337 337 335 339 341 343 344 348 350 350 351
332 334 337 341 344 345 343 345 344 344 342 342 342 341 338 336 337 336 334 332 333 332 331 332 333 333 333 334 336 336 335 336 336 336 333 339 340 342 343 347 348 350 351
329 333 337 340 342 344 343 341 338 337 337 335 336 339 337 335 335 334 332 331 331 331 332 333 332 334 334 335 336 335 336 336 336 336 333 337 339 341 342 346 347 349 350
327 330 333 339 341 341 339 336 334 333 333 334 335 336 335 333 334 334 332 331 331 331 331 331 331 331 332 335 336 335 335 336 337 335 332 336 338 339 341 345 347 348 349
327 327 331 336 339 337 335 335 333 334 334 334 334 334 336 334 334 332 332 331 331 332 331 331 329 330 331 335 334 335 335 336 336 334 330 335 336 337 340 345 347 347 349
326 326 329 333 335 334 333 334 334 333 333 333 334 336 335 335 334 334 332 333 333 331 330 331 330 331 331 333 333 334 334 335 333 332 333 336 338 337 340 344 346 347 349
325 324 328 328 331 333 333 334 332 333 333 334 334 335 336 336 336 335 333 333 333 331 330 329 329 328 330 330 332 333 333 333 333 333 334 335 338 340 343 344 345 347 348
323 326 327 329 329 332 334 332 333 335 333 334 335 335 336 335 335 335 332 332 333 330 329 330 329 328 329 330 331 331 331 332 333 333 335 339 341 343 345 344 345 344 346
324 328 330 329 332 333 332 331 332 332 332 334 335 335 337 336 336 335 329 330 330 329 328 329 329 328 329 329 329 329 331 333 334 336 337 340 340 344 345 345 347 342 341
325 326 329 329 332 331 328 328 329 328 332 333 335 336 336 337 335 332 328 329 328 327 328 329 329 328 328 330 327 323 328 333 335 337 340 339 336 339 342 344 342 333 342
324 326 328 330 331 331 330 331 333 334 335 335 335 336 336 335 335 331 331 324 326 327 328 328 327 326 328 330 326 326 319 325 332 335 336 335 336 340 339 344 342 341 342
324 326 329 330 330 331 332 332 333 334 333 332 334 335 335 334 334 330 329 329 329 330 329 328 327 327 324 327 330 326 317 315 324 333 334 334 336 337 340 338 341 340 341
324 328 329 330 331 331 333 332 333 331 328 332 333 334 334 331 333 330 332 330 331 330 329 328 328 328 329 324 326 332 332 329 322 321 330 332 334 331 335 338 338 336 336
325 326 328 330 331 332 333 334 331 330 331 333 332 331 331 334 332 330 332 331 331 330 330 329 329 329 329 331 330 330 331 329 330 326 319 323 328 332 332 332 332 334 334
326 326 328 329 330 332 332 333 332 330 329 329 329 330 331 332 332 332 331 332 332 331 330 329 330 330 330 332 333 332 330 326 326 328 321 321 322 326 331 333 332 332 332

GFSSE_sfc_thetae_024.txt.gz
Theta_e
333 344 355 353 352 350 346 343 343 342 341 340 338 337 336 334 333 332 331 331 330 330 330 331 331 330 331 332 333 335 336 339 342 344 350 352 354 355 356 358 360 357 359
337 344 355 354 352 350 349 347 346 345 344 341 339 338 337 336 335 334 333 333 333 333 333 333 334 333 333 332 333 334 336 337 340 342 344 351 354 355 356 356 358 356 358
336 344 352 354 353 352 350 349 348 347 346 343 340 339 338 337 337 336 336 336 336 336 336 337 337 337 337 335 334 335 336 336 339 341 342 350 354 355 356 356 358 358 358
337 343 346 354 353 352 351 349 348 347 346 344 342 341 340 339 339 339 339 339 340 339 339 339 340 340 339 339 337 336 336 337 338 339 336 343 352 355 355 356 357 357 357
339 341 347 354 353 353 351 350 349 349 347 344 343 342 341 341 340 340 340 341 341 341 340 340 340 340 340 341 339 339 338 336 337 339 335 337 349 353 354 356 356 355 356
339 340 347 355 354 353 352 352 351 350 348 346 344 342 341 341 343 345 343 344 344 343 342 342 342 342 342 342 343 341 340 338 337 334 335 339 343 353 352 353 355 355 354
339 340 346 354 354 354 353 353 352 351 350 349 345 344 343 345 346 347 345 345 344 344 343 343 343 345 343 343 343 343 342 341 339 335 335 339 338 347 348 352 354 353 353
339 342 347 354 354 353 353 353 352 352 350 350 348 348 348 348 348 346 345 344 343 341 341 342 342 342 342 342 341 342 342 341 339 338 337 337 343 343 347 351 352 352 352
341 341 346 351 354 354 353 352 352 351 351 351 350 349 349 349 347 345 344 342 338 338 338 339 341 341 341 340 340 342 341 342 340 339 338 338 345 343 347 349 351 351 352
339 341 343 350 349 350 350 354 353 352 352 351 351 351 350 349 346 343 341 338 337 336 335 336 338 339 341 340 340 340 341 340 340 337 339 339 343 341 344 349 351 351 351
335 340 342 343 347 349 348 349 353 352 351 352 350 349 348 344 341 341 341 336 336 335 335 335 335 336 337 338 339 338 339 338 337 336 338 343 340 341 342 346 350 350 350
333 336 340 344 346 348 344 347 351 347 348 348 346 346 345 342 341 338 338 335 335 335 334 334 334 335 338 337 336 338 337 337 335 336 338 341 340 342 342 344 347 348 350
332 335 338 345 348 348 344 345 347 346 345 346 347 346 344 339 340 339 338 337 338 336 335 333 334 335 335 336 334 335 334 335 334 334 338 338 339 341 342 342 346 348 349
331 334 339 342 347 349 345 344 345 343 343 341 341 344 342 338 339 339 337 335 336 335 334 334 333 334 335 335 335 337 334 335 333 336 338 336 338 340 341 342 344 347 349
331 333 338 343 348 349 349 345 345 341 339 338 337 340 341 338 338 338 338 336 334 333 333 333 333 334 333 334 334 335 334 335 335 336 337 335 337 339 340 342 344 347 348
334 334 338 342 347 348 348 349 344 341 337 337 335 337 342 339 339 338 338 335 335 336 335 333 333 332 332 333 334 336 336 334 336 338 338 333 337 338 339 341 344 347 348
335 337 338 342 346 349 347 345 341 337 337 334 335 341 341 342 341 341 338 336 337 339 338 336 333 333 332 332 334 335 335 337 336 337 336 331 334 338 338 339 344 347 348
335 336 338 337 343 347 346 342 337 336 335 335 337 339 342 342 342 340 336 336 338 338 336 333 330 330 330 330 335 335 335 337 335 335 331 330 333 336 338 341 345 347 347
335 336 335 338 341 343 343 339 339 339 336 337 338 338 341 341 341 339 339 337 339 336 335 335 332 331 329 331 331 333 334 335 333 330 330 334 339 339 336 344 344 345 346
334 335 336 337 340 342 338 338 335 335 335 337 337 338 340 341 340 340 339 338 332 330 334 332 332 332 331 332 331 331 333 333 332 329 332 336 340 341 341 345 347 345 344
332 333 335 336 340 337 334 332 331 330 332 335 337 340 340 340 338 338 338 330 331 330 328 332 333 329 331 333 330 329 331 334 331 330 335 340 341 341 344 345 347 344 343
331 333 335 336 338 337 334 334 333 332 333 336 338 340 340 339 338 337 335 334 330 326 330 331 331 330 330 334 328 327 322 326 331 335 336 339 338 340 342 345 342 337 333
331 333 334 337 338 338 338 336 336 337 336 334 335 336 338 338 338 336 335 331 331 330 331 333 332 329 328 333 334 328 321 317 323 333 336 337 338 340 342 344 343 340 342
331 333 335 337 338 338 338 335 335 330 328 335 335 338 337 337 336 336 335 333 334 334 334 334 332 331 332 330 333 331 331 327 318 323 334 337 339 339 342 344 343 341 343
331 333 335 337 337 337 337 337 334 333 334 335 335 334 337 337 335 333 336 334 334 336 336 334 331 330 335 333 329 332 332 327 330 328 324 328 333 335 339 341 340 340 341
331 333 335 335 335 337 337 338 336 335 333 332 332 332 335 337 336 335 334 335 336 336 333 333 333 332 334 335 334 331 332 325 325 330 328 326 326 328 331 335 335 335 335

GFSSE_sfc_thetae_027.txt.gz
Theta_e
338 349 354 353 351 349 346 343 343 342 340 339 337 336 335 333 332 332 332 332 331 330 331 331 331 330 331 332 334 335 337 338 342 345 348 353 354 354 357 359 359 356 359
338 349 354 353 352 350 348 346 346 345 344 340 339 338 336 334 333 333 332 332 332 333 333 333 334 334 334 333 334 335 336 337 339 342 345 348 354 354 356 357 359 356 357
338 349 350 353 353 352 350 349 348 347 345 342 341 339 338 337 335 335 334 334 335 335 335 336 337 337 338 337 336 336 337 338 339 339 342 344 352 355 355 356 357 357 358
338 350 344 354 353 353 351 350 349 348 346 344 342 341 340 339 338 337 337 338 339 339 339 338 339 340 341 340 340 338 336 337 339 340 334 332 342 359 356 356 356 356 357
338 349 347 354 353 353 352 350 350 349 348 345 343 342 342 341 341 340 340 341 341 342 341 341 341 341 341 342 342 341 340 338 338 336 332 330 335 351 356 355 355 355 356
337 343 353 353 354 354 353 351 350 350 348 347 345 344 343 342 342 342 341 342 343 344 343 343 343 342 343 343 344 342 342 341 339 335 332 333 336 349 351 354 354 355 355
337 339 350 354 354 354 354 352 351 350 350 349 346 344 344 345 345 345 344 345 346 345 345 344 344 344 343 343 343 343 343 343 341 337 334 336 337 347 349 350 352 352 354
337 340 344 355 354 354 353 352 352 351 350 350 349 348 347 347 347 345 346 346 344 344 342 341 341 343 343 342 342 342 341 342 341 339 338 336 345 345 345 348 351 351 352
338 340 342 355 355 354 353 352 352 352 351 351 350 349 349 348 349 348 347 345 343 340 338 338 339 340 342 341 341 341 341 342 340 339 337 337 348 344 342 346 351 351 352
339 339 341 348 354 352 349 354 353 353 352 351 351 350 350 349 349 347 346 343 340 338 337 336 336 337 339 341 341 341 341 341 339 338 337 339 346 343 340 344 350 350 351
335 339 341 340 346 350 347 349 353 352 351 351 349 350 350 343 341 345 344 342 339 338 336 336 336 336 336 338 339 339 339 337 335 336 336 347 344 342 340 341 347 349 350
332 336 338 342 345 347 343 350 352 348 347 346 346 347 348 346 343 339 342 337 338 338 337 336 335 335 336 333 334 340 336 335 334 337 336 345 341 339 338 340 344 347 349
332 334 338 351 353 349 345 344 349 348 346 347 350 353 351 343 340 339 339 339 339 340 337 337 336 335 335 333 334 335 336 335 333 334 337 345 342 341 339 341 343 346 347
329 334 336 343 353 356 348 343 345 347 347 345 345 353 348 341 341 340 338 338 340 337 338 337 334 338 335 334 335 334 335 335 334 332 341 341 339 338 339 341 342 345 346
329 332 336 345 354 356 357 346 346 348 344 345 343 345 343 339 342 340 341 338 340 337 336 334 336 336 335 333 334 332 332 336 334 334 336 340 338 338 339 341 342 344 347
334 334 338 344 356 353 353 358 352 353 345 341 339 339 344 341 344 339 340 338 337 337 337 336 333 334 334 333 334 335 335 337 336 336 336 335 339 338 338 340 342 343 347
333 342 343 349 355 356 355 355 352 346 343 339 337 343 340 344 344 343 338 338 339 343 339 339 337 336 332 333 333 334 335 336 336 336 340 335 337 339 339 340 341 343 347
338 341 341 338 345 354 354 352 348 342 340 337 337 338 343 344 344 342 339 338 343 342 342 337 335 334 332 331 333 333 334 338 336 336 336 337 333 335 340 341 340 344 347
340 340 340 345 343 350 355 350 348 349 339 336 337 338 341 342 342 341 339 341 343 340 340 336 335 335 332 330 333 335 335 335 335 334 335 334 335 337 339 342 343 346 348
337 340 344 343 348 353 349 348 340 338 337 336 337 338 341 341 342 342 341 342 341 338 331 332 333 335 334 335 331 331 333 334 334 334 331 331 335 336 337 342 344 343 346
336 339 341 341 351 348 342 336 335 333 336 335 336 340 340 341 340 343 340 340 337 332 333 333 329 326 333 334 332 331 333 334 335 331 332 332 336 338 338 338 344 346 345
336 338 339 341 346 345 340 341 337 337 334 334 336 340 340 340 342 340 340 339 337 332 333 332 332 330 331 333 326 328 321 328 332 330 333 335 338 337 336 341 345 344 341
334 337 338 341 342 345 346 342 338 338 339 335 334 336 339 339 340 339 338 337 335 336 331 335 334 331 329 332 333 329 322 318 323 328 332 334 339 336 336 345 342 338 337
334 337 339 341 341 341 344 343 344 333 329 333 336 334 338 338 337 336 337 336 335 335 337 335 337 334 333 329 333 335 332 330 322 320 334 337 341 340 340 343 343 342 338
335 336 339 340 339 341 341 342 335 335 331 333 333 336 339 340 337 336 336 335 336 340 335 335 334 334 336 333 334 334 336 328 330 322 324 328 337 340 343 344 343 344 338
334 336 338 338 338 339 338 339 339 337 334 332 333 334 339 340 338 337 334 336 337 337 335 333 334 334 335 336 335 334 330 325 325 325 328 329 329 330 337 340 340 341 339

GFSSE_sfc_thetae_030.txt.gz
Theta_e
343 345 354 353 351 350 347 344 343 342 342 341 338 337 338 337 335 334 333 332 332 331 331 331 331 331 331 331 333 335 336 338 341 345 348 350 354 355 356 358 357 354 359
346 345 353 353 352 350 348 347 347 345 345 343 339 338 339 336 335 334 334 334 332 332 332 333 334 334 334 333 333 335 335 337 340 340 343 346 352 355 356 357 356 355 356
347 345 347 352 352 351 349 348 347 346 346 345 343 341 339 337 335 335 334 334 334 334 334 335 335 337 338 337 337 336 336 339 340 339 339 337 343 356 356 356 357 355 355
348 347 344 352 352 351 350 349 348 348 347 346 344 341 341 339 337 336 336 336 337 337 338 338 338 338 340 340 340 339 338 337 338 338 334 329 333 355 356 355 355 355 356
348 348 346 353 352 353 351 350 349 349 348 347 344 342 341 340 339 339 339 339 340 341 342 342 341 341 341 341 342 342 341 340 339 337 330 328 328 339 356 355 353 355 354
343 347 351 352 353 353 352 351 350 349 349 347 345 344 343 343 343 344 342 341 341 343 344 344 344 344 343 345 345 345 344 342 342 336 333 331 333 352 354 351 353 354 353
336 345 352 352 354 354 353 352 351 350 349 348 347 346 346 346 346 345 344 343 345 346 345 344 344 344 344 343 344 345 344 342 340 337 336 335 333 349 352 351 349 351 352
338 343 353 353 353 353 353 352 351 350 350 350 348 348 348 347 347 347 347 345 346 345 344 342 341 341 344 344 343 344 343 341 337 338 338 335 348 350 349 348 349 350 350
340 341 354 352 353 355 353 352 351 350 350 350 349 349 349 349 349 349 348 348 346 345 342 339 339 339 339 342 342 343 342 341 338 336 336 337 349 350 347 347 348 349 349
337 337 352 352 351 351 351 353 352 351 351 350 350 350 349 350 349 349 348 349 347 344 340 338 338 337 337 339 342 343 341 342 338 335 334 337 348 348 345 345 347 348 349
332 337 345 352 352 350 347 350 353 353 352 352 351 351 349 344 341 344 345 348 347 343 340 339 337 337 337 336 338 340 341 336 335 335 333 342 346 344 343 343 345 347 348
328 335 338 342 350 350 347 346 350 350 349 348 345 345 346 343 344 342 343 349 344 342 340 339 338 337 336 331 330 338 336 335 333 333 333 347 346 344 342 341 343 345 347
329 330 337 344 348 348 345 345 350 348 346 345 344 345 347 346 345 342 339 340 339 340 336 338 336 334 333 331 330 335 335 334 332 332 334 346 345 343 340 340 341 343 347
329 336 339 346 349 347 346 345 350 348 346 344 344 347 346 346 345 342 339 341 338 338 337 336 334 334 333 336 335 333 333 334 332 333 343 345 344 343 341 340 341 342 346
332 338 340 349 347 349 351 345 348 349 346 345 347 347 347 344 342 343 341 342 341 340 338 337 336 335 334 333 333 333 332 332 334 334 337 343 343 342 340 340 341 341 345
339 340 343 350 349 349 346 352 351 350 349 347 347 347 347 345 343 343 344 341 340 340 337 337 335 335 333 332 333 332 333 334 336 333 333 338 341 341 340 340 341 342 344
341 341 342 349 352 350 351 349 359 352 351 348 346 348 345 344 344 346 342 341 339 339 339 337 336 336 334 332 332 331 331 332 334 334 335 336 336 340 341 340 341 342 343
343 339 347 337 352 352 353 352 350 350 349 349 344 345 344 346 346 345 341 339 340 341 339 336 334 333 333 331 329 330 331 332 333 334 332 334 334 333 338 341 343 343 343
342 348 347 348 351 351 354 353 351 355 347 345 345 343 344 344 344 342 340 340 342 339 336 335 333 332 330 330 329 329 331 333 333 334 332 333 335 332 335 340 342 343 345
343 345 352 352 354 351 352 352 349 347 345 344 343 343 346 344 343 342 339 341 340 337 335 334 331 332 330 329 331 329 330 332 333 332 333 333 330 331 335 337 337 339 346
342 345 351 351 353 350 348 344 341 339 340 340 342 343 343 344 342 342 340 339 338 335 333 332 331 329 324 327 327 326 328 330 330 330 331 329 330 332 334 336 336 337 341
343 345 347 348 350 349 347 346 341 339 337 339 340 343 343 342 341 341 340 338 337 334 332 331 330 326 325 328 322 322 318 322 327 330 330 330 333 333 334 337 337 338 341
339 341 342 346 348 348 345 345 348 343 344 340 341 340 342 341 341 340 338 338 336 334 331 331 330 328 325 328 327 322 316 314 319 326 328 330 331 333 333 337 337 339 336
337 339 342 345 345 346 347 344 342 336 335 338 337 339 341 342 340 339 339 335 334 334 332 332 332 329 327 323 326 328 326 323 317 314 323 326 330 329 332 334 335 332 335
337 338 342 343 342 345 346 343 341 341 340 341 338 340 341 340 340 338 337 336 335 335 333 332 331 329 329 326 326 324 324 324 320 316 314 321 326 328 331 335 336 332 331
336 337 340 340 341 342 344 345 343 341 340 338 338 337 338 340 338 338 336 336 336 335 333 334 332 331 329 329 328 329 326 321 317 317 318 321 320 324 329 332 332 335 333

GFSSE_sfc_thetae_033.txt.gz
Theta_e
341 347 356 354 352 351 348 345 345 344 342 340 339 338 337 337 335 334 334 333 333 333 332 332 332 332 331 330 331 332 334 335 337 342 345 348 350 353 354 355 358 354 359
342 348 354 353 351 350 349 348 347 346 345 343 340 338 337 336 335 335 334 333 333 333 333 332 333 334 334 333 332 332 333 335 336 337 339 342 345 353 354 353 357 356 358
341 345 348 353 352 351 350 349 348 347 346 344 343 340 338 338 336 336 335 335 335 334 334 334 334 335 336 336 336 335 334 334 336 337 337 332 334 345 355 353 354 356 357
340 343 344 352 352 351 350 349 348 347 346 346 343 340 339 338 337 336 336 336 337 336 336 337 337 337 338 338 339 339 338 338 336 336 331 331 329 341 356 354 353 354 355
339 341 342 352 351 351 350 349 348 348 347 346 343 341 340 339 339 340 338 338 339 340 340 341 341 340 340 341 342 342 341 340 340 338 331 327 324 333 351 354 354 353 353
340 339 347 353 352 351 351 350 349 349 348 347 345 344 342 342 342 342 341 341 341 341 342 343 344 344 343 343 346 346 344 342 342 336 333 332 333 343 355 354 353 352 353
341 339 347 352 352 353 352 351 350 350 349 348 348 346 345 346 346 344 342 342 342 344 345 345 344 343 343 343 343 345 344 342 338 336 335 334 332 351 355 352 352 352 350
340 339 346 352 353 352 352 351 350 350 349 349 349 349 348 348 348 347 345 344 344 346 346 343 343 341 341 341 342 344 343 342 338 333 335 335 340 353 353 352 351 350 350
341 341 344 346 349 354 352 351 351 349 349 348 348 348 349 349 348 348 348 347 346 348 345 344 341 339 339 339 341 342 342 342 335 334 335 332 344 351 350 350 351 350 349
337 344 343 344 345 346 347 353 351 350 350 349 348 349 349 349 348 349 348 349 348 347 346 343 340 339 338 338 340 342 342 342 335 334 333 331 344 349 349 349 349 350 349
330 343 344 343 344 343 344 348 351 352 351 350 349 349 347 341 343 344 346 348 348 348 346 343 340 340 338 338 337 339 342 334 334 334 333 338 345 348 346 346 349 349 349
317 340 344 343 343 343 345 344 345 345 344 345 344 343 342 339 336 340 343 349 349 349 347 344 342 340 338 330 329 335 333 333 332 330 330 342 345 346 345 344 347 348 349
319 327 343 343 344 343 342 342 344 344 343 344 342 339 341 339 337 339 334 340 341 345 336 339 336 334 330 328 326 325 331 333 332 331 333 342 345 346 344 344 344 347 347
318 319 335 343 345 343 343 340 343 342 342 342 341 337 338 338 338 336 331 332 333 333 331 330 331 332 329 330 331 330 331 333 330 329 331 342 344 345 344 343 342 345 347
316 319 325 335 344 343 339 340 342 342 341 340 339 339 338 338 336 332 329 330 331 330 332 330 330 332 328 328 329 330 330 330 330 332 331 343 345 343 344 343 342 342 345
319 321 322 334 339 341 339 339 343 343 342 340 339 339 341 340 334 332 332 332 330 330 327 329 328 327 326 327 326 328 330 331 331 332 332 332 342 341 342 342 342 341 343
324 322 323 326 336 339 338 340 342 343 342 340 339 341 342 337 333 333 330 331 331 330 330 329 329 328 327 326 326 327 326 330 329 330 331 336 334 341 342 343 343 342 342
323 322 324 344 340 340 338 340 343 342 339 338 336 340 339 335 333 333 331 330 331 330 328 327 327 326 326 326 323 323 326 329 327 330 330 333 331 332 339 341 343 344 344
322 321 326 335 340 341 341 340 341 340 335 334 332 333 337 336 337 333 332 330 331 330 329 328 326 325 324 324 324 323 324 326 326 331 328 327 329 331 332 339 340 343 344
326 331 331 339 341 342 343 341 340 335 333 332 332 332 334 335 336 333 331 330 331 328 326 326 325 324 323 323 325 325 324 325 326 326 327 329 328 328 330 331 335 337 343
326 330 334 340 340 344 341 339 334 331 330 332 334 332 336 335 336 333 334 330 330 327 326 326 324 322 320 322 321 321 320 323 323 325 326 326 326 326 325 333 333 335 337
327 333 335 338 340 339 340 336 333 330 329 328 330 331 333 334 332 331 330 329 327 327 326 326 325 319 318 320 317 319 314 316 320 324 324 326 323 326 328 332 332 334 334
329 331 332 335 338 338 338 335 332 330 328 327 327 329 331 332 332 330 330 328 328 327 323 322 322 320 317 319 319 314 309 309 313 319 322 325 328 326 326 331 332 332 332
329 331 334 337 337 335 334 332 329 324 323 325 325 328 331 332 334 332 330 328 326 325 323 323 325 322 321 318 319 322 319 317 310 309 317 321 323 324 323 326 329 330 330
330 331 335 335 333 335 331 331 327 324 326 327 328 328 329 329 331 332 330 328 326 325 324 323 323 322 321 318 317 316 317 316 319 312 309 314 318 321 324 326 326 327 330
332 333 334 332 332 332 331 330 325 324 325 324 325 324 324 326 327 329 330 327 326 325 324 323 323 322 323 323 323 322 319 315 313 313 310 312 313 317 321 325 327 326 326

GFSSE_sfc_thetae_036.txt.gz
Theta_e
338 347 357 354 352 350 348 345 345 344 343 341 339 338 338 336 335 335 334 333 333 333 333 332 332 331 330 330 330 330 331 331 333 337 341 344 347 352 353 356 357 353 358
340 348 356 354 352 350 349 347 347 346 345 344 340 338 337 336 336 335 334 334 334 333 332 333 333 333 333 333 332 331 331 332 333 333 335 337 339 345 352 354 354 352 358
339 347 351 353 352 351 350 349 348 346 345 345 343 339 337 337 336 336 335 334 334 335 334 334 334 334 335 335 335 335 334 333 334 334 335 330 332 337 346 351 353 353 357
341 344 345 353 352 352 350 349 348 347 346 345 343 340 338 338 337 337 336 336 336 336 336 337 337 338 337 337 338 338 338 337 337 337 330 329 328 335 339 353 352 354 352
339 343 343 353 352 352 351 349 348 347 346 346 344 342 340 340 340 339 337 337 338 339 339 341 341 341 341 341 341 341 341 340 340 339 332 328 325 332 342 351 353 353 354
338 341 347 352 352 352 351 350 348 348 347 347 345 345 343 341 342 341 339 340 340 341 342 343 343 344 343 343 345 344 343 342 342 335 334 334 333 338 348 356 354 354 353
336 337 345 352 352 352 352 350 349 348 348 348 348 346 346 345 344 342 342 342 341 342 343 345 345 344 343 343 344 344 343 343 338 334 335 334 333 343 352 355 353 354 353
335 334 340 351 352 351 351 350 349 348 348 348 348 348 347 347 347 344 343 342 343 344 346 346 344 344 343 341 342 342 343 343 339 333 333 332 337 346 354 354 353 353 352
337 333 339 343 349 352 350 350 349 348 348 348 348 348 348 348 348 348 347 344 344 345 346 346 344 343 341 340 340 341 342 343 335 333 333 332 338 346 351 352 352 352 352
337 335 338 339 343 344 345 351 350 349 348 348 348 348 348 348 348 348 346 347 346 347 347 346 345 343 341 339 339 340 341 342 335 333 333 332 340 341 348 349 350 351 351
335 335 339 339 338 341 342 346 350 350 350 349 348 348 346 342 341 343 345 346 346 348 348 346 346 343 341 339 338 338 340 334 333 333 333 339 340 342 349 350 349 348 349
330 336 339 339 338 338 341 341 344 343 343 343 341 341 341 339 336 342 344 347 347 349 349 348 346 342 341 331 330 335 330 332 332 332 331 340 340 342 347 348 348 347 349
323 336 340 339 340 339 338 339 343 341 340 340 340 339 340 339 337 338 334 336 340 347 342 343 339 336 332 329 327 325 326 330 331 332 333 338 341 341 346 346 347 348 348
316 330 339 339 339 339 338 338 340 340 339 340 340 339 338 336 333 332 333 332 334 335 334 331 331 330 330 329 327 325 325 329 331 330 329 339 342 343 346 344 344 345 346
314 316 337 339 339 340 338 339 339 339 339 339 339 338 338 336 333 333 333 330 331 330 330 328 327 329 329 329 328 328 329 331 332 329 330 339 343 344 346 343 343 344 345
316 316 325 338 339 340 339 338 339 339 339 338 338 338 337 336 335 335 330 326 328 329 329 331 331 328 328 328 326 325 327 327 328 330 330 329 341 343 343 342 342 343 343
316 318 319 332 339 339 339 337 339 339 339 338 337 337 337 337 336 334 330 329 328 328 327 330 328 326 325 325 324 326 325 325 327 329 329 329 331 341 342 344 342 342 343
316 319 319 327 334 338 338 335 339 340 340 338 337 337 338 338 336 331 329 328 329 328 327 325 325 324 324 324 323 323 323 325 326 326 328 330 331 332 339 342 342 342 342
318 319 317 328 331 334 333 337 339 339 339 335 336 338 339 338 334 331 329 328 328 327 325 325 324 323 321 321 323 323 322 323 325 328 328 328 329 330 329 336 341 342 344
316 318 320 333 333 335 335 335 335 333 331 331 333 336 335 335 335 330 330 328 328 326 325 324 323 322 322 321 324 325 321 323 323 325 325 327 326 329 329 329 333 334 343
324 326 327 333 334 338 336 334 331 328 327 327 330 334 334 332 333 329 329 328 327 326 324 323 323 323 322 321 318 318 320 324 323 323 324 324 325 327 325 328 329 330 336
324 326 331 334 337 337 336 332 330 328 326 327 329 332 334 333 332 331 329 327 327 324 324 323 322 319 319 319 315 317 313 317 319 321 322 323 323 324 324 329 330 330 330
325 329 332 335 335 335 334 332 327 327 326 324 324 325 329 332 331 330 328 327 325 325 322 321 320 318 315 315 317 312 307 310 315 317 320 321 322 321 323 328 329 330 330
326 329 333 335 335 335 333 330 327 323 321 322 324 325 328 330 329 331 328 327 325 324 322 320 322 319 317 315 317 319 315 314 309 307 315 319 321 321 322 325 327 329 329
327 329 333 333 333 331 330 330 325 322 322 322 325 325 326 327 329 330 328 326 324 322 321 321 321 320 319 316 315 314 315 314 315 310 308 313 318 319 321 324 325 330 330
330 333 332 330 329 328 328 326 324 324 322 323 323 323 323 324 326 328 328 325 324 322 322 322 321 320 319 319 318 318 316 311 310 312 308 310 312 316 320 325 325 326 325

GFSSE_sfc_thetae_039.txt.gz
Theta_e
334 344 356 354 351 349 347 345 345 344 343 341 340 339 338 337 336 335 334 334 334 334 333 332 331 331 330 329 329 330 329 330 333 335 339 343 345 348 352 354 355 353 357
336 346 356 354 352 349 349 348 347 346 345 344 340 339 338 337 336 335 334 334 334 333 334 334 333 333 332 332 331 331 331 330 331 333 334 336 338 341 347 352 351 352 355
338 346 351 353 353 351 350 349 348 347 346 345 343 340 338 337 337 336 335 335 334 334 334 334 334 334 334 334 335 334 334 333 333 332 332 328 329 336 340 349 351 352 355
341 346 348 353 352 352 350 349 348 347 346 345 344 340 338 338 337 337 336 335 335 336 336 336 336 336 337 336 336 337 337 338 337 337 330 328 327 334 337 340 352 352 351
340 345 345 353 352 351 351 350 348 347 346 346 343 341 340 339 339 339 338 337 337 338 337 338 340 340 340 340 340 339 340 340 340 338 332 329 327 335 342 343 350 353 352
339 343 347 353 352 352 351 350 349 347 347 347 345 343 341 340 341 340 338 338 338 339 340 340 342 342 342 342 342 342 342 343 342 334 333 334 334 338 343 354 353 353 353
336 339 343 352 352 352 351 350 349 348 347 347 347 345 344 344 343 341 339 340 340 341 342 343 343 344 344 344 344 344 344 343 338 334 333 332 333 341 345 354 353 354 354
334 336 338 351 352 352 352 350 349 348 347 347 347 347 346 345 344 342 341 341 342 342 343 344 345 345 344 342 342 342 342 343 339 334 333 331 334 341 348 354 354 353 352
333 333 335 344 348 353 351 350 349 348 347 347 348 347 347 347 346 345 344 343 342 343 344 345 346 345 344 342 340 340 340 342 336 333 333 330 337 341 345 351 352 354 353
331 330 332 339 342 344 345 351 350 348 348 347 348 348 347 347 348 347 346 346 343 344 345 346 347 346 344 342 339 339 339 340 334 333 333 332 339 341 342 350 349 350 351
334 330 330 335 338 340 341 344 349 349 349 348 348 349 345 341 342 342 345 345 345 345 347 347 347 347 344 340 340 339 338 331 332 332 332 338 341 341 342 348 351 350 350
330 332 334 334 334 336 338 337 342 342 341 342 341 341 341 338 337 341 342 345 345 346 348 349 348 346 342 332 330 336 330 329 331 331 331 340 341 340 342 346 348 350 348
326 332 335 335 335 333 335 336 339 340 339 340 339 337 338 338 337 339 335 337 338 345 340 343 343 339 333 330 328 326 326 326 329 331 334 339 340 340 342 344 347 345 348
315 325 335 337 335 334 333 335 336 338 338 337 338 336 336 335 333 333 333 331 331 335 338 336 333 332 331 331 328 325 324 324 327 329 330 339 339 340 341 343 343 343 344
311 316 329 336 336 336 333 334 335 337 336 335 336 337 336 334 331 331 329 330 331 331 333 330 329 329 328 328 328 327 327 327 329 328 327 337 340 342 343 342 341 341 341
314 313 323 335 336 337 336 334 334 335 336 335 336 337 336 334 331 330 330 329 328 329 330 329 328 326 326 327 326 326 326 326 328 328 328 327 338 341 343 344 343 341 342
315 315 316 333 336 336 336 335 335 336 336 335 335 336 336 334 331 330 329 326 328 327 327 327 329 326 326 324 324 324 324 325 325 326 329 330 329 339 343 343 343 341 342
313 313 314 327 335 335 335 336 335 336 336 335 335 336 336 335 334 330 330 329 328 326 325 325 327 327 324 322 321 322 322 323 324 325 325 327 329 330 339 341 342 341 340
314 314 314 321 331 335 335 334 334 335 336 336 335 335 335 335 335 331 329 328 327 325 324 324 322 322 320 321 323 322 322 321 322 326 325 326 328 330 328 336 340 340 342
314 314 315 317 324 329 329 330 331 333 332 334 335 336 336 336 334 331 331 327 326 324 323 322 322 321 322 323 323 323 322 322 323 322 324 326 324 328 328 330 329 333 342
313 313 315 318 326 330 331 331 329 331 329 328 333 336 335 335 333 331 328 326 326 324 324 322 322 321 322 322 320 318 317 320 321 322 322 323 324 326 327 329 326 329 332
315 317 318 322 330 331 332 328 328 327 325 327 331 334 334 334 334 331 326 325 324 324 322 322 324 321 317 318 314 313 309 314 319 323 321 322 322 325 324 325 327 328 329
316 320 323 328 330 331 330 328 325 325 324 323 324 326 329 332 332 330 327 326 324 323 322 322 323 318 314 314 315 312 309 307 313 319 319 320 321 321 321 323 326 328 328
318 326 329 331 332 332 330 327 327 323 321 320 322 324 327 329 329 329 328 326 324 323 321 320 321 317 315 312 314 317 314 312 308 309 317 317 319 320 320 322 324 327 327
324 326 329 332 331 330 328 328 325 322 321 321 322 323 323 325 327 328 328 327 322 321 320 320 319 317 317 314 313 313 312 312 313 310 308 314 317 317 319 321 324 328 328
325 329 330 331 327 328 327 325 324 322 320 321 321 321 322 323 324 326 326 324 322 321 320 320 319 318 317 316 315 314 313 311 309 309 306 309 315 318 322 323 324 323 325

GFSSE_sfc_thetae_042.txt.gz
Theta_e
333 343 357 355 352 350 348 347 348 347 347 345 343 342 343 343 340 338 337 335 335 334 334 333 332 332 331 331 331 331 330 331 333 335 338 342 345 348 351 351 351 352 355
336 345 356 355 353 351 350 349 349 348 346 345 344 343 342 341 339 337 336 336 335 335 334 334 333 333 333 332 332 332 332 331 331 332 334 337 337 339 346 352 350 352 355
337 346 350 355 353 352 351 350 349 348 347 346 345 344 342 341 338 337 336 336 335 335 335 334 333 333 333 334 334 334 334 334 334 334 332 331 330 334 339 342 351 352 354
340 346 346 354 354 353 352 351 349 348 347 347 346 342 341 341 339 338 337 336 336 336 336 335 335 335 335 335 335 336 336 337 337 337 334 332 330 333 338 340 349 352 353
340 345 345 354 353 353 352 351 349 348 347 347 345 343 341 340 340 339 337 337 337 338 337 338 338 338 338 338 339 339 339 339 339 339 336 335 333 337 342 344 344 353 353
339 344 347 353 352 353 352 351 350 348 347 347 345 344 343 340 341 340 338 338 338 339 339 339 341 341 342 342 342 342 342 342 342 338 337 336 338 338 344 346 352 352 355
337 341 344 353 352 353 353 352 350 349 348 348 347 345 344 344 343 341 339 339 339 340 341 342 342 343 344 343 344 344 344 344 341 339 337 336 336 340 344 347 352 352 351
336 338 340 352 352 352 352 351 350 349 348 348 347 346 346 345 344 342 341 340 341 342 343 343 343 345 345 342 341 342 342 342 340 338 338 336 335 339 343 350 351 352 351
333 334 336 346 349 353 352 351 350 349 348 348 347 347 346 346 345 344 344 343 343 343 343 344 345 346 345 343 341 340 339 339 338 338 337 336 336 339 342 347 350 351 352
329 331 331 339 343 344 346 352 351 349 348 348 348 347 347 347 346 346 344 345 343 344 344 345 346 347 345 345 341 339 339 339 337 336 337 336 340 341 341 343 347 350 351
331 327 328 333 338 340 342 345 350 350 349 348 348 348 345 341 341 341 344 344 345 345 346 346 347 348 346 343 340 340 340 334 334 335 336 338 341 342 341 342 345 349 349
328 330 327 329 335 336 339 339 343 342 342 342 342 342 342 339 338 341 343 344 345 346 347 348 348 347 344 337 336 338 334 333 333 334 335 339 341 342 341 341 346 350 349
329 331 331 328 331 333 334 335 338 341 339 340 339 339 341 338 339 341 338 340 340 344 340 345 345 344 339 335 333 332 331 330 330 332 334 338 339 340 340 342 344 347 347
320 325 331 332 331 331 332 334 335 338 338 337 338 337 338 337 335 337 336 335 336 338 339 339 339 339 337 335 333 331 330 328 328 329 332 336 339 340 340 342 343 345 346
314 316 320 333 334 333 330 332 333 334 336 335 335 336 336 335 333 333 334 333 332 332 336 336 336 335 334 333 332 331 330 329 330 330 331 335 338 340 342 343 342 342 343
314 314 316 327 334 334 331 330 332 332 334 334 334 336 336 334 332 331 331 331 330 331 332 334 333 333 332 331 330 330 330 330 331 333 333 334 336 340 341 340 342 342 342
313 314 314 318 330 333 333 332 331 332 334 333 334 335 336 334 332 330 330 329 329 331 331 332 331 330 329 328 329 329 329 329 329 330 330 334 333 335 339 342 343 342 342
313 313 315 319 330 333 334 335 334 333 333 334 334 335 336 334 332 330 329 328 330 329 329 329 329 329 329 328 326 326 328 328 328 329 329 331 332 333 334 341 343 342 341
312 313 313 315 326 331 333 334 333 333 334 334 334 335 336 335 334 331 330 330 330 329 328 328 327 329 326 325 326 327 325 325 327 327 329 329 330 336 334 336 340 340 341
312 313 313 313 318 328 330 329 330 332 333 334 333 334 335 335 335 332 331 330 330 328 327 326 326 325 326 326 325 326 326 325 327 327 328 329 330 332 334 333 336 337 340
312 313 313 313 317 329 329 328 328 330 332 332 333 335 335 335 335 333 331 330 329 328 328 326 325 325 325 326 323 321 323 325 325 326 326 329 329 330 331 334 334 335 335
311 313 313 314 321 327 329 327 328 327 328 330 333 336 337 336 334 334 332 329 329 326 326 325 326 324 323 324 319 317 315 319 322 325 325 326 328 328 329 331 331 331 335
309 312 315 317 325 327 328 326 324 325 325 326 328 330 333 335 334 334 329 328 327 327 326 326 325 323 319 320 320 318 312 312 316 322 322 322 327 327 329 330 330 331 333
309 317 323 326 328 329 328 326 327 325 324 323 326 327 330 333 332 330 329 328 327 326 325 325 324 324 319 317 319 319 318 317 314 313 318 320 324 326 325 328 330 332 333
310 321 326 328 329 329 327 327 324 322 322 323 324 325 326 328 329 330 329 329 328 326 325 324 322 321 321 318 319 318 317 317 318 316 312 318 321 323 325 327 329 332 332
318 324 327 328 327 327 327 325 325 323 322 322 322 323 324 325 327 328 329 329 327 325 324 323 323 322 321 321 320 319 318 317 315 316 313 314 317 320 324 324 326 327 330

GFSSE_sfc_thetae_045.txt.gz
Theta_e
340 347 358 357 355 354 353 351 350 350 349 349 348 348 349 349 347 343 341 339 337 336 335 335 334 334 334 334 333 332 332 333 334 336 339 343 345 349 352 350 352 352 356
343 348 357 356 355 353 352 352 351 350 349 348 348 347 345 344 342 341 338 337 337 337 336 335 335 335 335 335 335 334 334 333 332 332 333 335 335 340 346 347 350 352 356
343 350 354 356 355 354 352 351 350 349 349 348 347 346 345 344 340 339 338 337 337 337 336 336 336 335 336 336 336 336 336 336 336 336 336 329 332 334 340 342 351 352 355
345 351 348 356 354 354 352 352 350 349 348 348 347 346 344 344 343 339 339 337 337 337 337 336 337 337 336 337 337 337 337 338 338 338 337 332 328 330 340 342 342 351 353
347 348 350 356 355 354 353 352 351 350 349 348 347 346 344 344 343 342 341 338 338 338 337 338 339 339 339 339 339 339 339 339 338 338 339 338 335 331 343 345 346 349 351
345 346 349 355 355 355 353 352 351 350 349 349 348 347 346 344 345 343 342 341 340 340 339 340 341 341 341 341 341 341 341 341 342 342 342 339 337 338 343 345 348 351 352
343 346 346 355 354 354 354 353 351 350 349 349 348 348 347 346 345 344 343 340 341 341 341 341 343 343 344 344 343 343 343 343 344 342 343 343 339 339 343 348 351 355 352
344 347 345 353 354 354 354 353 351 349 349 349 349 348 347 346 346 345 344 342 341 342 343 343 344 344 345 343 341 341 341 341 338 340 342 344 339 338 342 347 349 352 351
344 346 346 348 352 353 353 352 351 350 349 349 348 347 347 347 346 346 345 344 343 345 344 345 345 346 345 343 342 341 339 338 338 338 338 343 338 340 341 344 346 348 351
342 343 343 347 348 347 348 353 352 351 350 349 348 348 347 347 347 346 344 345 344 344 345 346 346 347 346 344 342 339 338 338 338 339 338 341 339 341 340 342 344 347 349
337 339 341 340 347 347 346 348 352 351 350 349 349 349 346 342 342 342 343 345 346 346 346 346 347 348 347 344 342 340 339 341 339 337 337 337 340 341 341 342 343 345 347
338 339 338 340 343 346 342 347 349 347 346 345 344 346 345 343 343 340 342 345 347 347 347 348 348 347 346 343 341 340 339 339 337 337 335 337 340 341 342 341 342 344 347
339 340 340 340 342 343 342 342 346 348 347 348 347 349 348 343 343 342 340 342 343 345 341 344 345 346 345 343 341 340 339 338 337 336 336 336 338 340 340 341 342 344 348
332 337 342 342 340 343 342 341 342 343 345 344 344 349 346 344 342 341 339 339 343 340 341 343 343 346 346 345 343 340 339 338 337 337 337 336 338 340 341 340 341 344 346
328 331 335 343 344 344 344 341 342 342 342 344 343 345 344 340 341 340 340 338 339 341 341 341 342 343 345 345 343 340 339 339 339 338 338 336 338 340 341 342 342 343 344
330 331 334 336 348 345 343 344 342 343 342 342 342 343 345 341 343 340 340 339 340 339 338 338 340 343 346 344 342 340 339 340 339 339 338 338 337 339 340 340 341 343 344
329 333 336 337 338 346 346 345 343 342 341 341 341 343 343 343 342 340 338 338 338 340 339 338 340 343 342 344 341 339 339 340 339 338 338 337 337 337 338 340 341 342 344
330 331 336 328 329 341 345 345 343 341 340 340 341 341 343 343 342 340 338 337 339 338 337 336 335 340 343 343 339 337 338 339 338 335 337 337 336 336 337 339 341 343 344
332 334 333 334 329 338 344 343 344 344 340 341 342 341 342 342 342 341 338 340 339 337 337 336 336 340 341 341 337 337 337 339 337 334 333 337 338 337 337 339 340 342 343
331 334 334 331 333 337 340 343 342 342 342 342 342 342 343 343 342 341 339 340 340 338 336 335 339 339 338 338 335 335 336 336 335 333 334 335 336 338 339 341 342 338 340
331 332 335 332 335 333 336 336 338 337 340 341 342 344 344 344 343 341 340 340 340 338 335 339 339 338 335 331 332 330 332 334 334 333 333 334 335 336 338 340 341 339 338
330 332 335 333 332 334 336 340 341 341 338 338 343 344 345 344 341 342 342 336 334 335 340 339 338 334 334 332 325 324 322 326 330 332 333 331 330 334 335 337 340 340 340
327 331 331 332 333 336 340 340 340 340 339 338 340 341 341 343 343 343 339 336 339 341 338 339 338 335 327 326 328 327 321 319 325 330 331 331 334 333 335 337 338 339 341
325 325 327 334 336 337 340 340 340 338 337 339 340 343 343 344 343 340 338 342 342 340 340 337 334 332 328 325 325 328 328 327 321 318 327 328 329 330 335 338 338 333 338
322 321 328 337 339 339 340 342 340 340 340 341 341 342 344 344 343 338 343 342 341 339 339 339 334 328 329 330 328 326 326 327 329 324 320 322 323 332 336 330 339 339 339
317 322 333 339 340 340 341 342 342 340 339 338 340 340 340 340 340 340 339 340 341 339 338 337 336 334 331 332 329 328 326 323 323 323 324 323 322 323 328 328 333 333 337

GFSSE_sfc_thetae_048.txt.gz
Theta_e
343 350 359 359 358 357 356 354 353 352 354 356 357 357 355 354 350 347 345 342 340 339 337 336 335 335 335 334 334 333 333 333 334 336 339 342 344 349 352 352 352 354 357
344 351 359 358 357 357 356 354 353 352 352 352 353 352 351 350 348 345 342 340 338 337 337 336 336 335 335 336 335 335 334 333 332 331 332 337 337 341 345 349 352 353 355
345 352 356 357 357 357 355 354 352 351 351 351 351 350 349 348 346 344 343 339 339 338 337 337 337 337 337 336 336 335 335 336 336 336 334 328 335 337 342 343 347 349 352
347 353 348 356 355 356 354 353 352 352 351 350 350 349 347 347 346 343 342 340 340 339 338 338 337 337 338 338 337 336 336 337 337 338 336 331 326 334 341 343 343 348 348
350 353 348 356 355 354 354 353 352 351 350 350 349 348 347 347 346 345 344 342 340 339 339 338 339 340 340 340 340 339 338 339 339 339 336 337 334 333 341 343 345 349 346
347 350 353 355 355 354 354 353 351 351 350 350 349 348 347 347 346 345 344 344 341 340 339 340 341 342 341 341 341 341 342 342 343 344 340 338 335 337 341 344 347 348 351
344 347 351 356 355 355 355 354 352 351 350 350 350 349 348 347 347 345 345 343 342 342 341 342 343 343 343 344 344 344 344 344 345 342 343 341 337 337 340 344 350 351 351
344 347 347 356 355 355 355 353 352 351 350 350 349 349 348 348 347 346 345 345 345 344 343 343 344 344 344 345 342 342 342 342 339 339 341 344 340 337 339 344 348 348 350
347 349 349 351 354 355 355 353 352 351 350 349 348 348 348 348 347 346 346 346 346 347 347 346 345 345 345 345 343 341 340 339 337 338 337 341 342 339 339 341 346 346 347
346 346 348 350 348 348 348 355 353 352 351 349 349 349 348 348 348 347 345 346 347 347 347 347 346 346 347 345 344 342 340 340 339 340 340 341 342 340 341 341 342 344 345
341 347 348 346 348 347 343 345 353 352 351 350 350 349 347 342 344 343 342 345 347 347 347 346 347 347 347 346 344 342 341 341 342 340 339 342 340 341 342 341 341 342 344
337 342 346 349 348 348 343 347 351 347 347 345 343 343 344 341 342 340 342 346 347 348 348 348 347 348 347 345 345 342 341 342 339 339 338 340 339 340 342 342 341 342 344
339 341 345 350 350 348 346 344 346 347 346 347 346 349 348 340 341 341 339 342 343 346 342 344 344 346 345 345 343 341 341 340 339 338 339 336 337 339 341 342 342 342 344
335 338 344 350 351 351 347 345 346 344 347 346 347 353 349 344 346 343 339 340 341 340 341 342 341 346 346 345 344 342 341 340 338 339 341 338 338 339 341 341 341 342 344
332 334 337 344 353 352 353 348 349 350 346 348 348 349 347 343 346 343 343 338 339 339 340 341 341 344 344 345 345 343 341 340 341 340 339 341 339 339 341 342 341 342 343
333 335 337 340 351 354 354 356 352 351 349 347 347 347 351 346 349 342 342 339 338 339 338 341 339 342 343 343 344 344 342 341 341 342 339 340 340 340 341 342 342 342 343
333 337 339 342 346 352 354 354 353 349 349 346 346 351 349 350 351 348 341 341 338 341 342 340 340 342 340 344 344 345 343 341 340 341 341 338 340 341 340 340 341 341 342
336 336 339 335 336 345 351 350 348 346 346 346 347 348 349 350 349 347 342 341 340 341 338 337 336 334 335 344 345 346 343 342 340 341 341 340 339 337 339 341 341 342 341
335 337 336 341 339 341 349 344 349 353 347 346 347 347 349 349 349 346 343 342 346 339 337 336 334 335 333 343 342 344 343 340 340 340 341 340 341 339 339 341 342 342 343
332 336 344 343 347 344 340 344 343 345 346 346 346 347 349 349 348 347 345 346 345 339 335 335 336 335 340 343 340 338 340 342 344 342 339 339 337 339 339 339 340 337 344
332 337 344 342 349 342 336 338 340 341 345 345 347 349 349 349 348 347 346 343 344 340 339 339 337 339 341 341 338 338 338 338 339 338 340 339 339 338 337 340 339 342 339
331 336 342 343 346 343 339 343 343 344 344 347 348 350 350 350 349 345 348 345 345 341 341 341 340 338 337 338 333 330 324 333 336 341 341 340 339 340 337 338 339 340 341
327 334 336 342 344 345 344 345 347 348 346 344 346 347 348 348 345 347 348 346 345 343 340 343 344 341 336 337 337 331 322 321 329 333 335 338 338 338 335 340 340 341 343
326 328 333 338 342 343 347 349 351 343 341 343 346 348 344 346 347 348 348 346 345 344 344 344 343 343 340 330 329 333 334 331 323 323 332 335 337 334 335 336 340 340 342
323 325 333 336 339 345 348 350 346 348 346 347 346 348 349 348 347 348 348 347 348 344 345 343 341 341 337 335 331 330 330 330 331 328 322 327 331 331 335 339 336 343 340
321 323 327 332 342 347 347 348 350 349 348 345 347 346 346 345 346 348 348 349 348 345 345 345 343 338 337 335 334 333 328 325 326 326 328 328 325 329 333 335 336 337 343

GFSSE_sfc_thetae_051.txt.gz
Theta_e
341 356 361 361 360 359 357 355 358 360 362 362 361 360 360 358 354 351 348 345 343 342 340 338 336 335 334 332 331 332 332 333 335 337 341 343 347 350 353 353 353 352 355
342 357 360 360 360 359 357 355 356 359 360 361 361 360 358 356 352 349 346 343 341 340 338 337 336 336 336 335 334 333 332 332 331 330 331 339 343 345 347 348 352 352 353
342 355 354 359 359 358 357 355 354 355 357 358 359 358 355 353 350 347 345 341 340 338 338 337 337 336 336 335 335 334 334 335 335 336 333 324 341 345 344 345 351 352 351
346 355 347 358 358 358 357 355 353 353 354 355 355 354 352 351 349 345 343 341 340 339 338 338 337 337 337 337 336 336 336 337 337 339 337 330 326 343 344 344 347 350 350
349 353 352 357 357 358 357 355 353 352 351 352 352 352 350 349 348 347 345 344 341 340 340 339 339 339 340 339 339 339 339 339 341 339 337 334 334 338 343 343 346 349 347
346 350 355 356 356 356 356 355 354 353 352 351 351 351 349 348 348 347 345 345 343 341 341 340 342 343 343 343 343 342 342 343 345 346 342 338 334 338 341 343 346 347 347
343 348 356 356 356 356 355 354 353 353 351 351 351 350 349 348 348 347 346 344 344 342 341 342 343 343 343 344 344 345 344 345 345 343 342 344 340 340 340 344 349 350 351
342 347 355 356 356 355 355 354 353 352 351 350 350 350 349 349 348 347 346 345 346 346 344 343 344 345 345 346 345 343 344 343 338 340 340 342 341 339 338 344 349 347 352
342 344 356 356 354 356 355 354 353 352 350 350 350 349 349 349 348 348 347 347 347 348 348 347 347 346 346 346 344 342 342 341 337 337 338 339 343 340 339 341 346 347 349
341 343 346 356 349 348 349 355 354 352 352 350 350 350 349 349 349 347 346 347 347 348 349 349 349 348 347 346 345 343 342 341 338 338 340 343 344 342 340 340 343 344 346
337 341 346 348 349 347 345 348 353 353 352 351 350 350 348 342 343 342 342 345 348 348 349 349 350 350 348 347 345 344 342 340 342 340 339 345 344 343 341 340 342 342 344
335 338 343 347 349 349 343 348 351 346 347 346 344 345 343 341 342 340 342 345 348 348 349 349 349 349 348 343 345 345 341 341 341 338 340 342 340 339 341 342 342 342 344
336 338 343 354 355 350 346 343 348 349 347 348 349 350 348 341 342 341 341 341 343 346 341 345 345 345 344 344 342 345 342 340 338 337 338 339 336 337 340 342 342 343 344
337 339 343 349 358 360 350 346 346 346 350 348 348 354 348 347 346 345 340 340 345 341 342 343 340 345 345 346 344 342 341 340 338 337 340 342 339 339 339 341 342 342 344
334 337 339 345 362 363 362 350 351 352 348 350 350 355 351 345 347 343 346 341 342 340 341 341 341 345 345 344 343 342 340 341 341 339 338 343 341 341 341 342 343 342 343
335 336 338 340 361 360 359 362 359 359 352 350 349 353 356 351 351 346 347 343 342 341 340 341 342 342 342 344 343 343 342 344 343 344 338 342 343 342 341 343 343 342 343
335 337 344 349 351 364 361 359 359 352 353 349 349 359 360 358 355 353 345 343 343 344 349 346 347 344 339 342 344 345 343 343 343 346 342 341 342 344 342 343 343 343 343
336 342 346 338 342 360 360 358 354 350 350 348 350 352 358 360 358 355 345 346 347 345 343 340 338 336 338 337 340 343 344 344 342 341 342 340 340 339 341 343 343 342 342
337 342 342 347 339 349 358 350 352 357 348 346 347 348 357 355 353 352 346 347 353 343 342 341 338 338 336 335 336 344 345 344 342 339 339 339 342 339 338 341 343 342 343
338 345 349 345 351 356 348 354 343 341 344 347 347 348 356 352 352 352 347 351 350 343 341 339 343 338 335 334 339 341 345 345 342 339 341 342 340 339 340 339 339 337 342
339 343 346 344 353 348 340 337 336 339 343 345 348 353 351 352 351 354 347 350 350 346 347 349 341 340 333 342 339 340 336 340 342 341 345 344 340 338 339 338 338 340 337
338 341 345 347 352 353 343 346 342 346 343 347 348 353 352 351 353 350 352 350 349 345 348 345 345 335 335 341 334 330 325 335 335 341 338 341 340 340 340 339 340 342 338
334 339 340 347 352 355 352 348 351 350 351 346 348 349 351 351 351 350 350 350 350 349 342 346 343 344 337 338 339 332 324 320 331 337 338 338 339 340 340 338 339 339 336
331 332 339 344 350 352 358 347 354 345 343 345 348 349 350 352 350 348 349 350 351 347 348 345 346 344 341 334 336 335 335 332 326 325 335 338 339 339 336 338 339 341 341
327 331 336 343 348 351 354 352 346 350 346 347 347 353 351 348 349 347 349 350 348 346 351 350 348 344 340 339 333 331 332 333 332 326 325 329 334 338 334 339 338 343 342
323 325 333 339 345 350 352 352 358 356 355 347 350 346 344 346 347 347 349 349 352 351 347 344 345 344 344 341 338 333 332 329 327 327 328 329 330 333 333 335 337 342 344

GFSSE_sfc_thetae_054.txt.gz
Theta_e
345 352 361 361 360 358 357 359 361 363 363 362 362 360 360 359 356 353 349 347 347 344 341 338 337 335 335 334 333 334 334 334 334 337 341 345 350 352 353 354 353 352 352
348 353 360 360 359 358 357 359 361 362 362 362 362 361 359 357 355 352 348 345 344 340 338 335 335 335 336 336 335 335 334 333 332 331 331 338 346 349 350 351 354 352 353
346 350 355 359 359 358 356 357 359 360 361 362 362 360 358 356 353 350 348 345 341 339 337 337 336 336 336 335 335 335 334 334 335 336 337 326 343 348 349 350 353 353 352
349 349 352 359 359 358 356 355 356 358 359 360 360 358 356 355 352 348 346 343 340 339 338 337 337 336 336 336 335 335 335 336 338 339 333 334 336 348 349 348 350 351 351
350 347 353 359 358 357 356 355 354 355 356 357 358 356 354 353 351 349 347 345 341 340 339 338 338 338 338 338 338 338 338 341 343 342 337 333 333 343 346 345 346 349 349
349 345 356 358 358 357 356 355 353 353 353 354 355 354 353 351 350 348 347 346 345 342 341 340 340 341 341 341 341 342 342 344 345 341 344 335 335 344 343 344 347 347 348
347 346 354 356 357 357 357 356 354 353 352 352 352 352 351 350 349 348 347 347 345 344 343 341 344 344 344 344 344 345 345 345 342 338 339 338 335 343 342 344 347 350 349
344 350 355 356 356 356 356 355 353 353 352 352 352 352 351 350 349 348 347 347 347 347 346 346 346 347 347 347 347 345 345 344 338 335 338 339 342 343 341 345 349 350 351
344 354 354 353 354 356 355 354 353 352 352 351 350 350 350 350 349 348 347 347 347 347 347 347 348 348 348 347 346 345 342 342 337 334 335 339 346 344 342 345 346 350 352
342 354 355 353 349 349 351 355 353 352 351 350 350 350 349 350 349 348 346 347 348 348 348 348 348 348 348 348 348 347 344 343 338 335 335 340 346 343 342 343 345 346 350
338 348 355 352 349 346 345 350 354 353 352 351 351 351 348 344 344 343 345 344 348 348 349 349 349 349 349 349 349 348 345 338 336 338 341 348 348 345 342 342 344 344 348
334 338 347 352 349 345 341 346 349 349 349 348 346 345 346 342 340 340 342 345 347 348 349 349 349 350 348 343 344 346 342 339 337 338 342 349 347 343 343 342 343 343 346
334 336 342 352 351 347 344 346 349 346 345 345 344 343 344 341 339 339 338 340 341 346 342 344 345 345 342 341 340 342 341 340 338 336 342 346 344 340 340 342 343 343 346
334 337 346 353 355 353 350 346 351 349 347 344 344 344 342 341 339 338 337 339 337 338 339 337 338 340 341 342 342 343 342 341 337 338 341 344 342 340 340 341 343 343 346
330 332 341 354 357 360 361 358 351 349 350 348 347 346 343 342 340 340 340 338 339 338 339 336 338 338 340 341 342 343 340 341 339 338 339 345 343 344 341 341 342 343 344
349 352 347 355 360 361 358 359 362 360 352 353 351 350 347 343 344 341 340 343 340 339 339 338 336 338 339 341 342 342 343 342 342 340 341 340 344 344 344 343 343 343 343
346 359 348 354 365 363 361 361 358 356 354 350 352 357 350 348 344 345 343 338 343 343 342 342 339 340 343 342 341 344 342 339 341 342 341 339 340 344 345 345 344 344 343
344 345 349 338 355 363 361 359 357 354 353 354 353 355 358 351 350 348 346 345 342 345 341 342 342 340 339 338 340 340 342 343 342 342 340 340 338 337 343 344 345 344 344
344 347 347 351 351 360 362 359 359 357 358 355 352 354 358 356 351 351 347 346 350 344 343 342 338 341 337 338 337 337 342 341 339 341 339 339 338 338 337 341 342 343 343
344 346 350 349 355 359 358 358 352 350 348 349 349 352 356 354 353 350 350 347 352 345 342 342 341 340 337 336 333 335 340 339 340 339 338 338 337 338 338 337 336 335 341
344 341 343 346 349 352 346 345 342 341 341 344 347 354 356 354 352 352 348 350 348 344 343 346 343 340 336 336 336 335 335 338 337 338 338 336 337 338 337 337 335 335 335
343 345 347 346 347 349 347 347 347 346 342 344 351 354 355 354 353 351 348 347 347 345 346 345 342 336 334 338 333 332 325 330 335 336 336 337 335 335 336 337 335 335 335
337 340 342 346 347 349 348 348 350 350 352 352 354 354 354 353 353 351 348 348 347 346 343 344 341 338 332 335 337 330 322 319 324 332 334 334 334 333 334 334 334 333 334
337 340 344 345 344 346 349 347 345 340 338 344 351 350 352 353 351 349 348 348 348 345 344 342 342 338 339 333 335 335 334 329 321 320 329 331 333 332 332 332 330 333 330
327 331 333 341 343 345 345 347 343 346 346 354 352 354 351 351 350 348 348 349 347 346 347 343 343 342 340 335 333 331 331 330 329 323 319 324 330 331 331 331 332 332 327
325 326 329 335 338 343 347 349 348 348 345 347 348 350 347 347 347 347 347 346 349 347 346 345 345 343 339 338 336 332 329 326 324 324 321 322 323 327 329 330 330 331 331

GFSSE_sfc_thetae_057.txt.gz
Theta_e
343 355 361 359 359 361 362 362 363 363 362 362 361 359 358 357 355 352 349 348 349 345 342 340 338 336 334 333 333 334 334 333 333 334 340 347 352 353 355 354 354 352 355
344 355 360 359 358 360 361 362 363 363 361 361 361 359 357 356 353 351 348 346 346 342 339 337 337 336 336 336 336 336 336 334 332 330 328 336 347 350 351 353 353 350 352
346 353 356 359 358 358 360 361 361 361 361 361 361 360 357 356 352 349 348 345 343 340 338 337 337 337 336 336 336 336 336 335 335 336 334 326 342 348 350 352 352 351 352
346 350 351 358 358 357 358 360 360 361 361 361 360 359 356 355 352 348 345 343 341 339 339 338 337 338 337 336 336 335 335 336 339 340 334 333 333 348 349 352 352 351 352
344 347 352 358 357 356 356 358 359 359 360 360 360 358 356 354 352 350 347 345 341 340 339 339 338 338 338 339 338 337 338 341 344 344 338 332 336 347 348 349 351 350 350
340 346 356 357 357 356 355 355 357 358 359 359 358 357 355 353 352 350 347 347 344 342 341 341 340 341 341 341 341 341 342 344 345 340 338 339 335 348 346 348 350 350 350
338 347 354 357 357 357 355 354 354 355 356 357 357 356 355 353 352 349 348 346 345 344 343 342 343 345 346 345 345 346 345 346 342 338 337 334 337 346 345 346 348 351 349
338 348 351 357 356 355 355 353 352 352 352 354 354 354 354 352 351 349 348 347 348 348 347 346 347 347 347 347 348 347 345 345 339 333 332 333 341 346 342 347 350 353 350
345 347 347 351 354 356 355 353 352 351 351 351 351 351 351 351 350 349 348 348 348 348 348 347 347 348 348 348 348 347 344 343 336 334 333 334 346 346 342 348 349 350 351
347 347 345 346 350 349 350 354 353 352 351 350 351 351 351 350 350 349 347 347 348 348 348 348 348 348 348 348 348 348 345 344 336 335 332 336 346 345 343 347 348 352 352
347 346 346 344 345 345 346 350 352 352 352 351 350 351 348 342 343 343 345 345 348 348 349 349 348 348 349 349 348 348 346 337 336 334 336 347 347 345 343 346 347 349 353
344 346 346 345 342 340 344 344 344 345 345 345 343 342 342 338 336 342 343 348 347 348 349 349 349 349 348 341 341 346 341 338 336 333 339 349 349 346 344 344 346 347 349
343 347 347 345 342 339 338 341 344 343 343 343 341 339 340 339 336 339 336 339 337 344 340 344 344 344 341 340 338 338 340 338 336 334 341 350 350 347 345 343 344 345 348
334 342 347 345 341 337 337 341 342 340 340 340 341 338 338 337 334 333 333 333 333 337 336 334 338 338 338 338 338 336 338 337 337 334 344 349 347 346 343 343 344 344 346
328 336 337 344 341 339 337 342 342 341 340 339 339 339 338 337 334 333 331 332 332 333 336 333 332 335 336 337 337 338 338 339 338 335 339 347 344 344 343 342 343 344 345
327 328 334 334 347 344 342 342 343 343 343 341 340 340 339 337 336 333 332 332 332 332 334 334 331 332 334 335 335 337 338 339 336 335 336 340 343 344 345 343 342 343 344
330 330 333 332 331 348 344 344 346 348 343 344 343 343 341 338 337 336 335 332 332 333 332 334 332 331 333 334 336 337 338 338 337 338 337 336 340 345 346 345 345 344 343
330 331 335 339 345 349 349 348 346 345 346 344 342 345 344 341 338 339 336 335 333 334 334 333 333 331 331 334 334 333 335 338 337 338 335 336 334 336 343 345 345 344 343
329 330 329 339 352 352 350 349 347 346 344 344 344 344 348 344 342 338 340 337 334 335 334 333 332 332 330 329 330 330 335 335 336 338 335 335 334 334 335 342 343 342 344
328 330 331 333 347 351 351 348 347 346 346 345 346 344 344 347 345 341 340 339 340 335 335 332 330 330 329 330 330 328 333 332 333 333 333 336 333 336 334 333 335 336 342
331 332 333 332 338 338 331 336 336 336 336 337 338 340 343 349 347 345 341 340 338 337 334 334 332 329 328 328 326 327 328 331 331 332 333 332 331 333 333 332 334 331 334
326 327 330 330 332 333 333 331 331 331 332 332 333 338 343 346 347 344 341 339 339 337 335 335 333 328 328 327 323 323 318 322 327 331 331 331 330 332 332 333 334 332 332
326 327 328 329 331 333 332 334 334 332 332 334 337 338 343 346 346 346 342 339 339 337 335 334 333 328 324 324 329 323 318 313 316 324 327 328 329 328 328 329 332 335 331
326 328 328 330 331 332 332 331 332 332 330 329 336 341 342 345 345 344 343 340 340 339 335 335 335 330 330 325 328 329 325 322 315 313 322 324 327 328 326 327 326 331 331
321 325 330 331 331 331 334 334 334 331 331 332 336 339 341 341 343 344 341 340 341 340 337 335 334 332 330 328 326 325 323 322 321 316 312 318 323 325 326 326 326 328 328
316 317 320 328 330 331 332 335 333 332 333 334 337 339 339 339 340 341 341 340 342 341 338 336 335 333 331 329 327 325 321 319 317 317 314 314 316 320 323 325 325 326 325

GFSSE_sfc_thetae_060.txt.gz
Theta_e
343 351 360 362 364 363 364 363 362 362 361 360 358 357 356 356 354 351 349 349 349 345 343 341 338 336 335 334 333 333 332 332 332 336 344 350 352 352 354 354 353 351 353
344 352 359 360 363 363 363 363 362 361 361 360 359 357 355 354 352 350 348 346 346 342 341 338 337 336 336 335 335 334 333 332 332 330 328 340 349 349 351 353 354 350 353
345 352 355 359 361 363 362 362 361 360 360 361 360 357 355 354 352 349 348 346 343 341 339 338 338 338 337 336 335 335 334 335 335 335 333 324 341 349 351 353 352 351 353
348 351 351 357 360 361 361 361 360 360 360 360 360 357 355 353 351 348 346 344 341 340 340 339 338 338 338 337 336 336 335 336 339 340 333 331 336 349 351 352 351 351 351
346 349 350 357 358 360 361 360 360 360 360 360 360 357 356 353 352 350 347 345 341 340 340 340 339 339 339 339 338 337 338 340 344 343 338 332 327 347 350 352 351 350 350
344 345 353 356 356 359 360 360 360 360 360 360 360 358 356 354 352 350 347 346 344 342 341 341 340 340 340 341 341 341 341 343 345 339 336 337 336 349 349 352 350 350 350
339 342 352 356 355 357 359 359 359 359 359 360 360 358 356 355 352 349 347 345 344 343 343 342 342 344 344 343 343 344 343 345 342 338 334 334 335 349 348 350 351 350 350
337 344 350 355 354 354 355 357 357 358 358 359 359 357 356 355 352 350 348 347 347 347 347 346 346 346 347 347 347 347 346 346 341 333 332 331 339 349 346 346 349 351 349
340 345 348 350 352 354 352 353 355 355 355 356 356 355 355 354 352 350 349 348 348 348 348 348 347 348 348 347 347 348 346 344 336 333 334 331 345 348 344 346 349 351 350
342 342 346 348 348 347 347 353 352 352 352 353 353 353 353 352 351 350 347 348 348 349 348 348 348 348 348 348 348 348 345 345 337 335 333 333 346 345 343 346 349 352 351
341 339 342 345 345 346 346 348 351 352 351 351 350 351 348 343 344 344 346 345 348 348 349 349 348 348 348 348 348 346 346 338 336 334 332 340 347 345 345 347 349 352 352
339 341 339 343 344 343 346 345 344 344 344 343 342 342 341 337 338 342 344 347 347 348 348 349 349 348 346 340 340 345 340 338 337 335 333 345 348 346 345 346 347 349 351
341 342 341 338 340 340 340 343 342 341 341 340 339 338 338 338 337 339 335 340 338 344 338 343 343 343 339 338 338 336 338 338 337 335 335 349 349 348 346 345 345 346 349
340 342 342 339 337 336 336 340 340 339 339 340 339 337 337 335 333 332 333 333 333 334 334 334 336 338 338 339 338 336 334 336 336 334 335 347 349 349 347 345 344 345 346
335 341 343 340 337 334 333 336 337 336 336 336 337 337 336 335 332 332 330 330 333 330 334 332 334 335 337 338 338 336 335 335 337 335 338 349 347 347 347 345 344 344 345
330 341 342 340 338 334 333 335 337 337 336 334 336 336 336 335 333 331 330 329 330 331 333 333 331 332 333 335 334 335 335 336 337 337 338 342 347 346 347 346 345 344 344
330 335 341 341 340 336 335 338 339 339 339 337 336 337 337 335 334 332 330 329 329 330 330 332 329 328 329 332 332 333 333 336 338 336 335 338 341 344 345 347 346 344 344
327 331 334 342 338 340 338 339 340 341 340 340 339 339 339 337 335 334 332 330 331 331 330 331 330 326 327 329 330 332 333 334 337 338 337 336 336 336 343 345 344 347 346
326 329 333 333 334 341 343 341 341 342 341 341 341 341 341 340 338 335 335 333 330 331 331 330 330 328 325 327 330 331 330 332 334 338 336 334 333 334 334 340 343 343 344
325 326 332 334 337 338 341 345 343 342 341 339 342 342 342 342 340 336 337 334 334 330 331 330 328 329 327 328 331 330 329 333 331 331 333 335 332 333 332 333 333 335 342
323 325 325 326 337 343 343 340 340 341 341 342 342 341 341 344 342 338 336 336 336 333 332 332 329 327 326 327 323 323 325 329 329 329 329 329 330 332 332 332 330 332 334
320 326 327 329 340 345 344 343 338 341 336 340 342 340 340 343 344 341 338 337 337 336 332 331 330 326 326 325 321 321 321 320 323 327 328 329 327 329 331 331 331 331 331
318 326 329 330 339 344 342 338 328 329 328 329 330 330 333 340 345 343 341 339 338 337 334 331 331 328 324 324 327 325 319 317 314 320 324 325 326 326 327 328 330 331 331
318 324 328 329 335 337 334 332 329 325 322 325 324 332 334 341 344 343 341 339 337 336 333 333 333 327 325 325 329 329 324 320 316 312 319 322 324 325 325 324 326 330 330
315 321 324 325 326 329 329 328 327 322 324 325 329 333 335 338 342 343 341 338 337 336 334 334 330 329 332 328 327 322 321 321 321 314 310 315 320 322 324 324 323 326 328
315 322 325 325 326 326 327 326 324 324 325 327 328 331 334 335 338 340 340 339 338 336 336 336 332 329 328 327 325 323 324 319 316 315 312 313 313 318 320 322 323 324 323

GFSSE_sfc_thetae_063.txt.gz
Theta_e
338 348 363 364 363 363 362 362 361 360 360 359 358 357 357 357 356 355 354 352 351 348 345 342 340 337 336 335 334 333 333 333 336 342 349 351 351 352 354 354 352 350 351
340 351 362 363 363 363 362 362 360 360 359 359 358 357 356 356 354 353 351 348 346 344 342 340 337 336 335 334 334 334 333 332 331 329 334 345 349 349 350 353 353 349 352
338 350 357 362 363 362 362 361 360 359 359 359 358 357 355 355 352 350 349 347 344 342 340 339 338 338 337 337 336 336 335 335 335 334 332 323 340 348 350 352 353 351 351
341 348 352 361 362 362 361 360 359 359 359 359 358 356 354 354 352 348 347 345 343 341 340 340 339 338 337 337 336 336 336 338 339 340 331 330 333 347 350 351 351 350 350
341 346 350 360 361 361 361 360 359 359 359 359 358 357 355 353 352 349 348 347 342 341 341 340 340 338 338 338 337 336 338 340 343 341 337 333 327 346 350 350 351 350 349
341 344 354 358 359 361 361 360 359 359 359 359 359 357 355 354 352 350 348 347 345 342 342 341 340 340 339 339 339 339 340 342 344 337 335 335 328 346 349 351 350 350 350
340 341 350 356 358 360 361 360 359 359 359 359 359 357 355 354 352 349 348 346 345 343 342 342 342 343 343 342 341 342 343 345 341 335 331 331 333 349 349 351 350 350 349
338 341 346 355 356 357 359 359 358 358 358 359 358 358 357 355 352 350 348 347 347 347 346 344 345 345 345 345 344 344 345 345 340 333 331 330 337 347 348 350 351 350 350
336 341 344 347 352 357 357 358 358 357 357 357 357 357 356 355 353 351 349 348 348 348 348 348 347 347 346 345 345 346 346 346 335 333 335 331 339 346 346 347 347 350 350
335 339 341 344 346 346 350 357 357 357 357 357 357 356 355 355 353 352 348 348 348 348 349 348 348 347 347 347 347 346 346 345 336 335 334 331 339 345 346 346 348 351 350
336 336 341 343 343 342 342 350 355 357 357 356 356 355 352 348 346 345 346 346 348 348 349 349 348 348 348 347 346 345 345 337 336 335 332 337 342 344 345 347 348 349 351
330 334 339 341 342 340 343 341 343 344 347 347 347 347 343 338 337 341 344 346 347 348 348 348 348 348 345 339 339 344 338 337 337 336 334 340 344 345 346 348 347 347 350
332 335 338 341 341 340 339 340 342 338 338 338 337 337 337 336 336 339 336 338 337 345 338 342 341 341 337 336 336 335 335 335 335 336 337 342 347 347 347 346 346 347 349
332 334 336 339 339 339 337 340 339 338 337 337 336 335 335 333 332 332 334 333 333 333 332 333 334 335 336 336 336 335 335 334 334 335 335 343 347 348 348 350 346 346 347
333 335 336 335 336 337 334 337 336 336 336 336 335 335 335 333 331 330 331 331 331 329 330 330 330 333 334 335 337 336 335 333 333 334 333 342 346 348 349 350 346 345 345
332 338 339 337 334 333 332 333 333 334 333 333 335 335 335 332 330 330 327 329 329 329 330 331 330 330 331 333 334 335 334 333 333 335 335 337 346 347 347 347 347 345 345
325 338 341 339 336 331 329 330 331 332 332 332 332 333 334 332 329 328 327 326 328 329 328 329 328 327 327 330 331 331 332 332 334 335 336 338 341 347 345 345 346 345 345
325 333 341 343 338 334 332 332 333 334 334 334 333 333 334 334 332 329 327 327 327 327 329 329 327 325 326 326 328 329 329 330 333 336 337 337 337 337 341 345 344 344 346
323 327 333 339 338 336 334 334 335 337 337 337 337 336 336 336 335 332 331 329 327 328 328 328 326 326 323 324 327 327 328 329 331 335 336 335 336 336 333 339 343 342 344
321 324 328 335 338 338 337 338 337 339 339 338 339 339 339 338 337 333 333 331 329 328 327 327 326 326 324 325 328 328 327 328 333 331 332 333 331 332 331 331 331 335 342
320 320 324 327 329 334 338 337 337 337 339 340 341 341 340 340 339 334 334 332 331 328 329 329 327 325 324 325 323 321 323 327 328 329 328 328 329 331 330 330 329 330 332
314 320 323 326 329 332 334 339 336 339 338 341 341 339 339 340 340 337 335 334 333 331 328 329 328 324 326 327 324 322 316 319 322 326 327 326 326 328 329 330 329 330 329
309 313 321 323 325 329 337 334 328 331 329 331 331 333 336 338 341 340 337 335 334 334 331 330 329 327 325 326 327 325 319 316 317 318 322 324 325 324 325 327 329 330 329
304 307 317 323 324 327 337 337 333 333 333 330 331 331 332 334 337 341 339 336 336 336 332 332 331 328 328 326 327 329 326 323 315 312 317 319 322 323 322 323 326 327 328
304 306 310 322 326 329 337 338 336 324 328 323 326 327 328 331 337 341 340 338 337 336 334 333 329 327 329 328 328 324 324 322 318 318 311 314 319 320 322 322 323 323 326
308 303 310 317 324 327 332 334 332 331 325 323 325 327 328 332 336 339 339 338 337 336 334 333 331 329 327 326 328 327 325 320 316 314 311 311 313 316 318 321 321 321 322

GFSSE_sfc_thetae_066.txt.gz
Theta_e
334 353 360 362 362 362 361 361 359 358 358 360 361 361 361 361 360 360 357 356 355 353 350 347 343 340 338 337 336 335 336 338 343 349 351 352 352 354 354 353 352 350 351
337 355 362 363 363 362 361 361 359 358 357 357 358 359 358 358 358 357 356 353 350 347 344 341 339 337 336 334 333 333 332 331 331 334 343 348 349 350 353 352 351 350 350
336 353 360 362 363 362 361 360 359 358 358 358 357 357 356 356 355 353 353 350 346 344 342 340 338 338 338 337 337 336 336 335 335 334 333 330 344 348 350 353 352 350 349
338 352 357 362 362 362 361 359 358 358 358 357 357 356 356 355 354 351 350 348 345 343 341 341 340 340 338 338 337 337 338 339 341 342 335 333 333 347 350 352 352 350 350
340 350 355 361 361 361 360 359 358 359 358 358 357 357 356 355 353 350 349 349 345 343 343 342 341 340 339 339 339 339 341 343 345 341 339 337 336 342 349 350 351 350 349
339 347 354 360 361 361 361 359 359 359 359 358 358 357 356 354 352 350 350 349 347 344 343 343 342 341 341 341 341 341 342 344 344 340 338 335 337 340 348 350 350 350 350
338 343 351 360 360 361 361 360 359 359 359 358 358 358 357 355 353 350 349 349 348 347 344 343 342 344 344 343 342 342 343 344 342 337 335 335 335 344 348 350 350 350 349
337 340 350 358 359 359 360 359 358 358 358 359 358 358 357 355 353 350 349 348 348 348 347 345 345 345 345 345 343 344 344 344 340 336 335 335 336 344 347 351 351 350 349
336 339 345 351 356 359 358 358 358 357 357 358 357 356 356 355 353 352 349 348 348 348 348 347 347 346 346 345 344 344 344 344 339 338 337 337 337 342 346 349 348 350 350
333 338 340 343 349 352 354 358 358 357 357 357 357 356 356 355 354 352 349 348 348 349 349 348 348 347 347 347 346 345 345 344 340 338 338 336 340 342 345 349 346 349 349
334 335 337 339 340 343 347 353 357 358 358 357 357 356 353 351 351 349 348 347 348 348 349 349 349 348 348 346 345 344 344 341 340 339 338 338 340 343 345 349 348 347 348
329 334 337 338 339 339 345 345 349 350 353 353 353 351 350 345 344 345 347 347 348 348 348 349 349 348 345 342 342 344 342 340 340 340 339 342 342 344 346 349 347 348 348
327 334 338 338 338 339 338 338 341 342 341 342 342 343 342 339 340 343 339 342 340 345 340 346 346 344 340 339 339 339 339 339 338 339 340 343 344 344 348 349 350 348 348
327 332 335 340 339 338 337 337 339 340 339 338 338 337 336 333 333 335 335 335 336 337 337 336 338 340 340 338 338 338 337 337 337 338 339 343 345 346 348 349 347 349 347
329 331 333 337 336 336 334 337 337 337 337 337 336 336 335 333 331 331 333 333 333 334 333 333 334 336 337 338 338 338 337 337 337 337 337 341 345 347 347 348 350 348 346
331 331 334 333 335 335 335 333 335 335 334 335 335 334 335 334 331 330 330 331 331 332 332 332 332 333 334 336 336 338 338 338 337 336 337 338 343 346 348 349 348 347 346
325 334 336 334 334 332 332 331 332 334 333 332 333 334 335 333 331 330 329 329 331 331 331 332 331 331 332 333 334 335 336 336 336 336 339 340 341 345 347 349 347 346 345
323 327 339 340 336 332 331 331 331 331 330 331 330 331 335 334 332 330 329 327 329 329 330 330 330 329 329 329 330 332 333 333 334 336 338 341 340 342 344 347 347 345 344
316 321 332 339 338 335 332 330 330 331 331 331 332 332 334 334 334 331 329 328 328 328 329 329 329 330 327 327 328 330 331 333 334 336 337 340 341 342 341 340 343 343 343
313 316 323 336 339 337 336 333 331 331 333 334 335 335 334 335 335 333 332 330 329 328 328 328 329 329 329 328 328 330 331 333 334 334 337 338 339 339 339 338 338 338 342
311 312 315 325 334 336 334 331 332 332 335 336 337 338 338 338 338 334 333 332 331 329 329 329 329 328 327 328 327 327 329 330 331 334 335 335 336 337 336 336 336 337 337
305 308 313 316 324 332 336 337 336 336 336 337 339 340 340 339 339 336 335 334 332 330 329 329 329 327 328 328 327 327 324 327 328 330 332 333 333 334 334 335 335 335 336
303 305 309 313 316 324 332 333 332 332 332 334 335 339 340 341 341 339 337 336 333 333 329 330 330 328 326 328 331 328 321 320 322 325 328 330 331 331 332 333 334 335 335
303 304 304 310 314 317 326 331 332 335 333 334 337 338 338 340 340 341 338 336 336 335 333 331 331 331 331 328 328 331 329 327 322 322 324 326 328 329 330 331 332 333 334
307 306 304 305 312 318 321 330 333 333 334 332 328 333 334 336 337 340 340 338 336 336 336 334 332 331 333 330 329 328 327 325 325 321 320 323 325 327 329 330 331 331 332
306 308 308 305 308 315 322 327 330 332 332 326 326 328 330 331 334 337 339 339 338 337 336 335 334 333 332 333 331 330 328 326 323 321 320 319 321 324 326 328 329 329 330

GFSSE_sfc_thetae_069.txt.gz
Theta_e
339 356 364 363 362 361 361 363 363 364 363 364 364 363 362 362 363 361 360 358 357 355 353 351 348 344 342 340 338 338 341 344 348 352 352 353 353 353 353 353 351 349 349
341 358 360 362 362 361 360 360 361 362 362 363 363 363 362 362 361 360 358 356 354 352 348 345 342 340 338 336 334 334 333 334 335 340 346 350 350 352 352 351 350 351 350
345 358 360 361 362 361 360 359 358 359 360 361 362 362 361 361 360 358 357 354 351 347 344 341 339 339 338 338 337 337 336 336 335 335 335 344 344 349 350 352 351 350 350
349 361 360 361 361 362 360 358 357 357 358 359 360 360 359 358 357 356 353 350 347 345 342 341 341 341 340 339 338 339 339 341 344 341 336 339 341 347 349 351 351 349 349
349 356 360 361 361 361 360 359 357 357 357 357 357 357 357 356 355 353 352 350 348 344 343 342 342 341 340 340 340 341 342 345 347 343 343 344 343 343 349 350 351 350 348
345 353 360 360 361 361 361 359 358 358 358 357 357 357 356 356 354 352 351 350 349 346 344 344 343 342 342 341 342 343 344 345 344 344 345 342 343 341 347 350 350 350 349
343 350 358 360 361 361 361 360 359 358 357 357 357 357 357 355 353 351 351 350 349 349 347 344 344 346 345 343 343 344 344 345 342 343 343 343 343 339 347 348 350 350 350
344 349 355 360 360 360 360 359 358 357 357 357 357 357 356 355 353 351 351 351 350 350 349 348 347 347 347 345 344 344 345 344 341 341 340 344 338 339 347 347 350 349 350
344 347 354 357 360 360 360 358 358 358 357 357 356 356 356 355 353 351 350 350 350 350 349 348 348 347 347 345 344 345 344 345 340 341 338 340 338 340 346 347 347 349 349
341 343 350 354 354 356 357 359 358 358 358 358 357 356 356 355 353 352 349 349 350 350 350 349 348 348 347 347 346 345 345 345 342 341 341 342 339 341 345 347 347 346 347
336 342 346 349 352 353 353 356 358 358 358 358 358 357 355 353 353 351 348 348 350 350 350 350 349 348 347 345 345 345 344 342 342 341 342 339 341 342 345 346 348 347 347
332 338 343 348 350 352 350 355 356 355 356 356 356 357 355 353 353 349 350 348 350 350 350 350 350 349 345 340 342 344 341 342 342 341 342 341 343 344 346 347 350 348 347
333 336 341 347 350 349 346 350 352 353 354 355 356 357 356 353 352 350 348 348 347 347 341 344 344 342 340 341 339 340 340 342 340 340 341 343 344 345 346 349 349 349 347
332 334 340 344 347 348 346 346 348 349 352 351 352 355 353 350 349 348 345 344 346 342 342 342 340 341 342 341 340 339 340 339 338 339 341 342 345 347 348 348 349 350 348
334 335 338 342 346 346 347 343 345 348 347 348 349 351 350 347 346 345 344 342 340 340 339 340 340 341 340 341 340 339 337 338 339 339 339 341 343 345 347 349 349 349 348
332 337 338 342 346 345 345 346 344 345 344 344 345 346 348 346 345 341 341 340 339 339 338 339 338 339 339 338 338 339 339 339 340 340 337 339 342 344 345 348 349 348 348
329 333 340 342 343 344 342 345 343 342 341 340 340 343 344 344 343 341 338 338 338 340 341 340 340 339 337 338 338 339 340 342 341 342 341 339 342 343 345 347 348 348 347
325 330 335 341 341 344 341 340 340 341 340 339 339 340 341 342 342 340 337 337 338 339 338 337 337 336 336 337 337 339 340 342 342 343 342 343 344 346 346 346 348 347 348
321 326 328 338 345 343 342 340 340 341 340 339 339 339 341 341 340 341 341 337 339 336 336 337 337 337 336 337 337 338 340 340 343 341 343 345 347 347 347 347 344 345 346
320 323 324 333 344 350 345 341 338 337 337 339 339 339 340 340 340 341 339 337 337 335 335 337 339 339 338 339 336 336 340 341 342 342 343 343 345 347 348 348 347 344 342
319 321 322 324 331 344 344 341 339 335 337 337 339 340 340 340 339 340 334 335 337 334 338 341 340 339 337 339 336 336 338 341 342 342 344 344 345 346 346 346 345 345 343
318 321 322 323 326 332 341 345 344 344 342 341 341 343 342 342 344 343 336 336 338 338 343 342 341 338 338 338 335 337 332 336 339 342 343 343 345 345 344 344 344 345 345
316 319 320 321 324 326 332 340 346 346 346 343 343 342 344 343 344 344 338 340 344 344 342 343 341 340 336 336 340 337 330 327 334 337 339 340 342 341 342 343 343 344 344
313 315 318 322 322 324 327 334 344 338 338 342 344 345 347 347 347 345 344 344 346 345 346 343 343 341 341 338 337 339 339 338 329 327 334 337 339 340 341 341 341 343 343
313 313 316 320 322 323 325 328 332 340 341 344 345 352 351 351 349 347 348 348 347 346 348 345 341 339 340 341 338 337 336 335 335 331 327 330 334 337 339 339 340 341 342
311 312 315 318 321 322 322 324 331 336 341 339 343 342 344 345 348 352 351 351 350 348 346 344 343 342 342 344 342 337 335 331 332 331 328 332 330 335 336 337 338 339 341

GFSSE_sfc_thetae_072.txt.gz
Theta_e
340 357 363 364 363 364 366 366 365 364 363 363 362 362 362 362 362 362 361 359 358 357 355 353 351 349 346 342 341 342 346 349 352 353 354 354 354 354 354 352 350 350 349
344 358 362 363 363 363 365 365 364 363 363 363 362 362 362 363 362 362 360 358 357 354 351 348 344 341 338 336 334 335 336 339 343 349 350 351 353 354 352 351 351 350 349
346 358 361 362 362 362 363 364 364 363 363 363 363 362 362 363 362 361 359 356 354 350 347 343 341 339 338 336 337 335 334 334 336 337 339 344 344 350 350 351 350 349 349
349 358 357 361 361 361 362 362 362 362 363 363 363 363 362 362 361 359 357 354 351 347 344 342 341 340 340 339 338 338 337 338 339 337 340 341 342 348 350 352 351 348 348
351 356 357 360 360 361 360 360 361 361 362 362 362 362 362 360 359 357 356 354 350 345 343 343 343 342 341 340 340 341 342 345 345 344 343 345 347 346 350 350 351 350 347
349 353 361 360 360 361 360 359 359 360 360 361 361 361 360 359 357 355 354 353 351 348 345 345 345 343 343 341 342 343 344 346 345 344 346 343 345 347 347 349 349 349 348
346 350 362 359 360 361 361 360 358 358 358 359 359 359 358 356 355 354 353 352 351 350 348 346 346 347 346 344 344 344 345 345 346 345 346 348 345 345 346 348 349 349 348
344 350 359 361 360 360 360 360 358 358 357 357 357 357 357 356 354 353 352 352 351 351 351 349 348 348 348 346 344 345 345 345 341 342 343 346 341 340 346 346 349 348 348
344 348 356 360 362 360 360 359 358 358 357 357 356 356 356 355 354 352 352 352 351 351 351 350 349 349 348 346 345 345 345 345 344 340 338 340 341 341 346 347 348 347 347
343 345 352 356 357 359 359 360 359 358 358 357 357 357 356 356 354 352 351 351 352 351 351 350 350 349 348 347 346 345 345 346 341 340 340 343 341 341 345 348 347 347 345
339 343 348 348 351 354 352 357 358 358 358 358 358 357 354 349 351 349 347 350 352 352 351 351 350 349 348 345 345 345 345 339 341 340 340 342 340 342 345 348 347 348 346
335 339 343 347 349 350 346 354 357 356 356 355 353 355 352 349 351 347 349 351 351 351 351 351 351 349 345 338 341 343 340 338 340 339 340 344 342 343 346 347 348 348 347
335 337 342 349 352 350 347 348 351 350 352 353 355 356 356 350 352 350 348 350 347 348 342 345 344 343 340 339 338 338 338 339 338 338 341 344 344 346 346 348 349 348 349
336 336 339 347 352 354 349 348 350 347 350 350 353 359 356 353 353 350 345 345 347 343 344 342 340 343 342 342 340 338 338 337 336 336 341 345 345 347 348 348 350 350 350
334 339 339 343 350 353 353 347 349 350 348 351 351 357 355 352 350 349 347 344 343 342 340 340 340 340 342 342 340 339 338 338 338 336 336 347 345 345 347 349 350 349 349
335 335 339 343 350 350 352 353 349 350 349 349 349 350 355 352 351 347 347 344 341 340 339 338 338 340 341 340 340 342 341 341 340 341 340 341 344 345 345 347 349 350 350
327 332 336 342 347 352 349 349 350 346 346 344 345 350 352 354 351 350 343 341 339 341 344 343 342 342 341 340 342 342 343 344 343 345 345 344 341 343 345 345 348 349 352
324 328 333 337 343 350 353 350 346 343 343 342 344 346 349 350 350 348 340 340 340 342 341 340 340 340 340 341 343 344 345 345 346 347 346 341 341 345 346 349 350 349 350
323 325 326 332 340 347 351 349 349 351 345 342 342 341 346 346 345 345 339 341 345 338 340 341 342 343 341 344 344 345 346 345 346 345 346 346 348 348 348 349 347 347 349
326 331 328 328 338 349 349 350 346 343 343 342 340 341 345 345 344 345 341 345 343 340 341 342 347 344 345 345 345 344 345 345 345 346 347 346 347 349 350 351 350 345 345
323 326 330 330 337 340 344 340 343 343 346 343 343 345 345 345 344 348 340 344 345 342 339 344 345 345 346 347 344 343 343 346 347 346 347 347 347 347 349 349 352 346 345
322 324 325 328 331 333 336 349 348 348 346 347 346 347 347 344 348 348 348 346 347 340 346 346 348 345 346 348 341 340 336 340 343 346 346 346 347 347 346 348 348 348 347
319 321 322 326 328 331 333 335 342 344 346 345 348 347 348 346 348 351 350 348 347 345 344 348 350 349 342 346 347 341 335 330 339 343 346 345 347 345 345 346 348 347 348
317 319 322 325 328 328 331 333 340 336 338 340 345 348 351 349 347 348 353 348 350 346 352 351 351 352 349 344 344 343 348 343 333 331 338 342 345 344 346 342 343 345 345
317 319 322 325 327 328 332 333 329 335 331 334 339 354 359 358 352 347 354 354 354 350 354 355 354 353 349 345 342 342 344 342 343 335 329 333 339 340 341 343 341 341 344
317 319 322 324 326 328 329 330 332 332 335 332 336 340 345 351 353 355 352 356 356 355 354 355 356 353 349 348 347 346 342 339 337 336 331 335 334 338 340 340 340 340 341

GFSSE_sfc_thetae_075.txt.gz
Theta_e
349 354 364 364 365 367 367 365 364 363 363 363 363 363 362 363 363 363 361 360 360 358 356 355 354 352 349 345 344 346 349 352 353 354 354 354 354 354 353 352 352 347 353
351 353 363 363 365 366 367 365 363 363 362 363 363 363 363 363 363 362 361 359 358 356 353 350 347 343 340 337 336 339 342 346 350 351 352 354 354 353 352 352 352 350 350
352 353 359 362 364 366 366 365 364 363 362 362 363 362 363 363 363 362 360 358 355 352 349 345 342 339 337 336 334 334 336 338 338 340 349 349 343 350 351 351 351 350 349
354 355 354 361 363 364 365 364 363 363 363 362 362 363 363 363 362 360 358 356 353 349 345 342 340 339 339 338 337 335 335 334 337 342 341 341 342 348 349 351 350 348 348
354 354 355 361 361 363 364 364 363 363 363 363 363 363 363 362 361 359 358 356 351 347 344 342 341 342 341 339 339 339 339 341 341 340 343 344 345 346 348 349 350 348 347
349 354 358 359 360 362 363 363 363 363 363 363 363 363 363 362 360 358 357 355 352 347 344 344 344 343 341 340 340 341 341 345 347 348 344 341 345 350 348 347 348 348 348
347 352 359 359 359 360 362 361 361 362 362 363 363 362 362 360 358 357 355 353 351 349 347 345 345 345 345 342 343 343 343 345 344 345 344 345 348 350 347 348 347 348 348
347 352 360 358 359 358 360 359 359 359 360 361 361 361 360 358 357 355 354 353 353 351 350 348 347 347 347 344 344 345 345 345 344 341 341 343 345 346 346 346 348 348 347
347 349 360 356 359 359 359 359 358 358 358 358 358 357 357 356 355 354 353 353 352 352 351 351 350 348 347 345 345 345 345 346 342 342 338 339 345 345 346 346 348 347 346
344 346 357 354 355 355 356 360 359 358 358 358 357 357 357 356 354 353 351 352 352 352 352 351 350 348 347 346 346 346 346 346 340 338 339 343 348 344 345 348 347 347 346
341 345 351 350 352 353 351 356 358 358 358 357 356 357 353 346 349 348 346 351 352 352 352 351 351 350 346 345 346 345 345 339 337 340 338 347 345 343 346 348 349 348 347
338 342 346 349 350 350 346 354 355 353 352 351 350 352 350 347 350 345 349 352 352 352 352 352 351 349 345 336 339 344 340 336 335 338 338 348 344 343 346 348 349 349 349
338 340 342 352 358 350 346 347 351 348 349 351 353 356 356 348 349 348 347 346 347 348 341 345 344 342 339 338 338 340 341 340 339 339 342 350 346 345 346 348 349 351 352
338 337 341 347 354 358 348 345 349 346 349 349 350 362 359 351 357 357 347 348 351 345 346 344 342 346 344 343 341 340 339 339 338 337 342 349 348 346 347 348 349 352 352
333 339 339 345 354 358 362 350 350 351 346 349 350 357 354 353 358 353 353 346 347 344 343 343 341 343 342 343 342 341 341 342 341 339 339 350 348 348 348 350 351 350 351
336 337 342 341 355 354 357 363 359 358 351 349 349 353 362 356 360 350 351 346 344 342 340 340 342 342 343 344 343 343 344 345 344 343 340 342 347 346 347 346 350 351 352
331 337 339 344 351 354 356 355 357 350 350 349 349 361 360 362 363 358 347 346 344 346 348 346 345 344 342 344 344 344 345 346 345 345 344 345 345 346 346 347 348 350 352
325 326 335 338 344 354 355 354 350 348 349 347 348 350 357 361 361 360 347 344 344 344 341 343 343 342 344 345 346 345 348 350 349 349 347 349 345 341 344 346 347 350 352
324 327 329 337 340 348 356 352 354 355 349 344 346 343 352 353 354 354 348 345 353 342 344 345 344 346 346 345 346 350 351 348 350 347 351 352 349 345 347 346 348 350 349
325 330 332 335 339 342 351 355 352 349 348 348 345 345 351 350 349 349 346 348 349 343 344 346 349 346 347 348 345 346 352 351 350 349 350 348 349 351 351 350 349 347 347
324 328 329 330 338 340 342 345 347 344 347 346 346 350 351 350 348 351 344 348 350 345 344 353 351 351 344 349 345 345 346 353 350 349 351 348 349 347 350 353 348 348 347
323 326 325 326 332 336 339 346 345 350 351 350 349 350 352 350 354 352 346 345 350 345 352 355 353 344 345 349 343 341 335 341 348 348 348 346 351 349 349 346 347 351 344
319 321 324 326 330 333 336 337 340 346 348 346 349 352 351 350 351 350 347 346 350 349 347 353 352 349 340 348 355 343 333 332 338 347 349 348 352 348 347 346 348 347 350
317 319 322 326 328 332 340 337 342 335 332 338 340 348 351 355 350 350 351 348 352 352 348 354 352 354 354 343 347 348 350 347 336 332 345 347 347 347 351 344 350 347 349
316 319 322 326 329 331 336 338 332 335 329 334 340 347 353 362 352 349 353 351 353 351 348 355 361 356 352 349 345 344 346 343 347 339 335 335 344 343 343 344 342 343 344
317 318 322 324 327 329 331 334 336 335 337 333 336 340 341 343 348 349 352 353 355 351 352 356 361 354 352 355 351 350 342 340 339 339 335 339 336 341 340 345 342 342 342

GFSSE_sfc_thetae_078.txt.gz
Theta_e
346 357 365 366 367 367 365 364 363 363 362 362 363 362 363 363 363 362 362 361 361 360 358 357 355 352 349 346 345 350 353 354 354 354 354 354 355 355 355 354 356 348 354
349 357 363 365 367 367 365 364 363 362 361 362 363 362 363 363 363 362 361 360 359 356 354 352 349 346 342 339 340 345 347 350 351 352 354 354 354 353 352 353 353 350 352
349 357 359 365 366 367 365 363 362 362 362 362 362 362 363 363 362 361 361 359 356 353 350 346 343 340 338 336 336 339 338 339 342 348 354 348 346 351 351 351 351 350 350
351 358 356 363 365 366 365 364 362 362 362 362 362 362 363 363 362 360 359 358 355 350 347 343 340 339 340 338 336 336 338 337 343 346 339 344 339 351 352 350 350 349 348
352 355 359 362 364 365 365 364 363 362 362 362 362 363 362 362 361 360 358 357 353 348 344 342 342 342 340 339 338 340 341 342 347 342 337 340 341 349 354 351 349 349 349
352 350 359 361 363 364 365 364 363 363 362 362 363 363 363 362 360 358 358 356 353 349 346 345 345 344 341 339 339 340 343 346 348 342 344 336 343 352 352 350 351 352 348
350 350 358 360 362 364 364 364 364 364 363 363 363 363 362 361 359 358 356 355 352 350 348 346 346 345 345 343 341 343 344 346 340 336 341 344 344 351 352 350 347 347 348
348 353 358 359 361 361 362 362 362 362 362 362 363 362 361 360 358 357 355 353 352 351 350 349 348 346 346 346 345 346 346 346 340 339 340 344 347 351 351 351 348 347 346
348 357 358 355 358 361 360 360 360 360 360 360 360 359 359 358 356 355 354 353 353 352 351 351 350 348 348 347 347 347 347 347 342 338 337 342 350 351 351 350 350 348 346
344 356 358 353 352 354 356 359 359 359 359 359 358 358 357 356 355 354 351 352 352 352 352 352 350 349 349 348 348 348 347 347 341 336 335 342 349 350 350 351 351 351 349
341 354 355 348 351 351 351 355 358 358 358 358 357 357 354 350 350 349 348 350 352 352 352 352 351 350 349 348 348 349 346 340 335 335 338 349 350 349 348 350 352 351 351
338 343 352 347 349 350 346 355 353 352 353 352 351 354 351 347 349 343 347 351 352 352 352 352 352 351 348 339 339 347 341 337 334 333 338 350 350 349 348 350 351 352 352
341 342 349 349 352 349 346 354 351 351 350 350 350 352 350 347 349 347 348 343 346 349 341 346 344 343 338 336 336 340 340 339 336 337 345 349 349 349 348 350 351 352 352
336 343 349 352 354 352 348 351 352 347 349 349 349 353 354 349 353 353 347 344 345 345 341 342 340 342 341 342 341 340 339 339 336 338 347 350 349 350 349 350 352 352 352
334 341 345 351 359 359 363 361 354 346 349 349 351 353 351 352 350 353 355 350 349 348 344 343 341 345 344 344 342 341 339 340 342 341 340 350 349 350 351 349 350 352 353
338 342 341 354 357 359 363 367 366 362 349 351 351 351 355 354 357 356 355 355 351 349 346 344 344 344 342 341 342 343 342 343 345 344 341 344 348 348 350 352 351 351 353
331 338 341 344 355 354 355 361 362 360 357 359 354 360 355 358 360 355 354 350 350 348 348 347 347 347 344 345 343 345 345 346 345 345 345 342 344 347 347 349 350 352 354
332 332 338 337 346 355 356 356 357 356 357 356 356 361 358 357 359 360 352 350 349 348 345 342 343 339 340 341 341 343 343 345 346 348 346 345 345 345 345 347 347 350 352
328 331 334 339 342 354 351 355 354 353 352 353 353 353 357 358 355 355 350 350 351 346 343 343 343 343 341 344 342 347 348 349 349 348 346 347 347 345 341 344 346 347 348
329 334 336 337 340 345 351 351 351 351 350 349 346 347 350 351 353 353 351 349 350 342 341 342 343 346 344 345 342 342 348 350 350 347 347 348 347 346 343 347 343 343 347
330 332 333 337 338 341 345 345 346 346 347 347 348 345 348 346 348 349 348 347 346 341 339 345 344 346 342 345 345 344 347 350 347 346 349 347 346 345 345 347 345 346 345
328 332 333 332 337 335 342 345 345 347 350 350 346 345 347 347 346 345 345 342 343 342 344 344 345 341 344 345 341 342 335 340 345 345 345 345 346 345 343 347 346 344 345
327 329 331 334 333 337 337 337 336 336 340 343 347 345 348 347 347 346 345 343 340 347 340 344 344 345 339 343 346 343 333 328 339 345 344 343 344 345 342 344 344 345 345
323 328 328 330 331 332 339 339 338 334 328 330 336 339 347 348 345 346 347 348 345 341 345 342 347 344 344 335 340 348 346 344 334 332 344 343 345 344 342 345 344 343 342
320 324 328 333 333 332 334 334 335 336 333 333 338 342 343 349 346 345 346 345 346 344 341 344 348 345 345 340 339 344 343 342 343 337 331 337 340 340 341 344 341 343 342
318 320 327 330 333 334 333 334 335 335 335 334 332 334 336 340 347 347 345 344 345 344 345 345 343 346 341 337 344 346 343 339 337 337 336 335 333 336 340 342 342 342 339

GFSSE_sfc_thetae_081.txt.gz
Theta_e
351 363 367 366 365 364 364 363 362 362 362 362 362 362 362 362 362 362 362 361 360 360 358 357 354 351 347 345 347 351 354 354 355 354 354 355 355 355 357 356 354 351 354
353 361 366 366 365 365 364 363 362 361 361 362 362 362 362 362 362 361 361 360 359 356 355 353 349 345 341 340 342 345 348 351 353 354 354 353 353 353 354 353 351 350 354
353 359 364 365 365 364 363 363 361 360 361 361 362 362 362 362 362 361 360 359 356 353 350 347 343 341 339 336 336 337 338 343 346 347 351 348 348 351 352 352 351 350 350
353 355 360 365 365 364 363 362 361 361 361 361 361 362 362 361 361 360 359 358 354 350 346 344 341 340 340 338 335 336 339 341 345 346 338 342 342 351 351 351 350 349 348
350 351 360 364 364 363 363 362 361 361 361 361 362 362 362 361 360 359 358 356 352 347 344 343 342 343 341 340 339 341 343 347 348 346 337 334 337 352 353 352 349 350 351
348 351 361 363 363 363 363 362 361 361 361 361 362 362 362 361 359 358 357 355 353 348 344 344 345 346 344 342 343 344 345 347 346 338 338 341 339 354 354 354 352 349 350
347 353 357 362 363 364 364 362 362 362 361 362 362 362 362 360 358 357 356 354 352 350 348 345 346 346 345 344 344 346 346 345 339 336 336 338 344 352 354 352 351 350 349
344 353 355 362 362 363 363 362 361 361 361 362 361 361 360 359 357 356 355 353 352 351 350 349 347 346 346 345 346 346 346 346 341 338 335 340 347 353 354 353 351 350 349
347 351 352 356 360 362 362 361 361 361 361 360 360 359 359 358 356 355 353 353 353 351 350 350 349 347 347 346 346 346 347 346 339 338 337 338 351 354 354 353 353 351 349
349 350 349 352 356 354 357 361 360 360 360 360 360 359 357 356 355 353 350 351 352 351 351 351 350 349 347 347 347 347 347 346 338 336 334 338 351 354 354 353 353 352 350
350 348 347 348 349 349 352 357 359 361 360 359 358 357 354 347 347 349 348 350 352 351 351 351 351 350 349 348 348 348 346 338 337 334 332 348 351 354 354 353 352 352 351
348 348 346 345 346 345 352 352 350 355 354 352 352 351 347 342 342 346 346 350 351 351 351 351 351 351 349 340 339 347 340 338 336 333 330 351 351 353 351 353 353 353 352
328 347 344 344 346 344 343 349 347 347 345 345 347 347 343 340 341 342 338 340 341 348 343 346 345 344 341 339 335 330 338 337 334 334 336 352 351 354 351 353 353 353 352
322 341 341 343 344 344 344 347 345 345 343 342 341 344 341 337 335 339 338 337 338 338 337 332 335 336 337 335 332 330 334 335 334 333 341 350 349 352 353 352 352 352 353
328 335 337 344 343 343 344 347 344 343 344 343 342 344 343 337 338 339 339 337 337 339 337 333 333 334 336 337 334 334 334 333 333 335 339 351 348 350 353 352 351 351 352
327 331 333 342 345 345 352 352 350 344 341 344 344 345 344 344 338 343 340 343 342 341 339 337 336 334 336 337 336 336 335 335 337 337 336 344 348 348 351 353 353 351 351
323 326 331 338 346 346 346 346 348 348 345 342 345 345 345 344 346 340 345 340 340 340 337 337 336 336 335 336 334 335 337 336 337 338 339 336 342 348 349 351 353 354 354
321 322 325 333 332 346 346 348 349 347 346 345 345 346 348 346 347 347 345 342 340 340 337 335 332 330 330 331 330 333 335 336 338 339 339 339 337 340 346 349 350 352 353
319 320 323 326 331 346 346 346 345 346 344 344 343 349 349 350 351 349 344 343 342 339 337 334 333 332 332 332 335 336 337 338 339 341 341 339 339 341 338 344 348 348 349
319 323 325 329 330 337 346 345 344 343 344 341 342 341 347 351 350 348 347 342 342 338 335 333 333 335 336 334 340 337 335 341 342 341 340 342 342 342 339 339 340 342 346
321 320 321 328 328 329 341 341 342 341 342 340 340 339 340 346 350 348 344 344 341 338 334 333 335 336 335 337 333 336 338 340 342 343 341 341 340 342 340 338 340 340 342
320 321 320 322 327 327 332 337 341 343 343 342 341 341 340 341 343 345 344 342 340 338 336 334 336 333 336 340 333 333 329 333 339 342 339 341 341 341 340 341 342 341 342
317 318 319 321 323 325 327 328 327 330 337 339 341 340 342 343 341 341 342 343 340 336 333 336 338 338 333 336 337 333 327 324 329 339 337 338 339 339 340 340 342 342 342
316 316 316 318 320 323 325 326 327 324 322 331 331 340 343 345 343 342 341 341 339 337 336 337 339 339 338 333 330 335 335 334 326 328 336 336 338 339 338 336 338 340 341
312 312 316 316 316 318 321 323 324 323 326 326 329 331 332 334 342 343 342 341 340 339 336 338 338 339 341 334 328 326 327 327 331 331 328 329 334 336 338 336 338 337 337
309 310 312 315 317 321 323 324 324 323 324 326 325 328 330 333 340 343 342 342 343 342 339 336 340 341 342 338 333 329 327 329 333 332 330 328 328 331 334 336 337 336 336

GFSSE_sfc_thetae_084.txt.gz
Theta_e
355 362 366 365 363 363 362 361 361 361 360 361 361 361 361 361 361 362 361 361 360 359 357 354 351 348 346 345 348 351 353 354 354 353 355 354 353 354 357 354 353 351 352
357 362 365 364 363 363 362 362 361 360 360 360 361 361 361 360 361 361 361 360 359 356 354 351 347 343 341 341 342 346 349 351 353 355 353 352 352 353 353 352 351 351 352
357 361 363 364 363 363 362 361 360 360 360 360 360 361 360 360 361 360 359 358 355 353 350 346 342 339 338 337 337 338 340 343 344 347 351 347 347 350 352 351 350 348 351
357 360 361 364 363 363 362 360 359 360 360 360 360 361 361 360 360 358 358 356 352 349 346 342 340 339 338 336 334 335 338 341 344 342 336 339 344 350 351 351 350 348 347
355 359 361 364 362 362 361 360 359 360 359 360 361 361 360 360 359 359 357 355 350 347 344 342 341 341 339 338 336 339 341 342 343 343 337 333 333 349 350 350 350 351 347
352 357 362 363 362 362 361 360 360 360 360 360 361 361 360 359 358 357 356 354 352 347 344 344 343 342 341 339 340 342 343 343 343 335 334 336 336 354 353 354 351 349 348
347 354 361 363 363 362 361 361 360 360 360 360 361 361 360 359 357 356 355 353 352 349 346 345 344 346 345 343 342 343 344 343 339 336 335 336 339 353 355 353 352 349 348
346 354 359 362 360 361 361 360 360 360 360 360 360 360 359 358 357 356 354 353 352 350 349 347 347 346 345 344 344 345 345 344 340 336 334 336 343 353 354 353 352 349 349
349 351 356 358 359 359 360 360 359 359 360 360 359 359 358 357 356 354 353 352 351 350 350 350 348 346 346 345 346 346 346 345 337 335 336 332 347 353 353 353 351 350 349
348 349 352 355 356 355 356 361 359 359 359 359 359 358 357 356 355 353 350 351 351 350 350 350 350 348 347 346 346 346 345 345 336 335 332 332 348 352 355 354 352 351 350
347 347 348 352 354 354 355 359 360 361 360 359 359 358 354 348 348 348 347 350 351 351 351 351 351 350 348 347 347 347 345 336 336 335 331 338 349 352 356 354 354 353 351
343 344 346 348 350 352 355 355 356 356 357 355 355 353 348 343 341 345 346 350 351 351 350 350 350 351 348 339 337 342 338 337 337 334 331 343 349 353 356 355 353 353 352
346 346 344 344 346 349 350 351 352 353 351 350 350 347 342 341 341 341 337 340 340 347 340 344 344 343 340 338 337 332 333 337 335 334 334 344 350 353 355 354 354 353 352
339 346 344 343 342 341 348 348 349 349 346 345 347 345 340 335 334 335 334 334 335 336 337 335 334 335 337 337 335 331 330 333 334 333 333 346 351 354 355 354 353 353 353
332 339 340 343 343 341 345 343 345 346 345 344 342 343 340 334 331 333 335 333 334 334 335 333 330 331 331 333 333 332 330 332 333 332 333 350 350 350 354 354 352 352 351
329 331 337 341 342 341 345 343 341 342 342 341 341 342 341 335 334 334 336 334 333 335 335 335 332 330 330 334 334 335 334 334 333 334 334 338 349 348 351 354 354 353 352
320 328 336 341 342 340 344 345 343 341 343 342 341 341 342 338 334 334 338 338 337 337 337 336 334 333 332 334 333 333 334 335 334 335 336 335 340 348 349 350 353 354 354
318 325 329 347 344 342 344 347 346 345 341 342 343 342 343 343 340 335 337 339 339 338 337 335 334 330 329 330 329 329 332 333 335 336 336 337 335 339 344 349 350 353 353
318 319 322 327 335 343 343 347 346 343 343 342 343 343 344 343 344 344 339 341 339 337 337 335 331 329 327 329 331 332 333 334 335 338 336 337 337 337 337 342 348 348 350
315 317 323 326 328 335 342 343 343 342 343 342 342 345 344 345 344 345 347 341 341 338 336 333 331 332 331 332 336 337 335 335 338 338 340 341 338 338 338 338 337 343 347
318 319 322 321 323 326 340 339 336 336 339 341 341 342 342 347 346 345 344 342 340 339 336 333 331 331 332 334 331 330 333 336 337 339 340 338 339 341 340 339 338 338 339
316 316 319 321 322 323 328 332 335 335 337 340 342 341 340 341 347 346 345 343 342 339 336 333 333 331 332 334 329 329 325 327 329 337 339 339 339 340 340 341 338 339 338
316 316 316 318 319 319 323 326 327 326 334 335 334 339 340 340 341 345 345 344 342 340 339 335 333 332 329 334 335 329 323 317 319 327 334 337 338 338 339 340 339 341 339
316 315 316 318 319 319 320 318 320 322 322 327 329 333 334 341 341 340 341 343 340 338 338 333 336 336 332 330 331 335 333 324 317 319 331 334 336 337 338 339 338 340 340
313 312 313 314 315 316 320 320 320 318 322 324 326 327 331 340 343 342 340 339 338 336 335 334 335 335 337 333 332 324 325 324 326 321 317 324 333 337 338 339 337 336 337
311 311 312 312 313 316 317 318 318 316 317 319 322 323 327 331 334 338 340 340 339 338 336 335 337 337 337 338 336 333 324 322 324 325 322 325 327 331 335 336 336 337 334

GFSSE_sfc_thetae_087.txt.gz
Theta_e
352 359 365 364 363 362 362 361 360 361 361 361 362 362 361 361 361 362 361 360 360 358 355 353 350 347 345 347 350 353 353 353 354 354 354 354 353 354 355 355 352 349 350
354 359 364 363 362 362 361 361 360 360 360 360 361 361 360 361 361 360 359 359 358 355 353 350 346 342 342 344 347 350 352 354 354 353 353 352 352 353 352 350 352 349 350
355 359 361 363 363 362 361 360 359 359 359 359 360 360 360 360 360 360 359 358 355 353 351 347 342 339 338 339 340 342 344 347 350 352 351 345 345 352 351 350 349 351 352
356 358 359 362 362 362 360 359 359 358 359 359 359 359 359 359 359 358 357 355 353 350 347 343 340 339 337 336 335 337 340 341 342 341 336 342 344 349 350 350 349 347 349
355 357 358 362 362 361 360 359 359 358 358 359 360 360 359 359 358 357 356 354 350 347 344 342 341 341 340 338 338 339 342 342 343 342 336 334 332 346 350 350 349 348 346
354 357 361 362 362 361 360 359 359 359 359 359 359 359 358 357 357 356 355 353 351 347 344 343 343 342 341 339 340 340 341 341 341 333 333 335 335 344 351 351 350 350 347
352 354 360 361 361 361 359 359 359 359 359 359 359 358 357 356 356 356 354 353 351 348 345 344 344 345 344 342 341 343 343 342 337 334 332 335 336 353 354 354 351 349 347
350 355 358 361 361 360 359 359 359 358 359 359 359 358 357 356 355 354 354 352 351 350 349 346 346 346 345 343 343 345 344 343 338 334 333 331 341 352 354 354 352 349 348
350 355 357 358 359 360 359 358 359 358 358 358 358 358 357 356 355 354 353 352 351 350 350 350 348 346 345 345 344 345 344 343 336 335 335 331 340 350 352 353 350 349 348
348 353 354 355 356 355 356 359 358 358 358 357 358 358 356 356 355 353 350 351 351 350 350 350 348 347 346 345 345 345 344 343 334 334 332 330 341 349 352 354 350 351 349
345 347 352 352 352 352 354 357 358 359 359 357 357 357 354 349 348 347 347 348 351 350 350 350 349 348 347 346 346 345 344 335 335 335 332 337 342 346 352 355 353 352 350
342 344 348 351 351 350 353 355 355 354 356 354 353 353 349 345 343 345 345 349 351 351 350 350 350 349 347 337 335 340 334 334 335 335 333 341 345 346 351 356 354 354 352
343 344 346 349 350 351 351 352 354 353 352 352 353 351 346 344 343 342 337 340 338 345 339 343 343 342 338 337 336 334 331 330 333 334 335 343 346 348 352 356 355 354 353
342 343 345 345 347 348 350 351 350 350 351 350 349 347 343 340 337 336 334 332 333 334 334 333 335 336 337 337 335 333 330 329 331 332 333 343 347 351 353 357 356 354 353
341 343 343 344 343 343 346 348 349 349 349 348 348 346 342 337 334 334 332 331 331 331 331 331 330 330 331 332 333 332 330 329 330 332 331 342 348 350 354 356 354 352 352
335 342 342 342 342 342 344 344 345 347 347 347 346 346 343 338 333 329 332 332 331 331 331 331 330 329 328 330 331 333 332 332 332 331 332 333 346 349 351 354 355 354 352
329 337 338 341 342 340 341 343 342 343 343 343 343 343 343 338 333 330 330 332 334 331 332 332 332 331 328 331 332 333 334 334 333 333 333 333 336 348 349 350 353 354 354
324 328 336 342 340 339 339 343 341 340 340 339 339 340 341 340 335 331 332 333 335 333 334 334 333 332 331 330 331 331 331 332 333 334 335 334 334 337 347 350 350 352 352
318 324 330 337 338 339 339 342 343 341 340 341 340 338 339 340 339 333 332 336 337 335 335 335 331 331 327 326 328 329 329 331 332 335 334 334 335 336 336 344 348 349 350
313 318 322 327 334 337 340 342 342 341 340 340 341 341 341 341 342 341 338 334 339 335 334 332 331 330 330 329 331 333 334 335 335 335 336 338 338 336 335 336 338 342 347
313 315 320 323 327 336 337 337 336 339 339 339 341 343 345 344 343 340 342 342 338 338 337 334 331 330 330 333 330 328 330 333 332 334 337 337 337 339 337 337 336 336 338
314 316 319 319 321 325 333 335 335 335 336 337 339 339 341 343 345 345 341 340 340 339 336 334 331 330 330 332 327 328 323 325 326 331 335 336 337 338 339 339 338 337 337
314 316 319 318 318 321 325 325 324 326 330 332 334 336 338 340 340 340 343 341 340 339 337 334 332 330 328 331 332 327 322 320 320 325 330 335 335 336 337 339 338 339 338
313 313 315 317 316 317 321 319 318 323 323 326 326 328 332 337 338 339 338 340 341 342 338 335 335 333 331 327 331 335 333 324 318 316 326 333 333 331 333 336 338 338 339
313 314 315 315 314 315 315 314 315 316 319 321 322 324 328 334 338 339 336 335 337 340 338 334 333 333 333 331 330 328 329 328 326 322 322 321 327 332 335 338 337 337 337
311 311 312 312 312 314 316 316 314 314 314 314 316 319 322 327 332 336 339 339 340 339 337 335 334 333 333 333 333 329 329 326 323 324 320 320 325 330 331 334 335 335 336

GFSSE_sfc_thetae_090.txt.gz
Theta_e
347 358 363 363 362 362 362 363 362 363 363 362 362 362 362 361 361 362 360 360 360 358 355 353 350 348 348 350 352 353 354 354 354 353 353 354 353 354 354 352 351 348 349
351 359 363 362 362 362 362 362 362 361 361 362 362 361 360 360 361 361 360 359 358 355 353 350 348 346 346 349 351 353 353 353 355 353 351 351 353 354 351 351 351 349 350
352 359 361 362 362 361 360 361 360 360 360 360 361 360 360 360 360 360 359 358 355 353 351 348 344 343 344 345 348 350 351 352 353 352 350 347 349 351 350 349 350 351 351
355 358 358 362 361 361 360 359 359 359 360 360 360 360 360 360 359 358 358 356 354 351 349 344 341 340 341 341 341 341 343 343 343 342 342 345 345 349 349 349 347 350 352
354 356 357 362 361 360 360 359 358 358 359 359 359 359 359 359 358 357 357 356 352 349 345 342 341 343 342 340 341 344 345 344 343 341 339 338 337 346 350 349 348 346 348
354 355 360 361 360 360 359 359 358 358 359 359 359 359 358 357 357 356 356 354 352 348 344 343 344 344 343 341 343 343 344 342 341 335 337 337 341 341 350 350 349 349 346
353 354 359 361 360 360 359 359 358 358 358 359 359 358 357 356 355 355 354 352 351 349 346 344 344 345 345 343 343 344 344 343 338 336 335 337 338 343 352 352 350 349 346
351 354 356 360 360 359 359 359 358 357 357 358 358 358 357 356 355 354 353 352 351 350 349 346 346 346 344 343 343 343 344 342 338 337 335 334 341 348 352 354 354 349 347
353 354 355 356 358 359 358 358 358 357 357 357 356 356 356 356 354 354 353 352 352 351 350 349 348 346 344 343 343 344 343 341 338 338 336 335 336 343 351 355 352 349 348
351 353 353 354 355 354 355 359 358 357 357 356 356 356 355 355 354 354 351 351 351 350 350 350 348 347 345 343 343 344 342 341 336 336 336 335 339 343 349 355 351 351 349
347 351 352 352 354 354 353 356 358 358 358 357 356 356 352 350 350 349 349 349 351 350 350 350 349 347 346 345 345 344 343 338 337 337 337 338 341 343 349 354 355 353 351
341 347 350 351 351 351 354 353 353 353 355 353 352 352 348 346 345 345 347 349 350 351 350 349 349 348 347 340 338 340 336 334 335 336 337 341 343 345 347 354 356 354 353
340 346 350 349 351 350 351 352 352 352 351 351 353 352 347 345 344 345 341 343 343 347 342 346 345 344 341 339 338 337 336 334 333 335 337 343 346 347 349 354 356 355 354
340 343 348 350 348 350 350 352 352 350 350 349 349 349 346 341 339 339 338 336 336 336 337 336 338 339 340 339 338 337 335 334 333 334 336 343 346 348 351 355 357 355 354
339 342 344 348 348 349 348 350 349 348 349 349 349 349 346 341 338 337 335 333 332 333 333 333 334 335 335 336 336 336 335 335 334 334 336 341 345 348 353 356 356 355 354
339 341 343 345 347 347 348 347 347 349 349 348 348 349 346 344 339 335 334 333 332 332 332 333 333 332 332 333 333 334 335 336 336 336 336 337 342 346 352 355 357 356 354
335 341 341 342 344 345 345 347 346 347 348 347 347 348 347 344 340 337 334 333 333 334 333 333 334 334 332 333 333 335 336 337 337 338 338 338 338 343 350 352 354 355 355
325 336 340 343 341 341 342 343 344 345 346 347 345 344 345 344 342 337 334 332 334 334 334 334 334 333 333 333 334 335 336 336 337 337 339 339 339 339 344 350 351 353 354
321 327 333 339 339 338 339 340 341 341 341 342 341 340 341 342 341 336 333 333 335 336 336 336 335 336 334 332 332 333 332 332 334 336 338 339 340 340 340 342 349 350 351
313 323 328 335 338 339 338 337 340 339 339 339 339 339 339 339 340 338 335 333 337 338 336 336 336 334 334 333 332 333 334 335 337 338 339 341 341 341 341 341 345 348 348
310 313 321 327 332 335 336 336 338 337 337 338 340 341 341 341 341 340 339 339 337 337 337 336 336 335 334 336 334 333 332 334 336 337 339 340 343 343 343 342 341 342 345
310 311 314 322 328 336 338 339 337 338 339 340 340 341 343 343 342 341 340 340 341 339 339 338 337 335 334 335 333 332 325 326 328 333 338 340 343 343 343 343 343 343 344
311 312 315 318 322 328 333 329 326 330 333 334 336 339 340 343 345 345 343 341 340 340 339 337 333 333 332 334 335 332 324 321 325 330 335 338 339 341 341 343 344 343 345
308 312 316 318 321 325 329 330 328 329 328 330 331 335 338 340 340 340 342 341 339 337 334 333 337 336 331 332 332 335 335 330 325 322 331 335 337 337 338 337 342 344 345
306 311 314 316 316 318 324 328 326 324 324 324 325 327 331 334 338 338 336 336 337 333 330 327 330 333 335 334 332 330 332 334 331 329 325 326 333 336 336 338 341 342 344
303 310 312 315 314 314 315 315 317 318 318 318 320 322 324 327 333 336 339 338 333 333 331 329 330 332 334 334 333 332 331 328 327 327 326 326 326 333 337 340 338 341 343

GFSSE_sfc_thetae_093.txt.gz
Theta_e
353 360 363 363 363 364 365 365 364 363 362 361 362 361 360 360 361 362 361 360 361 359 357 354 351 351 351 352 354 354 355 354 354 354 354 354 353 354 354 351 348 346 349
356 361 362 363 363 364 364 364 363 363 362 362 362 362 360 361 362 361 361 359 358 356 354 351 348 348 350 352 353 354 355 355 354 353 351 352 355 353 351 350 348 349 349
357 361 360 362 363 363 363 363 363 362 362 362 362 361 361 361 361 361 360 359 357 354 352 348 346 347 349 351 353 354 354 354 353 351 348 346 347 352 348 349 348 349 349
358 361 358 362 362 362 362 361 361 362 362 362 361 361 360 360 360 359 358 357 355 352 350 345 344 344 346 348 349 350 350 349 349 349 350 350 348 350 349 348 346 349 350
358 360 359 362 361 361 361 360 360 360 361 361 361 360 360 360 359 358 358 357 353 351 346 343 342 344 343 343 344 345 345 344 343 344 346 347 348 348 350 349 348 346 348
356 358 361 361 360 360 360 359 359 360 360 360 360 360 360 359 358 358 357 356 354 349 345 344 344 344 343 341 344 344 343 342 340 340 345 345 344 348 350 350 349 348 346
355 357 359 360 360 360 359 359 359 359 359 359 360 359 359 358 357 357 356 354 353 351 348 345 345 346 345 343 341 342 341 343 337 339 339 344 346 345 350 351 351 350 348
355 358 359 360 360 359 359 358 358 358 358 359 359 358 358 357 356 355 355 354 353 351 349 347 347 347 345 344 344 343 343 344 338 337 337 342 342 346 350 353 353 351 348
355 357 359 357 359 359 358 358 357 357 357 357 357 357 357 356 355 355 354 353 353 351 350 350 348 347 345 344 344 344 343 343 338 339 336 337 339 344 352 354 354 352 348
354 355 357 357 355 354 356 358 357 357 357 357 357 356 356 355 355 354 352 352 352 351 351 350 348 347 346 344 344 344 342 343 339 338 341 339 339 343 347 353 354 353 349
349 354 355 355 356 354 353 355 357 357 357 357 356 356 353 348 350 350 348 351 352 351 351 350 349 347 346 344 344 343 343 338 337 339 342 344 343 344 347 353 356 354 352
345 350 353 355 355 354 351 355 355 354 353 353 352 353 351 351 351 346 348 349 351 351 350 350 350 348 345 340 339 341 338 337 335 339 343 344 344 346 347 353 356 356 354
345 349 351 355 357 353 352 353 354 353 354 355 355 356 354 350 350 348 345 345 345 348 342 344 343 342 341 341 338 338 339 341 340 341 343 344 345 347 349 353 354 357 355
343 347 351 355 356 355 354 353 353 352 354 353 354 355 353 351 350 347 345 344 346 342 343 343 340 342 343 344 343 341 340 342 343 343 345 344 345 347 349 355 356 357 356
344 347 350 353 355 356 356 354 354 353 353 353 353 354 352 349 349 348 346 345 342 341 340 340 340 341 344 345 344 343 342 343 344 343 344 346 345 346 347 353 356 356 356
345 348 350 352 355 356 356 358 355 355 354 354 353 354 353 351 351 347 347 345 344 342 340 339 340 342 343 345 345 344 344 345 345 346 344 346 344 344 346 352 357 357 356
336 348 349 351 353 354 354 356 356 355 354 353 353 353 352 351 353 350 347 345 343 344 343 341 342 343 342 343 346 347 346 347 346 347 347 346 346 343 346 351 354 357 357
331 342 350 349 351 352 351 353 353 353 353 353 353 352 350 354 353 350 347 344 344 342 341 341 342 342 343 343 346 348 348 348 347 347 346 346 347 347 347 348 352 354 356
328 337 347 351 349 351 353 352 352 354 351 352 352 351 354 353 351 351 349 345 342 340 340 340 341 342 342 345 346 347 346 345 345 342 345 347 350 349 349 348 349 350 352
323 331 341 349 351 349 348 349 349 349 349 350 350 351 352 353 351 350 347 347 342 340 339 339 341 343 343 344 342 343 345 345 345 344 345 346 349 351 352 353 352 349 348
321 325 333 341 350 348 345 343 343 342 344 346 347 349 349 349 348 348 345 342 341 340 341 342 342 343 343 344 342 343 344 347 346 343 345 345 347 349 353 354 354 352 350
321 325 327 331 341 347 347 347 346 346 346 346 347 347 348 347 347 346 342 343 343 341 342 344 344 341 343 345 342 339 333 338 336 339 345 346 348 349 350 351 354 354 353
318 322 326 328 334 343 348 347 346 348 347 345 345 345 347 348 348 347 345 343 346 348 345 345 344 340 337 342 343 338 331 326 331 337 340 344 347 345 345 348 351 349 354
316 318 323 327 330 333 345 346 346 342 340 343 346 347 348 350 350 350 348 348 348 348 343 339 339 339 336 333 339 342 341 336 330 328 338 343 341 343 347 345 345 349 352
314 315 319 325 329 331 337 345 345 345 344 346 346 348 350 350 350 350 351 351 350 345 343 340 337 332 329 326 328 334 335 339 337 334 325 330 340 342 343 343 345 347 351
316 317 317 320 326 330 333 339 346 347 344 340 341 343 345 346 347 349 348 350 345 343 342 339 339 340 333 332 331 335 332 331 330 331 329 328 332 337 340 343 344 345 348

GFSSE_sfc_thetae_096.txt.gz
Theta_e
349 361 365 364 364 365 367 366 364 363 362 361 361 361 361 361 362 362 361 361 362 360 357 355 354 353 351 353 354 355 355 355 355 355 354 354 355 355 352 350 349 346 350
353 362 363 364 364 365 366 366 364 362 361 361 362 361 361 361 362 362 362 360 359 357 354 352 350 350 351 352 354 355 355 354 354 352 352 355 354 353 350 349 350 349 349
354 363 361 363 365 365 365 365 363 362 361 361 361 361 361 362 362 362 361 360 357 355 352 349 348 350 351 353 353 354 355 354 352 350 349 349 347 350 349 350 349 350 348
356 363 359 362 363 365 363 364 363 362 362 362 362 361 362 362 362 361 360 358 356 353 350 347 347 349 351 353 353 353 353 353 353 351 351 348 346 350 349 348 348 348 350
356 360 361 362 362 363 363 363 362 362 362 362 362 362 361 361 361 360 360 359 355 352 348 345 346 346 347 348 349 348 347 345 345 345 349 350 351 349 350 350 348 347 348
355 357 360 361 361 362 362 362 362 362 362 362 362 362 361 361 360 359 359 358 356 351 346 345 346 345 344 342 342 342 343 344 344 346 349 347 348 351 351 351 349 346 347
353 355 362 361 361 361 361 361 361 361 361 362 361 361 360 360 359 358 358 356 355 351 348 345 345 347 345 343 342 342 341 342 343 341 343 347 349 350 352 352 351 350 349
353 355 360 360 360 360 360 360 360 360 360 361 360 360 359 359 358 358 357 356 354 352 350 347 347 347 346 345 344 343 342 344 337 336 337 340 344 345 350 353 353 352 349
354 355 359 357 358 359 359 359 359 359 359 359 359 358 358 357 357 356 356 355 354 353 351 349 346 346 346 345 343 342 342 344 341 341 340 337 346 347 350 354 354 354 350
352 352 358 357 354 354 355 359 358 358 358 358 358 357 357 356 355 354 353 354 352 351 350 348 346 346 345 344 343 342 342 343 338 342 343 343 342 340 348 354 355 355 351
348 351 355 355 354 353 352 355 357 358 358 358 357 357 355 351 350 349 348 353 351 350 349 348 347 346 344 344 344 343 342 336 339 341 344 345 340 343 346 352 356 357 353
347 348 352 355 355 354 350 356 354 352 351 352 352 355 354 350 347 344 347 350 349 349 348 348 347 346 344 337 340 343 337 338 337 340 344 345 343 346 348 352 356 357 355
348 349 351 357 359 356 351 352 351 350 350 349 351 354 355 347 348 347 345 346 344 347 341 343 342 341 339 339 337 337 340 343 338 341 345 344 344 346 349 351 354 356 357
347 350 352 356 359 360 353 351 352 349 350 349 350 354 353 349 348 347 342 342 344 342 341 343 339 342 343 346 347 344 342 345 345 346 349 345 345 346 349 350 356 356 357
343 349 353 356 359 359 359 353 354 353 350 352 352 354 352 349 350 347 346 343 343 341 341 341 340 341 343 348 348 345 343 346 348 347 347 349 346 347 349 350 354 357 357
342 347 353 356 359 359 358 360 356 355 354 353 352 353 356 352 353 348 347 345 343 342 340 340 339 340 344 349 349 350 348 349 350 350 348 349 348 347 348 349 353 357 358
330 338 352 357 359 359 359 360 360 356 354 353 354 358 357 357 355 354 348 346 344 346 346 344 343 344 346 347 349 351 351 351 350 350 351 348 348 347 347 349 352 356 359
328 332 344 350 354 360 360 359 358 356 355 353 354 356 358 358 357 356 350 348 349 349 345 342 341 341 343 345 347 348 349 350 350 352 349 348 347 348 349 349 350 354 356
327 331 335 344 351 356 360 359 359 362 357 354 354 354 357 352 353 356 353 350 355 347 345 343 341 342 340 343 343 347 350 350 351 349 350 350 350 349 350 352 348 350 353
325 329 333 337 353 356 358 359 356 354 354 354 353 354 357 355 354 356 353 354 352 346 346 344 346 342 340 339 340 342 349 350 351 349 349 348 348 349 351 355 355 353 348
327 331 333 334 349 353 352 352 352 350 351 352 352 355 355 354 355 359 351 352 349 346 350 349 345 343 339 345 343 343 346 349 350 344 346 347 347 348 350 356 358 355 353
325 328 332 335 340 350 351 352 352 351 351 351 352 355 355 355 355 354 354 352 350 345 346 344 346 338 341 348 341 341 334 339 340 343 344 346 350 350 349 351 351 353 353
323 325 327 332 337 341 352 351 352 352 351 349 350 351 353 354 355 354 353 352 349 345 342 346 348 347 341 344 343 340 333 330 333 341 344 345 347 344 347 348 351 350 351
321 323 326 329 333 335 341 347 355 346 343 344 349 350 352 355 353 352 352 351 352 348 345 349 349 348 347 340 339 342 345 338 329 326 339 341 345 342 350 346 348 349 352
320 322 325 329 330 334 337 341 343 349 343 343 345 353 358 357 354 350 351 351 348 345 347 350 350 347 342 336 332 330 336 335 336 329 323 330 336 339 342 347 345 345 348
319 320 323 327 330 332 333 337 342 347 347 340 343 343 345 350 353 354 353 355 355 357 355 351 345 349 344 340 335 332 331 330 329 332 327 330 331 336 339 342 345 346 345

GFSSE_sfc_thetae_099.txt.gz
Theta_e
352 359 366 367 367 367 366 365 364 362 362 362 362 362 362 362 363 362 362 361 362 359 358 357 355 353 352 353 355 356 356 355 354 353 354 354 354 354 351 349 352 346 350
355 360 364 366 367 367 367 365 364 362 362 362 362 362 362 362 363 363 362 361 360 357 355 354 352 351 352 353 354 354 354 353 353 351 352 354 354 352 351 348 351 349 349
356 360 361 365 367 367 367 365 364 362 361 362 362 362 362 362 362 362 362 360 358 356 352 350 350 351 352 353 354 354 354 352 350 349 353 354 344 349 349 349 350 350 349
357 360 359 364 366 366 366 365 363 362 361 362 362 362 362 362 362 361 360 359 356 353 350 348 349 351 353 353 353 353 352 352 351 352 353 346 345 350 348 347 347 349 349
356 359 363 364 365 365 365 365 363 362 362 362 362 362 362 362 362 361 360 359 355 352 348 347 349 350 352 353 352 352 351 351 351 350 348 347 348 350 351 348 347 346 347
352 355 361 363 364 364 364 364 363 363 363 363 363 362 362 361 361 360 360 358 355 351 347 346 346 347 348 348 347 346 345 344 346 348 345 347 345 352 352 349 349 347 346
352 353 362 362 363 364 364 364 363 363 363 363 363 362 361 361 359 359 358 356 354 350 347 345 344 345 345 344 342 341 342 343 341 342 340 344 350 354 352 351 350 348 348
352 353 362 360 362 362 363 362 362 362 362 363 363 362 361 359 358 357 357 356 355 352 349 346 345 345 344 343 341 340 341 342 340 338 339 339 348 350 351 351 352 351 349
353 352 358 356 359 361 361 361 361 361 361 361 361 360 360 358 357 356 356 355 353 352 351 348 345 344 342 342 341 342 343 344 340 342 341 340 349 348 348 351 353 354 351
351 351 356 354 352 354 357 360 360 360 360 360 360 359 359 356 355 354 354 353 351 350 349 348 346 344 343 344 344 343 343 344 337 339 343 342 349 346 347 352 355 355 354
347 351 355 352 352 351 350 355 358 359 359 359 359 358 356 352 354 352 349 354 351 349 348 348 347 346 345 346 347 346 343 335 337 341 342 349 344 341 343 350 353 357 355
344 347 353 355 354 352 349 355 352 350 352 353 353 356 353 351 350 344 349 353 350 349 348 348 348 347 344 335 340 345 338 336 338 339 343 351 347 346 347 350 353 356 357
344 346 349 357 361 354 350 351 353 347 347 349 351 356 358 351 349 343 345 345 345 348 340 343 342 340 337 338 338 340 339 342 341 338 345 351 348 348 350 351 354 355 357
342 346 349 355 362 363 353 350 353 346 348 347 346 359 359 352 354 352 343 345 347 340 342 343 338 344 342 343 344 346 343 343 344 345 347 351 348 347 349 352 353 357 356
338 346 349 354 363 366 367 354 354 353 349 350 350 354 354 351 354 349 350 342 343 341 341 340 341 342 342 343 348 347 345 345 347 347 347 352 350 349 349 351 353 357 358
340 345 348 353 363 362 363 364 360 360 351 350 349 352 356 353 356 347 349 345 343 343 340 341 343 342 342 343 347 349 350 349 349 350 348 350 351 350 351 351 353 356 358
333 341 345 353 358 364 363 361 362 355 354 350 351 361 360 360 359 354 348 348 347 351 352 347 345 344 341 344 348 349 349 350 349 351 351 350 348 350 351 352 353 355 358
330 332 335 343 352 363 364 361 360 357 355 353 354 357 360 357 358 359 348 347 349 350 348 345 341 338 339 341 347 347 348 351 350 351 351 348 345 345 349 351 352 353 355
328 331 333 338 343 353 366 361 363 366 360 358 357 356 360 360 359 355 351 349 357 349 348 345 343 343 341 342 341 347 350 349 352 348 352 354 355 350 348 353 350 350 352
327 331 333 334 344 354 354 363 357 357 361 360 358 356 362 361 359 359 354 350 356 349 348 347 348 346 343 343 336 339 348 347 348 351 351 349 350 351 353 358 358 352 349
327 330 334 335 341 342 340 346 350 350 355 356 357 361 361 361 358 359 353 356 351 351 352 354 350 351 344 348 342 342 345 354 354 346 347 346 348 350 349 355 361 359 353
326 329 332 334 339 341 339 348 349 352 351 354 354 360 360 359 361 358 358 356 355 348 353 352 351 342 342 346 339 338 336 341 344 346 345 346 349 349 348 354 356 360 352
324 327 329 332 335 339 346 347 355 354 353 349 350 352 356 359 359 359 361 358 358 355 349 353 351 346 337 343 350 343 340 331 344 347 350 345 351 346 348 350 352 357 358
322 324 327 331 334 336 342 342 347 345 343 344 346 348 354 359 358 358 360 360 361 353 351 352 351 347 346 340 344 344 346 342 329 328 342 345 347 347 349 346 348 352 355
321 322 325 329 332 335 339 344 337 341 340 343 345 352 357 360 359 354 359 359 357 353 352 352 352 351 346 341 339 339 341 336 340 328 324 329 338 342 343 345 346 347 350
319 320 322 325 331 332 334 337 343 344 343 340 344 344 346 347 355 359 356 358 358 356 355 352 355 352 350 346 340 340 335 331 330 330 327 330 330 334 338 345 346 346 348

GFSSE_sfc_thetae_102.txt.gz
Theta_e
352 362 367 368 366 365 365 363 362 362 362 362 362 362 362 363 363 363 363 363 362 362 360 358 355 354 355 354 356 358 357 356 355 354 355 356 355 351 352 354 355 346 350
355 361 366 366 366 366 365 364 362 361 362 362 362 362 363 363 363 363 363 362 361 358 357 355 352 353 354 354 355 355 354 353 352 352 354 354 354 352 351 351 353 348 349
354 361 364 366 367 366 365 364 362 362 362 362 361 362 362 363 362 362 362 361 359 356 354 352 352 353 354 354 354 354 353 351 350 350 353 350 345 351 351 350 351 350 349
355 360 362 366 366 366 365 364 362 362 362 362 362 362 363 363 362 361 361 360 357 353 351 351 352 353 353 353 354 353 352 352 354 357 350 350 342 351 350 349 349 350 349
354 357 363 366 366 366 366 364 362 362 362 362 362 362 362 362 362 361 360 359 355 352 349 349 351 354 354 353 353 352 351 352 354 349 345 345 345 351 353 348 348 348 349
352 355 362 364 365 365 365 364 363 362 363 363 362 362 362 361 361 361 360 358 356 352 350 350 351 352 352 352 350 347 348 349 349 340 343 343 346 355 355 351 350 349 347
351 360 361 364 364 365 366 365 363 363 363 363 363 362 362 361 360 360 359 357 355 352 350 348 348 348 350 349 347 347 346 347 339 335 336 345 349 355 356 352 351 350 348
352 361 360 362 364 364 364 364 363 362 362 363 363 362 361 360 359 358 357 356 355 352 350 348 347 346 347 346 345 345 344 344 337 334 339 343 352 356 355 354 353 351 349
352 360 358 356 361 363 362 362 362 361 362 362 361 361 360 360 358 357 357 355 354 352 351 350 348 346 345 344 344 344 346 345 338 334 336 344 352 354 354 354 354 353 352
348 356 356 356 355 359 360 362 361 361 361 361 361 360 359 359 357 357 356 355 354 352 351 349 348 347 346 345 345 346 346 344 337 332 333 344 352 354 352 353 355 356 356
345 353 353 349 352 352 354 359 361 361 361 361 360 360 356 354 354 353 352 354 354 352 351 350 349 348 347 347 347 347 346 336 332 335 340 349 349 349 349 351 353 356 357
341 346 353 350 350 349 347 356 357 358 358 358 358 358 355 352 353 348 349 354 354 353 352 351 350 349 347 337 337 347 339 335 332 335 342 350 350 351 350 351 353 355 357
342 344 351 356 355 350 348 355 351 350 353 355 356 357 355 351 352 347 348 345 348 351 344 347 345 342 337 336 336 339 338 338 337 339 345 351 352 353 352 354 354 355 356
339 339 351 357 358 356 352 353 354 348 348 348 349 354 353 351 350 346 346 342 343 343 338 340 337 338 338 339 342 343 344 343 341 346 348 351 351 352 354 355 355 356 356
332 348 348 354 360 357 362 363 355 349 348 347 349 349 350 351 352 349 344 345 344 340 339 338 340 339 342 342 341 346 345 344 346 346 347 352 350 350 353 355 356 356 359
338 349 350 350 346 358 358 365 368 356 352 349 349 348 351 354 350 349 350 346 344 339 341 339 343 343 341 340 342 349 348 349 349 349 348 349 351 350 352 354 355 357 359
333 353 346 349 332 335 361 363 363 363 355 353 349 351 351 352 354 351 347 350 347 350 349 346 346 347 345 344 343 347 350 350 350 351 352 350 349 351 352 353 354 355 357
336 342 352 346 349 356 362 361 360 358 360 353 357 355 353 351 353 355 349 345 347 351 348 345 342 341 339 339 342 346 347 350 351 351 349 349 347 347 350 352 353 354 355
336 339 340 345 343 358 362 362 362 362 360 359 355 355 357 354 352 354 348 346 348 346 345 343 344 339 337 338 342 346 347 349 349 347 351 351 350 349 346 352 350 351 353
331 334 337 339 343 350 352 362 360 359 359 361 358 354 358 356 354 352 351 349 348 344 342 343 341 342 340 339 337 337 343 348 349 347 350 351 349 350 348 349 349 348 350
332 335 339 341 346 346 345 347 355 351 354 356 357 361 355 355 356 354 353 351 355 346 343 343 341 344 341 344 340 338 340 344 346 349 344 344 346 347 347 348 351 355 351
329 333 340 344 346 347 347 346 343 350 352 352 356 357 355 357 356 357 355 351 352 351 349 348 345 340 344 341 334 336 330 335 344 342 344 344 345 348 348 349 353 353 348
331 334 336 342 345 345 346 342 342 352 353 346 351 356 357 356 356 356 356 353 351 350 345 347 348 343 337 340 341 336 330 326 334 342 343 342 345 346 344 346 348 350 349
326 332 333 338 341 337 343 340 342 339 336 343 345 349 352 355 354 356 355 355 351 351 345 347 347 345 340 334 341 340 343 338 327 326 338 340 345 343 343 344 347 346 347
325 329 333 336 339 339 343 345 338 336 334 338 340 342 347 353 353 354 354 353 354 352 351 349 348 346 342 337 340 339 339 338 337 330 323 331 339 339 341 342 343 345 345
322 324 330 333 334 339 337 339 341 339 337 335 336 337 339 345 350 351 350 353 353 353 351 349 349 347 343 339 340 339 336 333 331 330 326 325 324 328 335 338 344 342 343

GFSSE_sfc_thetae_105.txt.gz
Theta_e
357 364 366 365 364 364 363 362 362 362 362 362 362 362 362 362 362 362 362 362 362 362 359 357 354 353 354 355 356 358 358 358 357 355 356 354 352 353 356 356 350 346 349
359 363 365 364 365 364 363 363 362 361 361 362 362 362 362 363 362 362 362 362 361 359 357 354 352 353 354 355 355 355 355 356 355 357 354 354 352 352 353 351 350 347 348
358 362 363 364 364 364 363 362 361 361 361 361 362 362 362 362 363 362 361 360 359 356 354 352 352 353 354 354 354 354 354 353 353 353 355 347 346 351 352 351 350 349 348
358 359 361 364 363 363 363 362 361 361 361 361 361 361 362 362 362 362 361 360 357 353 352 351 352 353 354 354 354 353 354 355 356 354 351 350 343 351 351 351 351 351 349
354 358 362 364 363 363 363 361 361 361 361 361 361 362 362 361 361 360 360 359 356 351 350 351 352 354 355 354 354 354 353 352 352 346 340 343 341 351 352 353 350 350 349
351 359 364 364 363 363 363 362 361 361 361 361 362 362 362 361 360 360 359 357 356 352 349 350 353 354 355 354 352 351 348 348 350 335 334 344 342 355 355 355 351 349 349
353 358 362 363 364 364 364 362 361 361 361 361 362 362 361 360 360 359 358 357 355 353 351 349 351 350 349 348 348 347 345 346 337 333 333 343 347 354 356 354 353 351 348
356 357 359 363 363 363 363 362 361 360 360 361 361 361 361 360 359 358 358 356 355 352 350 349 347 346 345 344 344 344 343 343 336 333 331 342 351 355 357 355 354 354 351
356 354 356 359 362 363 362 362 361 361 360 360 359 359 360 359 358 358 357 356 354 351 350 348 346 345 343 342 342 342 343 344 335 334 333 343 354 356 357 356 355 354 353
355 353 352 355 358 357 359 362 361 361 360 360 359 359 359 358 357 357 354 355 354 352 351 350 348 346 344 343 343 344 346 344 336 333 329 339 353 357 357 356 356 356 356
353 351 350 351 352 353 356 360 361 362 361 360 359 359 356 353 353 354 353 355 354 353 352 351 349 347 346 346 346 347 346 335 332 330 331 351 354 356 356 355 356 356 356
347 348 347 348 349 348 356 355 355 357 357 356 357 355 352 348 349 351 351 354 354 353 352 351 350 349 348 336 333 346 338 335 332 328 333 352 353 354 353 353 353 354 357
346 347 345 346 347 345 345 354 353 354 354 354 353 353 350 349 349 348 344 347 346 350 344 346 344 342 337 334 330 330 336 333 331 331 340 350 350 353 354 353 353 354 355
322 345 345 346 345 343 344 350 349 350 351 352 352 353 350 346 342 345 342 341 342 343 338 338 337 336 334 331 329 333 333 334 334 339 346 351 351 354 356 355 355 355 354
322 343 346 347 345 344 346 347 346 344 346 346 348 350 351 347 343 341 341 338 339 339 336 333 333 333 333 331 332 333 337 337 335 340 341 353 351 352 355 356 356 356 357
338 339 346 347 349 350 351 350 348 344 344 343 344 345 348 348 344 344 338 337 338 337 336 330 333 332 332 334 333 334 338 341 341 339 341 345 350 350 352 355 357 357 358
325 339 340 342 346 345 344 350 355 353 345 342 342 343 345 346 345 344 340 340 340 337 335 333 330 333 334 333 331 336 341 340 342 342 343 343 345 350 351 353 355 356 357
321 336 342 338 335 333 330 346 353 353 353 347 344 344 345 344 347 346 343 340 341 340 337 335 332 336 334 333 332 334 337 341 343 343 345 344 342 344 350 352 353 354 356
321 321 326 334 329 330 341 350 352 352 351 352 346 347 346 345 345 347 344 341 340 338 339 336 334 335 332 331 331 332 338 340 342 345 343 342 344 344 343 349 351 351 353
319 322 324 326 331 336 343 350 352 350 351 351 351 348 349 346 345 345 345 343 342 340 338 337 333 332 330 331 332 333 339 340 341 340 341 345 345 344 345 344 347 347 350
321 321 320 321 326 330 331 329 345 346 349 351 353 351 350 350 346 345 345 344 343 339 338 337 334 331 331 331 329 328 331 338 339 342 344 343 341 341 342 342 345 345 346
317 321 325 324 322 325 328 331 333 335 343 349 352 352 354 351 350 346 344 344 341 342 339 336 337 334 333 334 328 325 320 324 335 340 338 338 338 343 344 343 342 349 350
316 318 322 321 325 323 327 328 327 329 332 337 341 346 350 352 350 350 347 346 346 341 342 340 338 335 331 333 330 326 322 318 326 333 334 336 339 338 341 342 346 346 345
312 315 321 323 322 324 323 324 322 323 323 327 329 334 340 350 351 348 350 349 347 345 344 345 342 339 335 331 332 332 331 327 322 322 332 334 335 337 337 339 342 344 343
311 314 318 318 317 316 325 326 325 323 324 326 328 329 330 333 341 349 349 345 339 338 342 344 341 342 340 335 334 332 330 330 329 321 319 327 331 336 336 336 338 341 341
311 311 315 314 317 318 317 319 320 321 325 325 325 326 328 329 332 339 330 328 334 331 336 341 342 342 341 338 335 333 332 329 327 323 318 319 325 328 333 334 335 337 339

GFSSE_sfc_thetae_108.txt.gz
Theta_e
357 361 365 365 363 363 362 360 361 361 360 361 361 361 361 361 362 363 363 362 361 361 358 355 353 354 354 355 355 356 357 357 357 354 352 353 353 356 355 349 348 346 349
358 362 364 364 363 363 362 362 361 360 360 361 361 361 361 361 361 361 361 361 361 358 356 352 352 354 354 354 354 355 353 355 357 355 353 351 352 352 353 349 348 346 349
358 360 362 363 363 363 362 361 361 360 360 360 361 361 361 361 361 361 360 360 359 356 353 352 353 353 354 353 353 353 353 354 354 356 352 346 345 351 351 350 349 347 348
359 359 359 363 362 362 361 360 360 360 360 360 361 361 361 361 361 360 359 359 356 353 351 352 353 354 354 353 352 352 353 354 354 352 349 347 344 351 351 350 351 349 347
357 358 359 362 362 362 361 360 360 360 360 360 361 361 361 361 360 360 360 358 354 351 351 352 353 353 354 353 352 351 350 349 348 342 338 343 340 349 351 351 352 352 349
355 358 363 362 361 362 361 360 360 360 360 360 361 360 360 359 359 359 358 357 355 351 350 351 353 354 353 352 351 349 347 347 346 332 331 345 340 353 352 352 349 349 349
354 358 361 363 362 362 361 361 360 360 359 360 360 360 360 359 359 358 358 356 354 351 350 350 351 353 353 351 348 345 343 344 334 329 331 341 341 353 356 354 350 348 348
354 357 360 363 362 361 361 360 360 360 359 359 360 360 359 359 358 358 357 356 354 352 351 349 350 349 347 345 343 341 341 342 335 330 330 340 346 354 356 354 353 350 348
355 354 357 359 361 363 361 360 359 359 359 359 359 358 358 358 358 357 356 355 354 351 351 349 348 346 345 343 342 341 342 343 332 332 331 333 351 356 355 355 354 352 350
353 352 354 356 358 358 359 361 360 359 359 358 358 358 358 357 357 356 354 354 354 351 350 349 348 346 345 343 342 342 345 344 335 332 329 337 353 356 357 356 355 354 352
351 350 353 355 356 357 357 360 360 361 360 359 358 358 355 353 353 353 353 354 354 352 350 350 349 347 346 345 344 345 345 334 331 329 328 339 352 356 358 357 356 356 355
346 347 349 351 352 354 358 357 357 358 358 356 356 355 352 349 349 351 351 354 354 353 351 350 349 348 347 335 334 344 337 334 332 330 326 344 353 356 358 356 356 356 356
348 347 347 349 351 351 353 354 355 356 356 355 354 353 351 348 348 349 346 347 346 351 343 345 344 341 337 333 330 326 332 334 331 330 333 346 353 357 357 355 354 354 355
345 346 345 346 346 347 351 352 352 353 353 352 353 352 349 346 344 345 344 341 340 340 337 336 336 336 336 333 329 327 328 332 331 332 335 348 350 352 355 354 354 354 353
334 344 343 344 344 344 346 349 349 349 351 351 351 351 351 347 344 344 341 339 340 337 337 333 332 332 331 330 329 329 330 333 333 336 339 352 349 351 356 357 355 356 355
336 340 342 343 343 340 344 344 344 345 348 348 350 351 351 349 346 342 340 339 338 337 338 335 331 330 328 329 328 330 331 334 336 337 338 345 350 350 354 357 357 357 356
337 342 343 344 346 347 348 348 345 343 342 343 344 348 350 349 345 343 340 339 337 336 335 333 329 329 329 330 331 332 332 336 339 339 338 339 344 349 351 354 356 356 357
336 338 341 347 342 345 340 335 349 349 344 342 341 342 343 346 347 343 341 340 339 337 335 332 328 325 329 330 330 331 332 336 338 339 340 341 342 343 349 352 353 355 356
330 336 334 334 338 336 332 335 346 349 348 345 341 340 341 341 343 345 343 342 339 337 333 332 330 327 326 329 330 329 328 332 336 341 340 341 341 343 342 349 351 351 353
326 332 330 332 330 329 331 335 346 348 347 347 347 345 342 343 342 341 343 343 338 337 336 334 333 330 327 328 330 330 329 332 335 337 338 341 342 343 342 342 345 347 350
318 320 323 325 327 327 327 326 332 342 343 345 348 348 346 346 344 341 340 340 339 337 337 336 333 330 329 327 326 325 327 331 333 337 340 338 341 343 342 343 342 343 344
316 317 321 323 322 324 324 327 328 328 331 336 343 349 350 346 346 343 340 339 338 338 337 335 333 333 333 331 327 322 320 323 330 336 338 339 338 338 338 340 340 343 343
318 318 316 319 319 321 323 321 320 321 322 324 326 331 339 341 345 347 344 341 339 339 339 337 333 333 332 331 331 326 318 318 322 330 335 335 336 335 336 339 340 341 345
314 319 321 319 322 320 319 318 318 318 316 318 322 327 327 331 336 341 342 345 342 341 340 339 339 335 334 330 331 335 328 324 321 319 330 333 334 335 335 336 339 342 343
312 318 316 317 316 315 323 321 320 319 319 320 321 321 322 325 330 333 335 338 340 338 332 333 336 331 333 334 332 330 330 330 327 321 321 327 328 333 335 335 337 339 341
312 312 311 312 314 314 314 316 315 314 314 318 320 320 323 322 323 326 331 328 331 326 328 330 330 328 331 332 328 324 328 328 327 325 319 320 325 328 334 334 333 335 337

GFSSE_sfc_thetae_111.txt.gz
Theta_e
354 359 362 364 362 362 362 361 361 361 361 361 361 362 361 361 362 362 362 361 361 361 357 355 353 354 354 354 355 356 357 356 353 352 353 353 353 354 350 349 349 347 349
357 359 363 363 362 362 362 361 360 360 360 360 361 361 361 361 361 361 361 361 360 357 355 352 353 354 354 354 354 354 355 355 356 352 351 353 354 353 349 348 349 347 347
356 359 359 362 362 362 361 360 360 359 359 360 360 360 360 360 360 360 360 360 359 356 353 352 353 354 354 353 353 352 353 354 356 355 351 344 346 350 349 348 347 349 348
357 358 359 362 362 361 361 359 359 359 359 360 360 360 360 360 359 359 360 359 356 354 352 352 353 354 354 353 352 352 353 353 354 353 347 345 345 350 349 349 348 347 347
355 357 359 362 361 361 360 360 359 359 359 360 360 360 359 359 359 359 359 358 354 352 351 352 353 354 353 353 353 353 353 351 348 345 340 344 340 349 350 351 351 348 347
354 356 361 362 361 360 360 360 359 359 359 359 359 359 359 359 359 359 358 356 354 352 351 352 353 354 354 353 353 351 348 347 345 330 330 334 339 352 352 352 352 349 348
353 355 359 361 361 360 360 360 360 359 359 359 360 359 358 359 358 358 357 355 353 353 351 352 354 355 355 353 351 348 345 343 332 327 329 343 338 352 353 353 350 349 349
353 356 357 361 361 360 360 359 359 358 359 359 359 359 359 358 358 357 357 355 354 353 352 352 353 354 353 351 349 346 344 342 332 327 327 338 343 352 354 356 352 349 348
354 355 355 356 359 361 359 359 358 358 358 358 358 358 357 357 357 357 356 355 354 353 352 352 351 350 349 348 347 344 343 342 329 329 329 328 349 353 355 355 351 349 349
351 352 353 355 357 356 356 359 359 359 358 358 358 357 357 357 357 356 354 354 354 352 351 351 349 348 347 345 344 343 343 343 332 331 329 326 347 353 355 356 354 353 351
349 347 351 353 355 355 355 357 358 360 359 358 358 357 354 351 351 352 353 351 355 353 351 350 349 347 346 345 344 344 345 332 330 329 326 334 350 354 356 358 356 355 353
345 346 350 351 353 353 356 354 354 355 355 355 353 352 350 348 348 350 351 353 354 354 352 351 350 349 347 334 333 341 336 333 331 329 328 338 345 352 357 359 357 356 355
346 346 347 349 350 351 352 354 354 354 354 354 352 352 350 348 346 348 345 346 346 351 344 345 342 341 337 335 332 328 327 332 333 332 332 343 346 354 358 359 357 357 356
344 345 346 347 348 348 349 351 351 351 352 351 352 351 349 347 344 344 343 342 342 342 341 337 337 337 336 336 333 330 326 326 331 332 332 343 346 355 358 359 357 356 356
343 345 344 346 346 347 348 349 350 350 351 351 351 351 349 345 342 343 342 341 340 341 339 337 335 334 332 332 331 329 328 327 331 332 334 345 348 350 356 358 357 355 355
327 343 344 344 345 345 346 346 347 348 349 349 350 350 350 346 344 342 342 341 339 338 338 337 331 331 328 327 327 327 327 328 331 334 336 338 350 350 352 355 357 356 356
324 329 341 342 344 341 343 345 344 345 345 346 347 348 349 348 344 343 340 340 340 337 334 333 331 329 326 326 326 326 327 328 330 334 336 336 340 350 350 353 357 357 357
333 337 337 343 341 340 341 342 345 343 341 342 342 343 347 349 348 344 341 339 338 335 333 332 331 328 327 327 326 326 328 329 331 333 336 336 337 340 347 351 353 356 357
335 336 338 340 341 342 336 337 344 348 344 341 340 339 339 341 345 345 342 340 338 334 332 332 331 329 326 324 325 327 328 328 330 336 337 337 338 341 341 346 350 351 353
334 334 334 338 338 337 332 333 336 341 345 346 343 340 339 339 340 338 341 338 337 334 334 332 331 328 328 326 327 327 327 328 329 331 334 339 339 340 340 340 342 346 349
330 331 330 330 329 330 329 327 329 335 340 341 344 345 346 342 341 338 338 338 337 335 335 335 334 330 327 326 325 325 328 329 328 332 334 335 338 339 339 340 340 340 342
321 320 323 325 325 327 326 325 326 326 328 330 333 334 340 339 340 341 337 337 336 336 335 336 331 330 331 329 326 323 323 325 326 330 332 335 336 339 341 340 339 340 340
316 319 322 322 321 320 321 320 317 317 316 315 319 322 328 331 333 337 338 338 337 336 337 338 336 331 330 330 331 327 320 318 322 325 330 334 336 336 339 337 338 339 340
316 317 316 317 318 319 317 315 314 313 311 314 317 321 321 326 329 331 330 333 336 337 337 338 337 334 332 331 329 333 330 325 320 320 327 331 335 335 337 337 336 338 340
316 315 316 316 316 315 316 316 316 315 316 317 317 317 319 322 325 328 328 329 327 332 337 337 337 333 333 329 324 320 321 322 324 321 316 322 328 333 336 335 336 338 340
314 314 313 311 311 317 316 316 315 312 311 312 314 318 318 320 321 324 327 326 326 324 327 330 330 331 332 329 322 321 326 320 320 321 317 319 320 328 332 335 335 337 338

GFSSE_sfc_thetae_114.txt.gz
Theta_e
351 357 361 363 362 363 362 361 361 362 362 363 363 363 362 361 361 361 362 362 362 362 358 355 355 355 354 355 356 355 356 354 354 354 354 353 354 351 350 349 350 347 349
355 358 361 362 362 362 362 362 361 360 361 361 362 362 361 361 362 361 361 361 361 358 355 353 353 353 354 354 355 356 354 354 355 353 353 353 354 352 349 348 348 346 348
354 358 358 362 362 362 361 361 360 359 360 360 361 361 361 361 361 361 361 360 359 356 353 352 353 354 354 354 354 355 355 355 356 352 351 350 351 351 349 348 349 348 347
356 357 357 362 362 361 360 360 359 359 359 359 360 360 360 360 360 359 360 359 357 354 352 353 354 355 354 353 353 353 354 354 355 353 347 346 347 349 349 348 348 349 347
355 357 358 362 361 361 360 359 358 359 359 359 359 359 359 360 359 359 359 359 356 353 351 353 354 355 355 354 354 355 355 354 352 351 349 347 346 349 350 350 348 347 347
354 356 360 361 361 360 359 359 358 358 359 359 359 359 359 358 358 358 358 357 355 352 351 353 355 356 356 355 355 354 352 350 346 335 335 337 346 350 351 352 351 348 347
352 355 359 361 360 360 360 360 358 358 358 359 359 359 359 359 358 358 357 356 354 354 352 353 354 356 355 355 354 351 349 346 338 332 332 342 343 349 354 352 353 350 348
351 355 356 359 359 359 360 359 358 357 357 358 359 359 359 359 358 358 357 355 355 354 354 354 355 355 354 353 352 349 347 345 336 331 332 342 344 350 353 354 353 351 349
353 353 353 355 358 359 359 358 358 357 357 357 357 357 357 357 357 357 356 355 355 354 353 354 354 354 353 352 350 348 346 344 334 331 330 337 348 351 353 356 353 351 350
351 352 352 353 354 354 355 359 358 357 357 357 357 357 357 356 356 356 354 354 354 353 352 352 352 351 350 349 347 346 345 343 336 334 333 332 341 350 354 358 355 353 352
348 347 350 351 352 352 352 356 358 358 358 358 357 357 354 352 352 353 353 352 355 354 352 351 350 348 347 346 346 346 345 336 334 333 331 334 342 349 355 357 356 355 354
343 346 348 350 351 350 353 351 352 353 355 354 354 353 351 349 348 351 352 354 352 354 353 351 351 349 347 340 336 337 337 338 335 334 332 338 342 346 356 358 358 356 356
343 345 348 348 351 352 351 352 352 352 353 352 351 351 350 349 349 350 348 349 349 350 348 346 345 343 341 339 337 334 332 330 333 334 335 342 345 344 349 358 359 357 356
342 343 346 348 350 350 351 352 351 350 352 350 352 350 348 346 345 346 346 345 345 345 344 343 340 340 339 339 337 335 333 330 329 332 334 343 345 347 352 357 360 359 357
341 343 344 347 348 349 349 351 349 349 350 350 350 350 349 346 344 345 345 344 343 343 342 340 338 337 337 336 335 334 333 331 330 332 335 341 346 348 351 358 360 360 357
342 344 344 345 347 348 348 349 349 348 350 349 350 350 349 346 344 343 343 343 342 341 341 340 338 335 334 333 332 332 331 331 330 331 333 338 344 348 352 354 358 359 358
325 341 342 343 345 346 346 347 347 348 349 349 348 349 349 349 345 345 342 341 342 341 340 339 338 336 333 331 330 331 330 330 329 330 334 338 340 344 351 352 354 356 358
318 325 338 344 342 343 343 345 345 344 344 345 346 347 349 349 349 346 344 343 343 341 338 337 336 334 332 331 331 330 331 332 332 334 336 339 341 341 345 352 352 354 357
317 332 334 338 339 340 339 341 344 343 341 342 343 343 343 347 349 348 346 345 342 339 337 337 335 334 334 330 329 330 330 331 332 333 335 339 341 342 342 344 349 351 352
327 334 335 337 338 338 336 337 340 344 347 346 342 340 341 341 343 344 345 343 341 338 336 335 334 334 333 333 329 330 331 331 332 332 333 336 341 343 343 345 345 348 349
331 332 334 336 336 335 333 332 332 332 339 343 346 347 347 344 341 339 339 340 340 339 338 337 337 334 332 330 332 332 331 331 330 333 336 336 337 339 344 344 344 344 346
330 332 331 334 333 336 332 328 329 330 331 333 334 336 334 334 338 341 339 338 338 338 337 337 335 334 334 331 330 328 324 328 332 332 333 336 336 339 338 342 344 344 345
324 325 327 328 329 328 325 323 319 319 317 317 320 324 327 331 333 335 334 337 337 337 337 338 337 334 333 332 333 330 322 320 324 331 331 329 330 333 335 340 344 345 345
319 320 322 322 322 322 322 318 316 313 312 315 318 322 324 328 330 331 331 332 333 336 336 337 339 338 335 332 332 333 333 331 322 319 329 330 331 328 328 331 340 342 344
316 318 318 318 318 317 316 315 314 314 315 317 318 319 322 324 327 330 330 330 330 330 332 336 337 337 336 334 333 327 328 326 326 321 317 320 328 328 327 328 333 339 341
313 314 315 316 314 316 317 316 316 316 315 313 315 319 319 322 325 328 328 328 327 327 328 329 332 333 333 333 332 327 326 323 321 321 319 321 322 325 326 327 331 336 339

GFSSE_sfc_thetae_117.txt.gz
Theta_e
354 361 363 363 363 364 364 365 365 364 363 362 362 362 361 360 361 362 362 362 363 363 358 357 356 357 356 355 354 354 355 355 355 355 354 354 352 351 350 350 349 346 349
358 361 360 363 363 363 363 363 363 363 363 363 363 362 361 361 362 362 362 362 362 359 356 355 355 355 355 355 355 354 353 354 354 354 354 353 354 350 349 348 347 347 348
358 362 359 362 363 363 362 362 362 362 362 362 362 362 361 362 362 362 361 361 359 356 353 353 354 354 354 355 355 354 354 353 353 352 352 352 350 349 347 348 348 347 347
359 360 358 362 362 362 361 360 360 361 361 361 361 361 361 361 361 360 360 359 357 355 352 353 354 355 354 354 355 355 355 355 353 351 350 347 347 350 348 348 349 348 347
359 359 360 361 361 361 360 360 360 360 360 361 361 361 361 361 360 360 360 360 357 353 352 354 355 356 354 353 354 354 354 354 354 353 352 352 350 349 350 349 348 348 347
357 358 361 361 361 361 361 360 359 359 359 360 360 360 360 360 359 359 359 358 356 353 353 354 356 356 356 354 355 355 353 351 348 345 344 346 352 354 351 351 350 346 347
356 358 359 361 361 361 360 359 359 359 358 359 360 359 359 359 359 359 358 357 356 355 354 354 356 357 357 356 354 354 351 347 343 339 340 346 346 349 353 352 353 350 348
356 358 357 360 360 360 360 359 358 357 358 358 358 358 359 359 358 358 357 356 355 355 355 354 355 355 355 354 354 352 350 345 339 339 338 342 351 349 352 355 354 352 349
357 358 357 356 359 360 359 358 357 357 357 358 358 358 359 358 358 358 357 355 354 354 353 353 353 353 353 352 352 351 348 344 339 336 334 338 349 349 351 356 354 352 351
356 356 355 356 353 355 357 359 358 357 357 357 357 357 358 357 357 356 355 354 352 351 350 350 350 350 351 350 349 347 344 342 335 336 336 337 338 345 351 356 356 355 352
352 355 355 352 354 353 353 356 357 357 357 357 357 357 354 351 352 353 353 352 353 352 350 348 348 348 348 347 346 345 342 335 335 334 334 340 339 341 349 356 358 357 354
348 352 354 354 353 353 350 355 355 354 354 354 354 356 353 354 353 351 352 353 352 353 353 351 350 349 345 337 337 339 333 335 336 336 335 342 342 343 348 356 358 358 356
348 351 353 356 356 353 350 353 354 353 355 356 357 358 357 354 354 353 352 351 352 352 349 349 347 344 341 340 337 337 336 336 333 333 336 343 345 344 347 352 359 359 357
347 350 353 356 357 356 353 353 353 352 354 354 355 358 356 353 354 353 352 352 353 350 349 349 345 346 345 344 342 339 338 337 334 334 336 342 345 346 346 352 355 359 359
346 349 352 355 356 357 357 355 355 354 354 355 356 356 356 353 353 353 353 353 353 352 351 349 348 346 344 343 341 339 337 338 337 335 335 342 345 347 348 349 355 359 360
350 349 351 354 357 357 357 358 356 357 356 356 356 354 353 354 355 353 352 352 352 352 352 351 350 349 346 344 341 340 339 339 338 337 333 334 342 345 349 351 353 360 361
351 354 353 353 356 357 357 358 356 356 356 355 355 354 353 352 354 356 353 352 353 354 354 352 351 350 347 346 344 344 342 341 339 340 339 337 338 344 347 351 354 356 359
338 349 355 353 353 355 356 356 355 355 356 355 354 354 354 355 355 356 354 352 353 352 351 350 349 347 346 345 344 344 342 343 343 342 342 341 339 342 346 348 353 354 355
326 334 345 354 353 354 355 354 355 356 355 354 355 355 356 356 356 356 353 354 356 352 351 348 348 347 345 345 343 341 341 342 343 341 343 343 342 341 342 346 347 350 352
323 333 343 346 352 353 352 352 353 353 353 353 352 352 353 353 352 353 353 354 353 351 350 350 348 348 345 344 342 341 343 343 342 342 342 340 341 342 345 347 347 346 348
324 334 341 346 350 349 347 347 348 348 351 352 355 356 355 355 352 352 351 351 351 349 350 350 347 345 344 346 340 342 343 345 344 341 339 340 343 343 345 346 347 347 346
328 338 343 347 349 348 347 348 347 347 349 351 351 347 346 345 347 347 348 345 346 345 347 347 345 343 342 345 339 339 333 337 339 341 340 341 344 342 342 344 345 348 349
330 338 343 347 349 349 348 340 340 340 338 333 337 335 337 339 341 343 341 342 344 344 340 344 343 339 338 341 343 338 332 327 335 338 339 339 342 340 340 341 343 343 349
327 336 343 345 347 344 341 339 341 336 330 328 329 332 334 337 338 340 340 341 342 342 342 340 339 340 339 335 340 338 343 340 330 327 335 336 338 337 339 337 337 341 344
323 331 338 341 341 341 340 339 336 332 328 328 329 333 336 338 338 338 340 341 341 339 341 342 341 341 341 338 336 335 336 338 339 332 327 330 334 335 336 336 336 335 338
320 327 333 335 334 334 333 333 335 333 331 327 327 329 330 333 336 338 337 339 339 336 336 336 338 340 338 336 337 337 332 329 329 329 327 329 329 333 334 335 336 335 336